| time (UTC) | temp F | wind direction | speed MPH | gust MPH | rain 1hr in | rain 24hr in | rain mn in | humidity % | barometer mb |
| 20260905163303 | 90 | 44 | 4.0 | 12.0 | 0.00 | 0.05 | 0.00 | 13 | 1015.1 |
| 20260905163203 | 90 | 45 | 4.0 | 12.0 | 0.00 | 0.05 | 0.00 | 13 | 1015.1 |
| 20260905163103 | 90 | 46 | 3.0 | 9.0 | 0.00 | 0.05 | 0.00 | 12 | 1015.1 |
| 20260905163003 | 90 | 47 | 4.0 | 9.0 | 0.00 | 0.05 | 0.00 | 12 | 1015.1 |
| 20260905162903 | 90 | 53 | 4.0 | 9.0 | 0.00 | 0.05 | 0.00 | 10 | 1015.1 |
| 20260905162803 | 89 | 55 | 4.0 | 9.0 | 0.00 | 0.05 | 0.00 | 9 | 1015.2 |
| 20260905162703 | 89 | 55 | 5.0 | 9.0 | 0.00 | 0.05 | 0.00 | 10 | 1015.1 |
| 20260905162603 | 89 | 56 | 5.0 | 9.0 | 0.00 | 0.05 | 0.00 | 10 | 1015.1 |
| 20260905162503 | 90 | 58 | 5.0 | 9.0 | 0.00 | 0.05 | 0.00 | 11 | 1015.2 |
| 20260905162403 | 90 | 61 | 5.0 | 9.0 | 0.00 | 0.05 | 0.00 | 9 | 1015.1 |
| 20260905162305 | 89 | 62 | 5.0 | 11.0 | 0.00 | 0.05 | 0.00 | 8 | 1015.1 |
| 20260905162203 | 89 | 61 | 5.0 | 11.0 | 0.00 | 0.05 | 0.00 | 8 | 1015.1 |
| 20260905162103 | 89 | 61 | 5.0 | 11.0 | 0.00 | 0.05 | 0.00 | 9 | 1015.1 |
| 20260905162003 | 89 | 61 | 5.0 | 11.0 | 0.00 | 0.05 | 0.00 | 9 | 1015.1 |
| 20260905161903 | 89 | 57 | 5.0 | 11.0 | 0.00 | 0.05 | 0.00 | 8 | 1015.1 |
| 20260905161824 | 89 | 56 | 5.0 | 11.0 | 0.00 | 0.05 | 0.00 | 10 | 1015.1 |
| 20260905161703 | 89 | 54 | 5.0 | 11.0 | 0.00 | 0.05 | 0.00 | 9 | 1015.1 |
| 20260905161603 | 89 | 50 | 5.0 | 12.0 | 0.00 | 0.05 | 0.00 | 10 | 1015.2 |
| 20260905161524 | 89 | 48 | 5.0 | 12.0 | 0.00 | 0.05 | 0.00 | 9 | 1015.2 |
| 20260905161403 | 90 | 44 | 5.0 | 12.0 | 0.00 | 0.05 | 0.00 | 7 | 1015.2 |
| 20260905161303 | 89 | 41 | 5.0 | 12.0 | 0.00 | 0.05 | 0.00 | 8 | 1015.2 |
| 20260905161203 | 89 | 43 | 5.0 | 12.0 | 0.00 | 0.05 | 0.00 | 7 | 1015.2 |
| 20260905161103 | 89 | 43 | 5.0 | 12.0 | 0.00 | 0.05 | 0.00 | 7 | 1015.2 |
| 20260905161003 | 89 | 44 | 6.0 | 12.0 | 0.00 | 0.05 | 0.00 | 7 | 1015.2 |
| 20260905160903 | 89 | 43 | 6.0 | 12.0 | 0.00 | 0.05 | 0.00 | 8 | 1015.2 |
| 20260905160803 | 89 | 39 | 6.0 | 12.0 | 0.00 | 0.05 | 0.00 | 8 | 1015.2 |
| 20260905160703 | 89 | 37 | 6.0 | 12.0 | 0.00 | 0.05 | 0.00 | 8 | 1015.2 |
| 20260905160603 | 89 | 38 | 5.0 | 10.0 | 0.00 | 0.05 | 0.00 | 8 | 1015.2 |
| 20260905160503 | 89 | 39 | 5.0 | 10.0 | 0.00 | 0.05 | 0.00 | 8 | 1015.2 |
| 20260905160403 | 89 | 37 | 5.0 | 9.0 | 0.00 | 0.05 | 0.00 | 6 | 1015.2 |
| 20260905160304 | 89 | 33 | 5.0 | 9.0 | 0.00 | 0.05 | 0.00 | 6 | 1015.3 |
| 20260905160203 | 89 | 31 | 5.0 | 9.0 | 0.00 | 0.05 | 0.00 | 6 | 1015.3 |
| 20260905160003 | 89 | 32 | 5.0 | 10.0 | 0.00 | 0.05 | 0.00 | 5 | 1015.3 |
| 20260905155903 | 89 | 37 | 5.0 | 10.0 | 0.00 | 0.05 | 0.00 | 4 | 1015.2 |
| 20260905155803 | 89 | 41 | 5.0 | 10.0 | 0.00 | 0.05 | 0.00 | 3 | 1015.2 |
| 20260905155703 | 89 | 45 | 5.0 | 10.0 | 0.00 | 0.05 | 0.00 | 1 | 1015.2 |
| 20260905155604 | 89 | 48 | 5.0 | 10.0 | 0.00 | 0.05 | 0.00 | 1 | 1015.2 |
| 20260905155524 | 89 | 46 | 4.0 | 10.0 | 0.00 | 0.05 | 0.00 | 1 | 1015.2 |
| 20260905155403 | 89 | 50 | 4.0 | 10.0 | 0.00 | 0.05 | 0.00 | 1 | 1015.2 |
| 20260905155306 | 89 | 54 | 4.0 | 10.0 | 0.00 | 0.05 | 0.00 | 1 | 1015.2 |
| 20260905155224 | 89 | 55 | 4.0 | 10.0 | 0.00 | 0.05 | 0.00 | 1 | 1015.2 |
| 20260905155103 | 89 | 55 | 3.0 | 9.0 | 0.00 | 0.05 | 0.00 | 1 | 1015.2 |
| 20260905155024 | 89 | 55 | 3.0 | 8.0 | 0.00 | 0.05 | 0.00 | 1 | 1015.2 |
| 20260905154903 | 89 | 51 | 3.0 | 8.0 | 0.00 | 0.05 | 0.00 | 1 | 1015.2 |
| 20260905154803 | 88 | 47 | 3.0 | 8.0 | 0.00 | 0.05 | 0.00 | 1 | 1015.2 |
| 20260905154703 | 88 | 44 | 3.0 | 8.0 | 0.00 | 0.05 | 0.00 | 1 | 1015.2 |
| 20260905154603 | 88 | 42 | 3.0 | 6.0 | 0.00 | 0.05 | 0.00 | 1 | 1015.2 |
| 20260905154503 | 88 | 43 | 3.0 | 9.0 | 0.00 | 0.05 | 0.00 | 1 | 1015.2 |
| 20260905154403 | 88 | 46 | 3.0 | 9.0 | 0.00 | 0.05 | 0.00 | 1 | 1015.2 |
| 20260905154324 | 88 | 46 | 4.0 | 9.0 | 0.00 | 0.05 | 0.00 | 1 | 1015.2 |
| 20260905154203 | 88 | 46 | 4.0 | 9.0 | 0.00 | 0.05 | 0.00 | 1 | 1015.2 |
| 20260905154103 | 87 | 43 | 5.0 | 10.0 | 0.00 | 0.05 | 0.00 | 1 | 1015.2 |
| 20260905154024 | 87 | 43 | 5.0 | 10.0 | 0.00 | 0.05 | 0.00 | 1 | 1015.1 |
| 20260905153903 | 87 | 46 | 6.0 | 10.0 | 0.00 | 0.05 | 0.00 | 1 | 1015.2 |
| 20260905153803 | 87 | 47 | 6.0 | 11.0 | 0.00 | 0.05 | 0.00 | 1 | 1015.2 |
| 20260905153703 | 87 | 47 | 6.0 | 11.0 | 0.00 | 0.05 | 0.00 | 1 | 1015.2 |
| 20260905153624 | 87 | 47 | 6.0 | 11.0 | 0.00 | 0.05 | 0.00 | 1 | 1015.2 |
| 20260905153503 | 87 | 46 | 5.0 | 11.0 | 0.00 | 0.05 | 0.00 | 1 | 1015.2 |
| 20260905153424 | 87 | 44 | 6.0 | 11.0 | 0.00 | 0.05 | 0.00 | 1 | 1015.2 |
| 20260905153324 | 87 | 41 | 6.0 | 11.0 | 0.00 | 0.05 | 0.00 | 1 | 1015.2 |
| 20260905153203 | 87 | 41 | 5.0 | 11.0 | 0.00 | 0.05 | 0.00 | 1 | 1015.2 |
| 20260905153103 | 87 | 45 | 5.0 | 11.0 | 0.00 | 0.05 | 0.00 | 1 | 1015.2 |
| 20260905153003 | 87 | 44 | 5.0 | 11.0 | 0.00 | 0.05 | 0.00 | 1 | 1015.2 |
| 20260905152903 | 87 | 40 | 5.0 | 11.0 | 0.00 | 0.05 | 0.00 | 1 | 1015.2 |
| 20260905152803 | 87 | 38 | 4.0 | 10.0 | 0.00 | 0.05 | 0.00 | 1 | 1015.2 |
| 20260905152703 | 87 | 38 | 5.0 | 10.0 | 0.00 | 0.05 | 0.00 | 1 | 1015.1 |
| 20260905152603 | 87 | 38 | 5.0 | 10.0 | 0.00 | 0.05 | 0.00 | 1 | 1015.1 |
| 20260905152503 | 87 | 39 | 5.0 | 10.0 | 0.00 | 0.05 | 0.00 | 1 | 1015.2 |
| 20260905152403 | 87 | 40 | 5.0 | 11.0 | 0.00 | 0.05 | 0.00 | 1 | 1015.2 |
| 20260905152306 | 87 | 41 | 5.0 | 11.0 | 0.00 | 0.05 | 0.00 | 1 | 1015.2 |
| 20260905152224 | 87 | 39 | 5.0 | 11.0 | 0.00 | 0.05 | 0.00 | 1 | 1015.2 |
| 20260905152124 | 87 | 39 | 5.0 | 11.0 | 0.00 | 0.05 | 0.00 | 1 | 1015.2 |
| 20260905152003 | 86 | 41 | 5.0 | 11.0 | 0.00 | 0.05 | 0.00 | 1 | 1015.2 |
| 20260905151903 | 86 | 42 | 5.0 | 11.0 | 0.00 | 0.05 | 0.00 | 1 | 1015.3 |
| 20260905151803 | 86 | 44 | 5.0 | 11.0 | 0.00 | 0.05 | 0.00 | 1 | 1015.2 |
| 20260905151703 | 86 | 49 | 5.0 | 11.0 | 0.00 | 0.05 | 0.00 | 1 | 1015.2 |
| 20260905151603 | 86 | 53 | 5.0 | 11.0 | 0.00 | 0.05 | 0.00 | 1 | 1015.2 |
| 20260905151503 | 86 | 56 | 5.0 | 11.0 | 0.00 | 0.05 | 0.00 | 1 | 1015.2 |
| 20260905151403 | 86 | 57 | 5.0 | 9.0 | 0.00 | 0.05 | 0.00 | 1 | 1015.2 |
| 20260905151303 | 86 | 58 | 5.0 | 8.0 | 0.00 | 0.05 | 0.00 | 1 | 1015.2 |
| 20260905151203 | 86 | 61 | 5.0 | 8.0 | 0.00 | 0.05 | 0.00 | 1 | 1015.2 |
| 20260905151103 | 86 | 61 | 5.0 | 8.0 | 0.00 | 0.05 | 0.00 | 1 | 1015.2 |
| 20260905151003 | 86 | 60 | 5.0 | 8.0 | 0.00 | 0.05 | 0.00 | 1 | 1015.2 |
| 20260905150903 | 86 | 62 | 5.0 | 9.0 | 0.00 | 0.05 | 0.00 | 1 | 1015.3 |
| 20260905150824 | 86 | 64 | 5.0 | 9.0 | 0.00 | 0.05 | 0.00 | 1 | 1015.3 |
| 20260905150703 | 86 | 61 | 5.0 | 9.0 | 0.00 | 0.05 | 0.00 | 1 | 1015.3 |
| 20260905150603 | 86 | 59 | 5.0 | 9.0 | 0.00 | 0.05 | 0.00 | 1 | 1015.3 |
| 20260905150503 | 86 | 58 | 5.0 | 9.0 | 0.00 | 0.05 | 0.00 | 1 | 1015.2 |
| 20260905150403 | 86 | 60 | 4.0 | 9.0 | 0.00 | 0.05 | 0.00 | 1 | 1015.2 |
| 20260905150303 | 86 | 62 | 4.0 | 9.0 | 0.00 | 0.05 | 0.00 | 1 | 1015.2 |
| 20260905150203 | 86 | 63 | 4.0 | 9.0 | 0.00 | 0.05 | 0.00 | 1 | 1015.2 |
| 20260905150003 | 86 | 67 | 3.0 | 9.0 | 0.00 | 0.05 | 0.00 | 1 | 1015.2 |
| 20260905145903 | 86 | 66 | 3.0 | 9.0 | 0.00 | 0.05 | 0.00 | 1 | 1015.2 |
| 20260905145824 | 87 | 66 | 2.0 | 9.0 | 0.00 | 0.05 | 0.00 | 1 | 1015.2 |
| 20260905145703 | 87 | 66 | 2.0 | 5.0 | 0.00 | 0.05 | 0.00 | 1 | 1015.2 |
| 20260905145603 | 86 | 66 | 2.0 | 5.0 | 0.00 | 0.05 | 0.00 | 1 | 1015.2 |
| 20260905145503 | 86 | 66 | 2.0 | 5.0 | 0.00 | 0.05 | 0.00 | 1 | 1015.2 |
| 20260905145424 | 86 | 64 | 2.0 | 5.0 | 0.00 | 0.05 | 0.00 | 1 | 1015.2 |
| 20260905145306 | 86 | 60 | 2.0 | 6.0 | 0.00 | 0.05 | 0.00 | 1 | 1015.2 |
| 20260905145203 | 86 | 57 | 3.0 | 6.0 | 0.00 | 0.05 | 0.00 | 1 | 1015.2 |
| 20260905145103 | 86 | 53 | 2.0 | 6.0 | 0.00 | 0.05 | 0.00 | 1 | 1015.2 |
| 20260905145003 | 86 | 50 | 2.0 | 6.0 | 0.00 | 0.05 | 0.00 | 1 | 1015.2 |
| 20260905144903 | 85 | 45 | 3.0 | 6.0 | 0.00 | 0.05 | 0.00 | 1 | 1015.2 |
| 20260905144803 | 85 | 42 | 3.0 | 7.0 | 0.00 | 0.05 | 0.00 | 1 | 1015.1 |
| 20260905144703 | 85 | 42 | 3.0 | 7.0 | 0.00 | 0.05 | 0.00 | 1 | 1015.2 |
| 20260905144603 | 85 | 43 | 3.0 | 7.0 | 0.00 | 0.05 | 0.00 | 1 | 1015.1 |
| 20260905144503 | 85 | 42 | 3.0 | 7.0 | 0.00 | 0.05 | 0.00 | 1 | 1015.1 |
| 20260905144403 | 85 | 44 | 3.0 | 7.0 | 0.00 | 0.05 | 0.00 | 1 | 1015.2 |
| 20260905144303 | 85 | 46 | 3.0 | 7.0 | 0.00 | 0.05 | 0.00 | 1 | 1015.2 |
| 20260905144203 | 85 | 48 | 3.0 | 7.0 | 0.00 | 0.05 | 0.00 | 1 | 1015.1 |
| 20260905144103 | 84 | 50 | 3.0 | 7.0 | 0.00 | 0.05 | 0.00 | 1 | 1015.1 |
| 20260905144003 | 84 | 52 | 4.0 | 7.0 | 0.00 | 0.05 | 0.00 | 1 | 1015.1 |
| 20260905143903 | 84 | 56 | 3.0 | 7.0 | 0.00 | 0.05 | 0.00 | 1 | 1015.2 |
| 20260905143803 | 84 | 58 | 3.0 | 5.0 | 0.00 | 0.05 | 0.00 | 1 | 1015.1 |
| 20260905143724 | 84 | 58 | 3.0 | 5.0 | 0.00 | 0.05 | 0.00 | 1 | 1015.2 |
| 20260905143624 | 84 | 58 | 3.0 | 5.0 | 0.00 | 0.05 | 0.00 | 1 | 1015.2 |
| 20260905143524 | 84 | 58 | 2.0 | 5.0 | 0.00 | 0.05 | 0.00 | 1 | 1015.2 |
| 20260905143403 | 84 | 58 | 2.0 | 5.0 | 0.00 | 0.05 | 0.00 | 1 | 1015.2 |
| 20260905143303 | 84 | 59 | 1.0 | 5.0 | 0.00 | 0.05 | 0.00 | 1 | 1015.2 |
| 20260905143203 | 84 | 59 | 1.0 | 5.0 | 0.00 | 0.05 | 0.00 | 1 | 1015.2 |
| 20260905143103 | 84 | 59 | 1.0 | 5.0 | 0.00 | 0.05 | 0.00 | 1 | 1015.2 |
| 20260905143003 | 84 | 59 | 0.0 | 5.0 | 0.00 | 0.05 | 0.00 | 1 | 1015.2 |
| 20260905142903 | 84 | 60 | 0.0 | 4.0 | 0.00 | 0.05 | 0.00 | 1 | 1015.2 |
| 20260905142803 | 84 | 0 | 0.0 | 0.0 | 0.00 | 0.05 | 0.00 | 1 | 1015.2 |
| 20260905142703 | 84 | 0 | 0.0 | 0.0 | 0.00 | 0.05 | 0.00 | 1 | 1015.2 |
| 20260905142624 | 84 | 0 | 0.0 | 0.0 | 0.00 | 0.05 | 0.00 | 1 | 1015.2 |
| 20260905142503 | 84 | 0 | 0.0 | 0.0 | 0.00 | 0.05 | 0.00 | 1 | 1015.2 |
| 20260905142403 | 84 | 0 | 0.0 | 0.0 | 0.00 | 0.05 | 0.00 | 1 | 1015.2 |
| 20260905142306 | 84 | 0 | 0.0 | 0.0 | 0.00 | 0.05 | 0.00 | 1 | 1015.2 |
| 20260905142203 | 84 | 0 | 0.0 | 0.0 | 0.00 | 0.05 | 0.00 | 1 | 1015.2 |
| 20260905142124 | 84 | 0 | 0.0 | 0.0 | 0.00 | 0.05 | 0.00 | 1 | 1015.3 |
| 20260905142024 | 84 | 0 | 0.0 | 0.0 | 0.00 | 0.05 | 0.00 | 1 | 1015.2 |
| 20260905141903 | 83 | 0 | 0.0 | 0.0 | 0.00 | 0.05 | 0.00 | 1 | 1015.2 |
| 20260905141803 | 83 | 0 | 0.0 | 0.0 | 0.00 | 0.05 | 0.00 | 1 | 1015.2 |
| 20260905141703 | 83 | 0 | 0.0 | 0.0 | 0.00 | 0.05 | 0.00 | 1 | 1015.2 |
| 20260905141603 | 83 | 0 | 0.0 | 0.0 | 0.00 | 0.05 | 0.00 | 1 | 1015.2 |
| 20260905141524 | 83 | 0 | 0.0 | 0.0 | 0.00 | 0.05 | 0.00 | 1 | 1015.2 |
| 20260905141403 | 82 | 0 | 0.0 | 0.0 | 0.00 | 0.05 | 0.00 | 1 | 1015.2 |
| 20260905141303 | 82 | 0 | 0.0 | 0.0 | 0.00 | 0.05 | 0.00 | 1 | 1015.2 |
| 20260905141203 | 82 | 0 | 0.0 | 0.0 | 0.00 | 0.05 | 0.00 | 1 | 1015.1 |
| 20260905141103 | 82 | 0 | 0.0 | 0.0 | 0.00 | 0.05 | 0.00 | 1 | 1015.1 |
| 20260905141024 | 82 | 0 | 0.0 | 0.0 | 0.00 | 0.05 | 0.00 | 1 | 1015.1 |
| 20260905140924 | 82 | 0 | 0.0 | 0.0 | 0.00 | 0.05 | 0.00 | 1 | 1015.1 |
| 20260905140803 | 82 | 0 | 0.0 | 0.0 | 0.00 | 0.05 | 0.00 | 1 | 1015.1 |
| 20260905140703 | 82 | 0 | 0.0 | 0.0 | 0.00 | 0.05 | 0.00 | 1 | 1015.1 |
| 20260905140603 | 82 | 0 | 0.0 | 0.0 | 0.00 | 0.05 | 0.00 | 1 | 1015.0 |
| 20260905140503 | 82 | 0 | 0.0 | 0.0 | 0.00 | 0.05 | 0.00 | 1 | 1015.0 |
| 20260905140403 | 83 | 0 | 0.0 | 0.0 | 0.00 | 0.05 | 0.00 | 1 | 1015.0 |
| 20260905140303 | 83 | 0 | 0.0 | 0.0 | 0.00 | 0.05 | 0.00 | 1 | 1015.0 |
| 20260905140203 | 83 | 0 | 0.0 | 0.0 | 0.00 | 0.05 | 0.00 | 1 | 1015.0 |
| 20260905140103 | 83 | 0 | 0.0 | 0.0 | 0.00 | 0.05 | 0.00 | 1 | 1015.0 |
| 20260905140003 | 83 | 0 | 0.0 | 0.0 | 0.00 | 0.05 | 0.00 | 1 | 1015.0 |
| 20260905135903 | 82 | 0 | 0.0 | 0.0 | 0.00 | 0.05 | 0.00 | 1 | 1014.9 |
| 20260905135803 | 82 | 0 | 0.0 | 0.0 | 0.00 | 0.05 | 0.00 | 1 | 1014.9 |
| 20260905135703 | 82 | 0 | 0.0 | 0.0 | 0.00 | 0.05 | 0.00 | 1 | 1014.9 |
| 20260905135603 | 82 | 0 | 0.0 | 0.0 | 0.00 | 0.05 | 0.00 | 1 | 1015.0 |
| 20260905135503 | 82 | 0 | 0.0 | 0.0 | 0.00 | 0.05 | 0.00 | 1 | 1014.9 |
| 20260905135403 | 82 | 0 | 0.0 | 0.0 | 0.00 | 0.05 | 0.00 | 1 | 1014.9 |
| 20260905135306 | 82 | 0 | 0.0 | 0.0 | 0.00 | 0.05 | 0.00 | 1 | 1015.0 |
| 20260905135203 | 82 | 0 | 0.0 | 0.0 | 0.00 | 0.05 | 0.00 | 1 | 1015.0 |
| 20260905135103 | 82 | 0 | 0.0 | 0.0 | 0.00 | 0.05 | 0.00 | 1 | 1014.9 |
| 20260905135003 | 82 | 0 | 0.0 | 0.0 | 0.00 | 0.05 | 0.00 | 1 | 1015.0 |
| 20260905134903 | 82 | 0 | 0.0 | 0.0 | 0.00 | 0.05 | 0.00 | 1 | 1014.9 |
| 20260905134803 | 82 | 0 | 0.0 | 0.0 | 0.00 | 0.05 | 0.00 | 1 | 1015.0 |
| 20260905134703 | 82 | 0 | 0.0 | 0.0 | 0.00 | 0.05 | 0.00 | 1 | 1014.9 |
| 20260905134603 | 82 | 0 | 0.0 | 0.0 | 0.00 | 0.05 | 0.00 | 1 | 1014.9 |
| 20260905134503 | 82 | 0 | 0.0 | 0.0 | 0.00 | 0.05 | 0.00 | 1 | 1014.9 |
| 20260905134403 | 82 | 0 | 0.0 | 0.0 | 0.00 | 0.05 | 0.00 | 1 | 1014.9 |
| 20260905134303 | 82 | 0 | 0.0 | 0.0 | 0.00 | 0.05 | 0.00 | 1 | 1014.9 |
| 20260905134203 | 82 | 0 | 0.0 | 0.0 | 0.00 | 0.05 | 0.00 | 1 | 1014.9 |
| 20260905134103 | 82 | 0 | 0.0 | 0.0 | 0.00 | 0.05 | 0.00 | 1 | 1014.9 |
| 20260905134003 | 82 | 0 | 0.0 | 0.0 | 0.00 | 0.05 | 0.00 | 1 | 1014.9 |
| 20260905133903 | 82 | 0 | 0.0 | 0.0 | 0.00 | 0.05 | 0.00 | 1 | 1014.9 |
| 20260905133824 | 82 | 0 | 0.0 | 0.0 | 0.00 | 0.05 | 0.00 | 1 | 1014.9 |
| 20260905133703 | 81 | 0 | 0.0 | 0.0 | 0.00 | 0.05 | 0.00 | 1 | 1014.9 |
| 20260905133603 | 81 | 0 | 0.0 | 0.0 | 0.00 | 0.05 | 0.00 | 1 | 1014.9 |
| 20260905133503 | 81 | 0 | 0.0 | 0.0 | 0.00 | 0.05 | 0.00 | 1 | 1014.9 |
| 20260905133403 | 81 | 0 | 0.0 | 0.0 | 0.00 | 0.05 | 0.00 | 1 | 1014.9 |
| 20260905133303 | 81 | 0 | 0.0 | 0.0 | 0.00 | 0.05 | 0.00 | 1 | 1014.9 |
| 20260905133203 | 81 | 0 | 0.0 | 0.0 | 0.00 | 0.05 | 0.00 | 1 | 1014.9 |
| 20260905133103 | 81 | 0 | 0.0 | 0.0 | 0.00 | 0.05 | 0.00 | 1 | 1014.8 |
| 20260905133024 | 80 | 0 | 0.0 | 0.0 | 0.00 | 0.05 | 0.00 | 1 | 1014.8 |
| 20260905132903 | 80 | 0 | 0.0 | 0.0 | 0.00 | 0.05 | 0.00 | 1 | 1014.8 |
| 20260905132803 | 80 | 0 | 0.0 | 0.0 | 0.00 | 0.05 | 0.00 | 1 | 1014.8 |
| 20260905132703 | 80 | 0 | 0.0 | 0.0 | 0.00 | 0.05 | 0.00 | 1 | 1014.8 |
| 20260905132603 | 80 | 0 | 0.0 | 0.0 | 0.00 | 0.05 | 0.00 | 1 | 1014.7 |
| 20260905132524 | 80 | 0 | 0.0 | 0.0 | 0.00 | 0.05 | 0.00 | 1 | 1014.7 |
| 20260905132424 | 80 | 0 | 0.0 | 0.0 | 0.00 | 0.05 | 0.00 | 1 | 1014.7 |
| 20260905132305 | 80 | 0 | 0.0 | 0.0 | 0.00 | 0.05 | 0.00 | 1 | 1014.6 |
| 20260905132203 | 80 | 0 | 0.0 | 0.0 | 0.00 | 0.05 | 0.00 | 1 | 1014.6 |
| 20260905132103 | 80 | 0 | 0.0 | 0.0 | 0.00 | 0.05 | 0.00 | 1 | 1014.6 |
| 20260905132003 | 80 | 0 | 0.0 | 0.0 | 0.00 | 0.05 | 0.00 | 1 | 1014.7 |
| 20260905131903 | 80 | 0 | 0.0 | 0.0 | 0.00 | 0.05 | 0.00 | 1 | 1014.6 |
| 20260905131803 | 80 | 0 | 0.0 | 0.0 | 0.00 | 0.05 | 0.00 | 1 | 1014.6 |
| 20260905131724 | 80 | 0 | 0.0 | 0.0 | 0.00 | 0.05 | 0.00 | 1 | 1014.6 |
| 20260905131603 | 80 | 0 | 0.0 | 0.0 | 0.00 | 0.05 | 0.00 | 1 | 1014.6 |
| 20260905131503 | 80 | 0 | 0.0 | 0.0 | 0.00 | 0.05 | 0.00 | 1 | 1014.6 |
| 20260905131403 | 80 | 0 | 0.0 | 0.0 | 0.00 | 0.05 | 0.00 | 1 | 1014.6 |
| 20260905131303 | 79 | 0 | 0.0 | 0.0 | 0.00 | 0.05 | 0.00 | 1 | 1014.6 |
| 20260905131203 | 79 | 0 | 0.0 | 0.0 | 0.00 | 0.05 | 0.00 | 1 | 1014.6 |
| 20260905131103 | 79 | 0 | 0.0 | 0.0 | 0.00 | 0.05 | 0.00 | 1 | 1014.6 |
| 20260905131024 | 79 | 0 | 0.0 | 0.0 | 0.00 | 0.05 | 0.00 | 1 | 1014.5 |
| 20260905130903 | 79 | 0 | 0.0 | 0.0 | 0.00 | 0.05 | 0.00 | 1 | 1014.5 |
| 20260905130803 | 79 | 0 | 0.0 | 0.0 | 0.00 | 0.06 | 0.00 | 1 | 1014.5 |
| 20260905130703 | 79 | 0 | 0.0 | 0.0 | 0.00 | 0.06 | 0.00 | 1 | 1014.5 |
| 20260905130603 | 78 | 0 | 0.0 | 0.0 | 0.00 | 0.06 | 0.00 | 1 | 1014.5 |
| 20260905130524 | 78 | 0 | 0.0 | 0.0 | 0.00 | 0.06 | 0.00 | 1 | 1014.5 |
| 20260905130403 | 78 | 0 | 0.0 | 0.0 | 0.00 | 0.06 | 0.00 | 1 | 1014.5 |
| 20260905130303 | 78 | 0 | 0.0 | 0.0 | 0.00 | 0.06 | 0.00 | 1 | 1014.5 |
| 20260905130203 | 78 | 0 | 0.0 | 0.0 | 0.00 | 0.06 | 0.00 | 1 | 1014.5 |
| 20260905130003 | 78 | 0 | 0.0 | 0.0 | 0.00 | 0.06 | 0.00 | 1 | 1014.5 |
| 20260905125903 | 77 | 0 | 0.0 | 0.0 | 0.00 | 0.06 | 0.00 | 1 | 1014.5 |
| 20260905125825 | 77 | 0 | 0.0 | 0.0 | 0.00 | 0.06 | 0.00 | 1 | 1014.4 |
| 20260905125704 | 77 | 0 | 0.0 | 0.0 | 0.00 | 0.06 | 0.00 | 1 | 1014.5 |
| 20260905125604 | 77 | 0 | 0.0 | 0.0 | 0.00 | 0.06 | 0.00 | 1 | 1014.5 |
| 20260905125504 | 77 | 0 | 0.0 | 0.0 | 0.00 | 0.06 | 0.00 | 1 | 1014.5 |
| 20260905125404 | 76 | 0 | 0.0 | 0.0 | 0.00 | 0.06 | 0.00 | 1 | 1014.5 |
| 20260905125306 | 76 | 0 | 0.0 | 0.0 | 0.00 | 0.06 | 0.00 | 1 | 1014.5 |
| 20260905125204 | 76 | 0 | 0.0 | 0.0 | 0.00 | 0.06 | 0.00 | 1 | 1014.4 |
| 20260905125104 | 76 | 0 | 0.0 | 0.0 | 0.00 | 0.06 | 0.00 | 1 | 1014.4 |
| 20260905125025 | 76 | 0 | 0.0 | 0.0 | 0.00 | 0.06 | 0.00 | 1 | 1014.4 |
| 20260905124904 | 76 | 0 | 0.0 | 0.0 | 0.00 | 0.06 | 0.00 | 1 | 1014.4 |
| 20260905124826 | 76 | 0 | 0.0 | 0.0 | 0.00 | 0.06 | 0.00 | 1 | 1014.4 |
| 20260905124704 | 76 | 0 | 0.0 | 0.0 | 0.00 | 0.06 | 0.00 | 1 | 1014.4 |
| 20260905124604 | 75 | 0 | 0.0 | 0.0 | 0.00 | 0.06 | 0.00 | 1 | 1014.4 |
| 20260905124504 | 75 | 0 | 0.0 | 0.0 | 0.00 | 0.06 | 0.00 | 1 | 1014.4 |
| 20260905124404 | 75 | 0 | 0.0 | 0.0 | 0.00 | 0.06 | 0.00 | 1 | 1014.4 |
| 20260905124304 | 75 | 0 | 0.0 | 0.0 | 0.00 | 0.06 | 0.00 | 1 | 1014.4 |
| 20260905124204 | 75 | 0 | 0.0 | 0.0 | 0.00 | 0.06 | 0.00 | 1 | 1014.4 |
| 20260905124104 | 75 | 0 | 0.0 | 0.0 | 0.00 | 0.06 | 0.00 | 1 | 1014.3 |
| 20260905124004 | 75 | 0 | 0.0 | 0.0 | 0.00 | 0.06 | 0.00 | 1 | 1014.3 |
| 20260905123927 | 75 | 0 | 0.0 | 0.0 | 0.00 | 0.06 | 0.00 | 1 | 1014.3 |
| 20260905123804 | 74 | 0 | 0.0 | 0.0 | 0.00 | 0.06 | 0.00 | 1 | 1014.3 |
| 20260905123725 | 74 | 0 | 0.0 | 0.0 | 0.00 | 0.06 | 0.00 | 1 | 1014.2 |
| 20260905123604 | 74 | 0 | 0.0 | 0.0 | 0.00 | 0.06 | 0.00 | 1 | 1014.3 |
| 20260905123525 | 74 | 0 | 0.0 | 0.0 | 0.00 | 0.06 | 0.00 | 1 | 1014.3 |
| 20260905123404 | 74 | 0 | 0.0 | 0.0 | 0.00 | 0.06 | 0.00 | 1 | 1014.3 |
| 20260905123304 | 74 | 0 | 0.0 | 0.0 | 0.00 | 0.06 | 0.00 | 1 | 1014.2 |
| 20260905123204 | 74 | 0 | 0.0 | 0.0 | 0.00 | 0.06 | 0.00 | 1 | 1014.2 |
| 20260905123104 | 74 | 0 | 0.0 | 0.0 | 0.00 | 0.06 | 0.00 | 1 | 1014.3 |
| 20260905123025 | 74 | 0 | 0.0 | 0.0 | 0.00 | 0.06 | 0.00 | 1 | 1014.2 |
| 20260905122904 | 74 | 0 | 0.0 | 0.0 | 0.00 | 0.06 | 0.00 | 1 | 1014.3 |
| 20260905122804 | 74 | 0 | 0.0 | 0.0 | 0.00 | 0.06 | 0.00 | 1 | 1014.2 |
| 20260905122704 | 74 | 0 | 0.0 | 0.0 | 0.00 | 0.06 | 0.00 | 1 | 1014.2 |
| 20260905122604 | 74 | 0 | 0.0 | 0.0 | 0.00 | 0.06 | 0.00 | 1 | 1014.2 |
| 20260905122525 | 74 | 0 | 0.0 | 0.0 | 0.00 | 0.06 | 0.00 | 1 | 1014.1 |
| 20260905122404 | 74 | 0 | 0.0 | 0.0 | 0.00 | 0.06 | 0.00 | 1 | 1014.1 |
| 20260905122306 | 74 | 0 | 0.0 | 0.0 | 0.00 | 0.06 | 0.00 | 1 | 1014.2 |
| 20260905122204 | 74 | 0 | 0.0 | 0.0 | 0.00 | 0.06 | 0.00 | 1 | 1014.2 |
| 20260905122104 | 74 | 0 | 0.0 | 0.0 | 0.00 | 0.06 | 0.00 | 1 | 1014.1 |
| 20260905122004 | 74 | 0 | 0.0 | 0.0 | 0.00 | 0.06 | 0.00 | 1 | 1014.1 |
| 20260905121904 | 74 | 0 | 0.0 | 0.0 | 0.00 | 0.06 | 0.00 | 1 | 1014.2 |
| 20260905121804 | 74 | 0 | 0.0 | 0.0 | 0.00 | 0.06 | 0.00 | 1 | 1014.2 |
| 20260905121704 | 74 | 0 | 0.0 | 0.0 | 0.00 | 0.06 | 0.00 | 1 | 1014.2 |
| 20260905121604 | 74 | 0 | 0.0 | 0.0 | 0.00 | 0.06 | 0.00 | 1 | 1014.2 |
| 20260905121504 | 74 | 0 | 0.0 | 0.0 | 0.00 | 0.06 | 0.00 | 1 | 1014.2 |
| 20260905121404 | 74 | 0 | 0.0 | 0.0 | 0.00 | 0.06 | 0.00 | 1 | 1014.2 |
| 20260905121304 | 74 | 0 | 0.0 | 0.0 | 0.00 | 0.06 | 0.00 | 1 | 1014.2 |
| 20260905121225 | 74 | 0 | 0.0 | 0.0 | 0.00 | 0.06 | 0.00 | 1 | 1014.1 |
| 20260905121104 | 74 | 0 | 0.0 | 0.0 | 0.00 | 0.06 | 0.00 | 1 | 1014.1 |
| 20260905121004 | 74 | 0 | 0.0 | 0.0 | 0.00 | 0.06 | 0.00 | 1 | 1014.1 |
| 20260905120904 | 74 | 0 | 0.0 | 0.0 | 0.00 | 0.06 | 0.00 | 1 | 1014.1 |
| 20260905120804 | 74 | 0 | 0.0 | 0.0 | 0.00 | 0.06 | 0.00 | 1 | 1014.0 |
| 20260905120704 | 74 | 0 | 0.0 | 0.0 | 0.00 | 0.06 | 0.00 | 1 | 1014.1 |
| 20260905120604 | 74 | 0 | 0.0 | 0.0 | 0.00 | 0.06 | 0.00 | 1 | 1014.1 |
| 20260905120504 | 74 | 0 | 0.0 | 0.0 | 0.00 | 0.06 | 0.00 | 1 | 1014.1 |
| 20260905120404 | 74 | 0 | 0.0 | 0.0 | 0.00 | 0.06 | 0.00 | 1 | 1014.0 |
| 20260905120304 | 74 | 0 | 0.0 | 0.0 | 0.00 | 0.06 | 0.00 | 1 | 1014.0 |
| 20260905120204 | 74 | 0 | 0.0 | 0.0 | 0.00 | 0.06 | 0.00 | 1 | 1014.0 |
| 20260905120104 | 74 | 0 | 0.0 | 0.0 | 0.00 | 0.06 | 0.00 | 1 | 1014.1 |
| 20260905120004 | 74 | 0 | 0.0 | 0.0 | 0.00 | 0.06 | 0.00 | 1 | 1014.1 |
| 20260905115904 | 74 | 0 | 0.0 | 0.0 | 0.00 | 0.06 | 0.00 | 1 | 1014.0 |
| 20260905115825 | 74 | 0 | 0.0 | 0.0 | 0.00 | 0.06 | 0.00 | 1 | 1014.1 |
| 20260905115704 | 74 | 0 | 0.0 | 0.0 | 0.00 | 0.06 | 0.00 | 1 | 1014.0 |
| 20260905115604 | 74 | 0 | 0.0 | 0.0 | 0.00 | 0.06 | 0.00 | 1 | 1014.0 |
| 20260905115525 | 74 | 0 | 0.0 | 0.0 | 0.00 | 0.06 | 0.00 | 1 | 1014.0 |
| 20260905115425 | 74 | 0 | 0.0 | 0.0 | 0.00 | 0.06 | 0.00 | 1 | 1014.0 |
| 20260905115306 | 74 | 0 | 0.0 | 0.0 | 0.00 | 0.06 | 0.00 | 1 | 1013.9 |
| 20260905115204 | 74 | 0 | 0.0 | 0.0 | 0.00 | 0.06 | 0.00 | 1 | 1013.9 |
| 20260905115104 | 74 | 0 | 0.0 | 0.0 | 0.00 | 0.06 | 0.00 | 1 | 1013.9 |
| 20260905115004 | 74 | 0 | 0.0 | 0.0 | 0.00 | 0.06 | 0.00 | 1 | 1013.9 |
| 20260905114904 | 74 | 0 | 0.0 | 0.0 | 0.00 | 0.06 | 0.00 | 1 | 1013.9 |
| 20260905114804 | 74 | 0 | 0.0 | 0.0 | 0.00 | 0.06 | 0.00 | 1 | 1013.8 |
| 20260905114704 | 74 | 0 | 0.0 | 0.0 | 0.00 | 0.06 | 0.00 | 1 | 1013.9 |
| 20260905114604 | 74 | 0 | 0.0 | 0.0 | 0.00 | 0.06 | 0.00 | 1 | 1013.9 |
| 20260905114504 | 74 | 0 | 0.0 | 0.0 | 0.00 | 0.06 | 0.00 | 1 | 1013.8 |
| 20260905114404 | 74 | 0 | 0.0 | 0.0 | 0.00 | 0.06 | 0.00 | 1 | 1013.9 |
| 20260905114304 | 74 | 0 | 0.0 | 0.0 | 0.00 | 0.06 | 0.00 | 1 | 1013.9 |
| 20260905114225 | 74 | 0 | 0.0 | 0.0 | 0.00 | 0.06 | 0.00 | 1 | 1013.8 |
| 20260905114104 | 74 | 0 | 0.0 | 0.0 | 0.00 | 0.06 | 0.00 | 1 | 1013.8 |
| 20260905114004 | 74 | 0 | 0.0 | 0.0 | 0.00 | 0.06 | 0.00 | 1 | 1013.8 |
| 20260905113904 | 74 | 0 | 0.0 | 0.0 | 0.00 | 0.06 | 0.00 | 1 | 1013.8 |
| 20260905113804 | 74 | 0 | 0.0 | 0.0 | 0.00 | 0.06 | 0.00 | 1 | 1013.8 |
| 20260905113704 | 74 | 0 | 0.0 | 0.0 | 0.00 | 0.06 | 0.00 | 1 | 1013.8 |
| 20260905113604 | 74 | 0 | 0.0 | 0.0 | 0.00 | 0.06 | 0.00 | 1 | 1013.8 |
| 20260905113504 | 74 | 0 | 0.0 | 0.0 | 0.00 | 0.06 | 0.00 | 1 | 1013.8 |
| 20260905113404 | 74 | 0 | 0.0 | 0.0 | 0.00 | 0.06 | 0.00 | 1 | 1013.8 |
| 20260905113304 | 74 | 0 | 0.0 | 0.0 | 0.00 | 0.06 | 0.00 | 1 | 1013.8 |
| 20260905113225 | 74 | 0 | 0.0 | 0.0 | 0.00 | 0.06 | 0.00 | 1 | 1013.8 |
| 20260905113104 | 74 | 0 | 0.0 | 0.0 | 0.00 | 0.06 | 0.00 | 1 | 1013.8 |
| 20260905113025 | 74 | 0 | 0.0 | 0.0 | 0.00 | 0.06 | 0.00 | 1 | 1013.8 |
| 20260905112925 | 74 | 0 | 0.0 | 0.0 | 0.00 | 0.06 | 0.00 | 1 | 1013.8 |
| 20260905112804 | 75 | 0 | 0.0 | 0.0 | 0.00 | 0.06 | 0.00 | 1 | 1013.8 |
| 20260905112704 | 75 | 0 | 0.0 | 0.0 | 0.00 | 0.06 | 0.00 | 1 | 1013.8 |
| 20260905112604 | 75 | 0 | 0.0 | 0.0 | 0.00 | 0.06 | 0.00 | 1 | 1013.8 |
| 20260905112504 | 75 | 0 | 0.0 | 0.0 | 0.00 | 0.06 | 0.00 | 1 | 1013.8 |
| 20260905112404 | 75 | 0 | 0.0 | 0.0 | 0.00 | 0.06 | 0.00 | 1 | 1013.8 |
| 20260905112325 | 75 | 0 | 0.0 | 0.0 | 0.00 | 0.06 | 0.00 | 1 | 1013.8 |
| 20260905112205 | 75 | 0 | 0.0 | 0.0 | 0.00 | 0.06 | 0.00 | 1 | 1013.8 |
| 20260905112104 | 75 | 0 | 0.0 | 0.0 | 0.00 | 0.06 | 0.00 | 1 | 1013.8 |
| 20260905112006 | 75 | 0 | 0.0 | 0.0 | 0.00 | 0.06 | 0.00 | 1 | 1013.8 |
| 20260905111906 | 75 | 0 | 0.0 | 0.0 | 0.00 | 0.06 | 0.00 | 1 | 1013.8 |
| 20260905111804 | 75 | 0 | 0.0 | 0.0 | 0.00 | 0.06 | 0.00 | 1 | 1013.8 |
| 20260905111725 | 75 | 0 | 0.0 | 0.0 | 0.00 | 0.06 | 0.00 | 1 | 1013.7 |
| 20260905111604 | 75 | 0 | 0.0 | 0.0 | 0.00 | 0.06 | 0.00 | 1 | 1013.8 |
| 20260905111504 | 75 | 0 | 0.0 | 0.0 | 0.00 | 0.06 | 0.00 | 1 | 1013.7 |
| 20260905111404 | 75 | 0 | 0.0 | 0.0 | 0.00 | 0.06 | 0.00 | 1 | 1013.7 |
| 20260905111304 | 75 | 0 | 0.0 | 0.0 | 0.00 | 0.06 | 0.00 | 1 | 1013.7 |
| 20260905111204 | 75 | 0 | 0.0 | 0.0 | 0.00 | 0.06 | 0.00 | 1 | 1013.8 |
| 20260905111104 | 75 | 0 | 0.0 | 0.0 | 0.00 | 0.06 | 0.00 | 1 | 1013.8 |
| 20260905111004 | 75 | 51 | 0.0 | 1.0 | 0.00 | 0.06 | 0.00 | 1 | 1013.7 |
| 20260905110904 | 75 | 51 | 0.0 | 1.0 | 0.00 | 0.06 | 0.00 | 1 | 1013.8 |
| 20260905110804 | 75 | 51 | 0.0 | 1.0 | 0.00 | 0.06 | 0.00 | 1 | 1013.8 |
| 20260905110725 | 75 | 51 | 0.0 | 1.0 | 0.00 | 0.06 | 0.00 | 1 | 1013.8 |
| 20260905110625 | 75 | 51 | 0.0 | 1.0 | 0.00 | 0.06 | 0.00 | 1 | 1013.7 |
| 20260905110525 | 75 | 51 | 0.0 | 1.0 | 0.00 | 0.06 | 0.00 | 1 | 1013.8 |
| 20260905110404 | 75 | 51 | 0.0 | 1.0 | 0.00 | 0.06 | 0.00 | 1 | 1013.7 |
| 20260905110304 | 75 | 51 | 0.0 | 1.0 | 0.00 | 0.06 | 0.00 | 1 | 1013.7 |
| 20260905110204 | 75 | 51 | 0.0 | 1.0 | 0.00 | 0.06 | 0.00 | 1 | 1013.8 |
| 20260905110104 | 75 | 51 | 0.0 | 1.0 | 0.00 | 0.06 | 0.00 | 1 | 1013.8 |
| 20260905110004 | 75 | 51 | 0.0 | 1.0 | 0.00 | 0.06 | 0.00 | 1 | 1013.7 |
| 20260905105904 | 75 | 51 | 0.0 | 1.0 | 0.00 | 0.06 | 0.00 | 1 | 1013.8 |
| 20260905105804 | 75 | 51 | 0.0 | 1.0 | 0.00 | 0.06 | 0.00 | 1 | 1013.7 |
| 20260905105704 | 75 | 51 | 0.0 | 1.0 | 0.00 | 0.06 | 0.00 | 1 | 1013.8 |
| 20260905105604 | 75 | 51 | 0.0 | 1.0 | 0.00 | 0.06 | 0.00 | 1 | 1013.7 |
| 20260905105525 | 75 | 51 | 0.0 | 1.0 | 0.00 | 0.06 | 0.00 | 1 | 1013.7 |
| 20260905105404 | 75 | 51 | 0.0 | 1.0 | 0.00 | 0.06 | 0.00 | 1 | 1013.7 |
| 20260905105306 | 75 | 0 | 0.0 | 1.0 | 0.00 | 0.06 | 0.00 | 1 | 1013.6 |
| 20260905105204 | 75 | 0 | 0.0 | 1.0 | 0.00 | 0.06 | 0.00 | 1 | 1013.7 |
| 20260905105104 | 75 | 0 | 0.0 | 1.0 | 0.00 | 0.06 | 0.00 | 1 | 1013.7 |
| 20260905105004 | 75 | 0 | 0.0 | 1.0 | 0.00 | 0.06 | 0.00 | 1 | 1013.7 |
| 20260905104925 | 75 | 0 | 0.0 | 1.0 | 0.00 | 0.06 | 0.00 | 1 | 1013.7 |
| 20260905104804 | 75 | 0 | 0.0 | 0.0 | 0.00 | 0.06 | 0.00 | 1 | 1013.6 |
| 20260905104704 | 75 | 0 | 0.0 | 0.0 | 0.00 | 0.06 | 0.00 | 1 | 1013.7 |
| 20260905104604 | 75 | 0 | 0.0 | 0.0 | 0.00 | 0.06 | 0.00 | 1 | 1013.7 |
| 20260905104504 | 75 | 0 | 0.0 | 0.0 | 0.00 | 0.06 | 0.00 | 1 | 1013.6 |
| 20260905104404 | 75 | 51 | 0.0 | 1.0 | 0.00 | 0.06 | 0.00 | 1 | 1013.7 |
| 20260905104304 | 75 | 51 | 0.0 | 1.0 | 0.00 | 0.06 | 0.00 | 1 | 1013.6 |
| 20260905104227 | 75 | 51 | 0.0 | 1.0 | 0.00 | 0.06 | 0.00 | 1 | 1013.6 |
| 20260905104104 | 75 | 51 | 0.0 | 1.0 | 0.00 | 0.06 | 0.00 | 1 | 1013.6 |
| 20260905104004 | 75 | 51 | 0.0 | 1.0 | 0.00 | 0.06 | 0.00 | 1 | 1013.6 |
| 20260905103904 | 75 | 51 | 0.0 | 1.0 | 0.00 | 0.06 | 0.00 | 1 | 1013.6 |
| 20260905103804 | 75 | 51 | 0.0 | 1.0 | 0.00 | 0.06 | 0.00 | 1 | 1013.6 |
| 20260905103725 | 75 | 51 | 0.0 | 1.0 | 0.00 | 0.06 | 0.00 | 1 | 1013.7 |
| 20260905103625 | 75 | 51 | 0.0 | 1.0 | 0.00 | 0.06 | 0.00 | 1 | 1013.6 |
| 20260905103504 | 75 | 51 | 0.0 | 1.0 | 0.00 | 0.06 | 0.00 | 1 | 1013.7 |
| 20260905103404 | 75 | 51 | 0.0 | 1.0 | 0.00 | 0.06 | 0.00 | 1 | 1013.6 |
| 20260905103304 | 75 | 51 | 0.0 | 1.0 | 0.00 | 0.06 | 0.00 | 1 | 1013.6 |
| 20260905103204 | 75 | 51 | 0.0 | 1.0 | 0.00 | 0.06 | 0.00 | 1 | 1013.6 |
| 20260905103104 | 75 | 51 | 0.0 | 1.0 | 0.00 | 0.06 | 0.00 | 1 | 1013.6 |
| 20260905103004 | 75 | 51 | 0.0 | 1.0 | 0.00 | 0.06 | 0.00 | 1 | 1013.7 |
| 20260905102904 | 75 | 51 | 0.0 | 1.0 | 0.00 | 0.06 | 0.00 | 1 | 1013.6 |
| 20260905102804 | 75 | 51 | 0.0 | 1.0 | 0.00 | 0.06 | 0.00 | 1 | 1013.7 |
| 20260905102704 | 74 | 51 | 0.0 | 1.0 | 0.00 | 0.06 | 0.00 | 1 | 1013.6 |
| 20260905102604 | 74 | 0 | 0.0 | 0.0 | 0.00 | 0.06 | 0.00 | 1 | 1013.6 |
| 20260905102504 | 74 | 0 | 0.0 | 0.0 | 0.00 | 0.06 | 0.00 | 1 | 1013.6 |
| 20260905102425 | 74 | 0 | 0.0 | 0.0 | 0.00 | 0.06 | 0.00 | 1 | 1013.6 |
| 20260905102306 | 74 | 0 | 0.0 | 1.0 | 0.00 | 0.06 | 0.00 | 1 | 1013.6 |
| 20260905102204 | 75 | 0 | 0.0 | 1.0 | 0.00 | 0.06 | 0.00 | 1 | 1013.7 |
| 20260905102104 | 75 | 0 | 0.0 | 1.0 | 0.00 | 0.06 | 0.00 | 1 | 1013.6 |
| 20260905102025 | 75 | 0 | 0.0 | 1.0 | 0.00 | 0.06 | 0.00 | 1 | 1013.6 |
| 20260905101925 | 75 | 0 | 0.0 | 1.0 | 0.00 | 0.06 | 0.00 | 1 | 1013.6 |
| 20260905101804 | 75 | 0 | 0.0 | 1.0 | 0.00 | 0.06 | 0.00 | 1 | 1013.6 |
| 20260905101704 | 75 | 0 | 0.0 | 1.0 | 0.00 | 0.06 | 0.00 | 1 | 1013.6 |
| 20260905101604 | 75 | 0 | 0.0 | 1.0 | 0.00 | 0.06 | 0.00 | 1 | 1013.6 |
| 20260905101504 | 75 | 0 | 0.0 | 1.0 | 0.00 | 0.06 | 0.00 | 1 | 1013.6 |
| 20260905101404 | 75 | 0 | 0.0 | 1.0 | 0.00 | 0.06 | 0.00 | 1 | 1013.6 |
| 20260905101304 | 75 | 0 | 0.0 | 0.0 | 0.00 | 0.06 | 0.00 | 1 | 1013.6 |
| 20260905101204 | 75 | 0 | 0.0 | 0.0 | 0.00 | 0.06 | 0.00 | 1 | 1013.6 |
| 20260905101104 | 75 | 0 | 0.0 | 0.0 | 0.00 | 0.06 | 0.00 | 1 | 1013.6 |
| 20260905101004 | 75 | 0 | 0.0 | 0.0 | 0.00 | 0.06 | 0.00 | 1 | 1013.6 |
| 20260905100925 | 75 | 0 | 0.0 | 0.0 | 0.00 | 0.06 | 0.00 | 1 | 1013.6 |
| 20260905100825 | 75 | 0 | 0.0 | 0.0 | 0.00 | 0.06 | 0.00 | 1 | 1013.6 |
| 20260905100725 | 75 | 0 | 0.0 | 0.0 | 0.00 | 0.06 | 0.00 | 1 | 1013.6 |
| 20260905100625 | 75 | 0 | 0.0 | 0.0 | 0.00 | 0.06 | 0.00 | 1 | 1013.6 |
| 20260905100504 | 75 | 0 | 0.0 | 0.0 | 0.00 | 0.06 | 0.00 | 1 | 1013.6 |
| 20260905100404 | 75 | 51 | 0.0 | 1.0 | 0.00 | 0.06 | 0.00 | 1 | 1013.6 |
| 20260905100304 | 75 | 51 | 0.0 | 1.0 | 0.00 | 0.06 | 0.00 | 1 | 1013.6 |
| 20260905100204 | 75 | 51 | 0.0 | 1.0 | 0.00 | 0.06 | 0.00 | 1 | 1013.5 |
| 20260905100104 | 75 | 51 | 0.0 | 1.0 | 0.00 | 0.06 | 0.00 | 1 | 1013.6 |
| 20260905100004 | 75 | 51 | 0.0 | 1.0 | 0.00 | 0.06 | 0.00 | 1 | 1013.6 |
| 20260905095904 | 75 | 51 | 0.0 | 1.0 | 0.00 | 0.06 | 0.00 | 1 | 1013.6 |
| 20260905095804 | 75 | 51 | 0.0 | 1.0 | 0.00 | 0.06 | 0.00 | 1 | 1013.6 |
| 20260905095704 | 75 | 51 | 0.0 | 1.0 | 0.00 | 0.06 | 0.00 | 1 | 1013.6 |
| 20260905095604 | 75 | 51 | 1.0 | 1.0 | 0.00 | 0.06 | 0.00 | 1 | 1013.6 |
| 20260905095504 | 75 | 51 | 1.0 | 1.0 | 0.00 | 0.06 | 0.00 | 1 | 1013.6 |
| 20260905095404 | 75 | 51 | 1.0 | 1.0 | 0.00 | 0.06 | 0.00 | 1 | 1013.6 |
| 20260905095306 | 75 | 51 | 1.0 | 1.0 | 0.00 | 0.06 | 0.00 | 1 | 1013.7 |
| 20260905095225 | 75 | 51 | 0.0 | 1.0 | 0.00 | 0.06 | 0.00 | 1 | 1013.6 |
| 20260905095125 | 75 | 51 | 0.0 | 1.0 | 0.00 | 0.06 | 0.00 | 1 | 1013.6 |
| 20260905095004 | 75 | 51 | 0.0 | 1.0 | 0.00 | 0.06 | 0.00 | 1 | 1013.6 |
| 20260905094904 | 75 | 51 | 0.0 | 1.0 | 0.00 | 0.06 | 0.00 | 1 | 1013.5 |
| 20260905094804 | 75 | 51 | 0.0 | 1.0 | 0.00 | 0.06 | 0.00 | 1 | 1013.5 |
| 20260905094725 | 75 | 51 | 0.0 | 1.0 | 0.00 | 0.06 | 0.00 | 1 | 1013.6 |
| 20260905094604 | 76 | 51 | 0.0 | 1.0 | 0.00 | 0.06 | 0.00 | 1 | 1013.5 |
| 20260905094504 | 76 | 0 | 0.0 | 0.0 | 0.00 | 0.06 | 0.00 | 1 | 1013.5 |
| 20260905094404 | 76 | 0 | 0.0 | 1.0 | 0.00 | 0.06 | 0.00 | 1 | 1013.5 |
| 20260905094304 | 76 | 0 | 0.0 | 1.0 | 0.00 | 0.06 | 0.00 | 1 | 1013.5 |
| 20260905094204 | 76 | 0 | 0.0 | 1.0 | 0.00 | 0.06 | 0.00 | 1 | 1013.4 |
| 20260905094104 | 76 | 0 | 0.0 | 1.0 | 0.00 | 0.06 | 0.00 | 1 | 1013.4 |
| 20260905094004 | 76 | 0 | 0.0 | 1.0 | 0.00 | 0.06 | 0.00 | 1 | 1013.5 |
| 20260905093904 | 76 | 0 | 0.0 | 1.0 | 0.00 | 0.06 | 0.00 | 1 | 1013.4 |
| 20260905093825 | 76 | 0 | 0.0 | 1.0 | 0.00 | 0.06 | 0.00 | 1 | 1013.4 |
| 20260905093704 | 76 | 0 | 0.0 | 1.0 | 0.00 | 0.06 | 0.00 | 1 | 1013.4 |
| 20260905093604 | 76 | 0 | 0.0 | 1.0 | 0.00 | 0.06 | 0.00 | 1 | 1013.4 |
| 20260905093504 | 76 | 0 | 0.0 | 1.0 | 0.00 | 0.06 | 0.00 | 1 | 1013.4 |
| 20260905093404 | 76 | 51 | 0.0 | 1.0 | 0.00 | 0.06 | 0.00 | 1 | 1013.3 |
| 20260905093304 | 76 | 51 | 0.0 | 1.0 | 0.00 | 0.06 | 0.00 | 1 | 1013.4 |
| 20260905093204 | 76 | 51 | 0.0 | 1.0 | 0.00 | 0.06 | 0.00 | 1 | 1013.4 |
| 20260905093104 | 76 | 51 | 0.0 | 1.0 | 0.00 | 0.06 | 0.00 | 1 | 1013.4 |
| 20260905093004 | 76 | 51 | 0.0 | 1.0 | 0.00 | 0.06 | 0.00 | 1 | 1013.3 |
| 20260905092904 | 76 | 51 | 0.0 | 1.0 | 0.00 | 0.06 | 0.00 | 1 | 1013.4 |
| 20260905092804 | 76 | 51 | 0.0 | 1.0 | 0.00 | 0.06 | 0.00 | 1 | 1013.4 |
| 20260905092704 | 76 | 51 | 0.0 | 1.0 | 0.00 | 0.06 | 0.00 | 1 | 1013.4 |
| 20260905092604 | 76 | 51 | 0.0 | 1.0 | 0.00 | 0.06 | 0.00 | 1 | 1013.4 |
| 20260905092504 | 76 | 51 | 0.0 | 1.0 | 0.00 | 0.06 | 0.00 | 1 | 1013.4 |
| 20260905092404 | 76 | 51 | 0.0 | 1.0 | 0.00 | 0.06 | 0.00 | 1 | 1013.5 |
| 20260905092306 | 76 | 51 | 0.0 | 1.0 | 0.00 | 0.06 | 0.00 | 1 | 1013.4 |
| 20260905092204 | 76 | 51 | 0.0 | 1.0 | 0.00 | 0.06 | 0.00 | 1 | 1013.4 |
| 20260905092104 | 76 | 51 | 0.0 | 1.0 | 0.00 | 0.06 | 0.00 | 1 | 1013.5 |
| 20260905092004 | 76 | 51 | 0.0 | 1.0 | 0.00 | 0.06 | 0.00 | 1 | 1013.5 |
| 20260905091904 | 76 | 51 | 0.0 | 1.0 | 0.00 | 0.06 | 0.00 | 1 | 1013.5 |
| 20260905091804 | 77 | 51 | 0.0 | 1.0 | 0.00 | 0.06 | 0.00 | 1 | 1013.5 |
| 20260905091704 | 77 | 51 | 0.0 | 1.0 | 0.00 | 0.06 | 0.00 | 1 | 1013.6 |
| 20260905091604 | 77 | 51 | 0.0 | 1.0 | 0.00 | 0.06 | 0.00 | 1 | 1013.6 |
| 20260905091525 | 77 | 51 | 0.0 | 1.0 | 0.00 | 0.06 | 0.00 | 1 | 1013.6 |
| 20260905091425 | 77 | 51 | 0.0 | 1.0 | 0.00 | 0.06 | 0.00 | 1 | 1013.7 |
| 20260905091325 | 77 | 51 | 0.0 | 1.0 | 0.00 | 0.06 | 0.00 | 1 | 1013.6 |
| 20260905091204 | 77 | 51 | 0.0 | 1.0 | 0.00 | 0.06 | 0.00 | 1 | 1013.6 |
| 20260905091104 | 77 | 51 | 0.0 | 1.0 | 0.00 | 0.06 | 0.00 | 1 | 1013.6 |
| 20260905091004 | 77 | 51 | 0.0 | 1.0 | 0.00 | 0.06 | 0.00 | 1 | 1013.7 |
| 20260905090904 | 77 | 51 | 0.0 | 1.0 | 0.00 | 0.06 | 0.00 | 1 | 1013.7 |
| 20260905090804 | 77 | 51 | 0.0 | 1.0 | 0.00 | 0.06 | 0.00 | 1 | 1013.7 |
| 20260905090704 | 77 | 51 | 0.0 | 2.0 | 0.00 | 0.06 | 0.00 | 1 | 1013.6 |
| 20260905090604 | 77 | 51 | 0.0 | 2.0 | 0.00 | 0.06 | 0.00 | 1 | 1013.7 |
| 20260905090504 | 77 | 51 | 0.0 | 2.0 | 0.00 | 0.06 | 0.00 | 1 | 1013.7 |
| 20260905090404 | 77 | 51 | 1.0 | 2.0 | 0.00 | 0.06 | 0.00 | 1 | 1013.6 |
| 20260905090304 | 77 | 51 | 1.0 | 2.0 | 0.00 | 0.06 | 0.00 | 1 | 1013.7 |
| 20260905090206 | 77 | 51 | 1.0 | 2.0 | 0.00 | 0.06 | 0.00 | 1 | 1013.7 |
| 20260905090104 | 77 | 51 | 1.0 | 2.0 | 0.00 | 0.06 | 0.00 | 1 | 1013.7 |
| 20260905090004 | 77 | 51 | 1.0 | 2.0 | 0.00 | 0.06 | 0.00 | 1 | 1013.7 |
| 20260905085904 | 77 | 51 | 1.0 | 2.0 | 0.00 | 0.06 | 0.00 | 1 | 1013.8 |
| 20260905085804 | 77 | 51 | 1.0 | 2.0 | 0.00 | 0.06 | 0.00 | 1 | 1013.7 |
| 20260905085725 | 77 | 51 | 1.0 | 2.0 | 0.00 | 0.06 | 0.00 | 1 | 1013.7 |
| 20260905085604 | 77 | 51 | 1.0 | 2.0 | 0.00 | 0.06 | 0.00 | 1 | 1013.7 |
| 20260905085504 | 77 | 51 | 1.0 | 2.0 | 0.00 | 0.06 | 0.00 | 1 | 1013.7 |
| 20260905085404 | 77 | 51 | 1.0 | 2.0 | 0.00 | 0.06 | 0.00 | 1 | 1013.7 |
| 20260905085325 | 77 | 51 | 1.0 | 2.0 | 0.00 | 0.06 | 0.00 | 1 | 1013.7 |
| 20260905085204 | 77 | 51 | 1.0 | 2.0 | 0.00 | 0.06 | 0.00 | 1 | 1013.7 |
| 20260905085104 | 77 | 51 | 1.0 | 3.0 | 0.00 | 0.06 | 0.00 | 1 | 1013.6 |
| 20260905085004 | 77 | 51 | 1.0 | 3.0 | 0.00 | 0.06 | 0.00 | 1 | 1013.7 |
| 20260905084904 | 77 | 51 | 1.0 | 3.0 | 0.00 | 0.06 | 0.00 | 1 | 1013.7 |
| 20260905084804 | 77 | 51 | 1.0 | 3.0 | 0.00 | 0.06 | 0.00 | 1 | 1013.7 |
| 20260905084704 | 77 | 51 | 1.0 | 3.0 | 0.00 | 0.06 | 0.00 | 1 | 1013.8 |
| 20260905084604 | 77 | 51 | 1.0 | 3.0 | 0.00 | 0.06 | 0.00 | 1 | 1013.8 |
| 20260905084504 | 77 | 51 | 2.0 | 3.0 | 0.00 | 0.06 | 0.00 | 1 | 1013.8 |
| 20260905084404 | 77 | 51 | 2.0 | 3.0 | 0.00 | 0.06 | 0.00 | 1 | 1013.8 |
| 20260905084304 | 77 | 51 | 2.0 | 3.0 | 0.00 | 0.06 | 0.00 | 1 | 1013.8 |
| 20260905084204 | 77 | 51 | 2.0 | 4.0 | 0.00 | 0.06 | 0.00 | 1 | 1013.8 |
| 20260905084104 | 77 | 50 | 2.0 | 4.0 | 0.00 | 0.06 | 0.00 | 1 | 1013.8 |
| 20260905084025 | 77 | 50 | 2.0 | 4.0 | 0.00 | 0.06 | 0.00 | 1 | 1013.8 |
| 20260905083925 | 77 | 50 | 2.0 | 4.0 | 0.00 | 0.06 | 0.00 | 1 | 1013.8 |
| 20260905083804 | 77 | 50 | 2.0 | 4.0 | 0.00 | 0.06 | 0.00 | 1 | 1013.8 |
| 20260905083704 | 77 | 50 | 2.0 | 4.0 | 0.00 | 0.06 | 0.00 | 1 | 1013.8 |
| 20260905083604 | 77 | 50 | 2.0 | 5.0 | 0.00 | 0.06 | 0.00 | 1 | 1013.7 |
| 20260905083504 | 77 | 50 | 2.0 | 5.0 | 0.00 | 0.06 | 0.00 | 1 | 1013.7 |
| 20260905083425 | 77 | 49 | 2.0 | 5.0 | 0.00 | 0.06 | 0.00 | 1 | 1013.8 |
| 20260905083304 | 77 | 49 | 2.0 | 5.0 | 0.00 | 0.06 | 0.00 | 1 | 1013.7 |
| 20260905083204 | 77 | 49 | 2.0 | 5.0 | 0.00 | 0.06 | 0.00 | 1 | 1013.7 |
| 20260905083125 | 77 | 49 | 2.0 | 5.0 | 0.00 | 0.06 | 0.00 | 1 | 1013.7 |
| 20260905083004 | 77 | 49 | 2.0 | 5.0 | 0.00 | 0.06 | 0.00 | 1 | 1013.7 |
| 20260905082904 | 77 | 49 | 2.0 | 5.0 | 0.00 | 0.06 | 0.00 | 1 | 1013.7 |
| 20260905082804 | 77 | 49 | 2.0 | 5.0 | 0.00 | 0.06 | 0.00 | 1 | 1013.7 |
| 20260905082704 | 78 | 49 | 2.0 | 5.0 | 0.00 | 0.06 | 0.00 | 1 | 1013.7 |
| 20260905082604 | 78 | 49 | 3.0 | 6.0 | 0.00 | 0.06 | 0.00 | 1 | 1013.7 |
| 20260905082504 | 78 | 49 | 3.0 | 6.0 | 0.00 | 0.06 | 0.00 | 1 | 1013.7 |
| 20260905082404 | 78 | 49 | 3.0 | 6.0 | 0.00 | 0.06 | 0.00 | 1 | 1013.7 |
| 20260905082307 | 78 | 49 | 3.0 | 6.0 | 0.00 | 0.06 | 0.00 | 1 | 1013.7 |
| 20260905082225 | 78 | 49 | 3.0 | 6.0 | 0.00 | 0.06 | 0.00 | 1 | 1013.7 |
| 20260905082104 | 78 | 49 | 3.0 | 6.0 | 0.00 | 0.06 | 0.00 | 1 | 1013.7 |
| 20260905082004 | 78 | 49 | 3.0 | 6.0 | 0.00 | 0.06 | 0.00 | 1 | 1013.8 |
| 20260905081904 | 78 | 50 | 3.0 | 6.0 | 0.00 | 0.06 | 0.00 | 1 | 1013.8 |
| 20260905081804 | 78 | 50 | 3.0 | 6.0 | 0.00 | 0.06 | 0.00 | 1 | 1013.7 |
| 20260905081704 | 78 | 50 | 3.0 | 6.0 | 0.00 | 0.06 | 0.00 | 1 | 1013.8 |
| 20260905081604 | 78 | 51 | 3.0 | 6.0 | 0.00 | 0.06 | 0.00 | 1 | 1013.8 |
| 20260905081504 | 78 | 51 | 3.0 | 5.0 | 0.00 | 0.06 | 0.00 | 1 | 1013.7 |
| 20260905081425 | 78 | 52 | 3.0 | 5.0 | 0.00 | 0.06 | 0.00 | 1 | 1013.7 |
| 20260905081304 | 78 | 52 | 3.0 | 5.0 | 0.00 | 0.06 | 0.00 | 1 | 1013.8 |
| 20260905081204 | 78 | 52 | 3.0 | 5.0 | 0.00 | 0.06 | 0.00 | 1 | 1013.8 |
| 20260905081104 | 78 | 53 | 3.0 | 5.0 | 0.00 | 0.06 | 0.00 | 1 | 1013.8 |
| 20260905081004 | 78 | 53 | 2.0 | 5.0 | 0.00 | 0.06 | 0.00 | 1 | 1013.7 |
| 20260905080925 | 78 | 54 | 2.0 | 4.0 | 0.00 | 0.06 | 0.00 | 1 | 1013.7 |
| 20260905080804 | 78 | 52 | 3.0 | 6.0 | 0.00 | 0.06 | 0.00 | 1 | 1013.7 |
| 20260905080704 | 78 | 50 | 3.0 | 6.0 | 0.00 | 0.06 | 0.00 | 1 | 1013.8 |
| 20260905080604 | 78 | 49 | 3.0 | 6.0 | 0.00 | 0.06 | 0.00 | 1 | 1013.7 |
| 20260905080504 | 78 | 48 | 3.0 | 6.0 | 0.00 | 0.06 | 0.00 | 1 | 1013.8 |
| 20260905080404 | 78 | 46 | 2.0 | 6.0 | 0.00 | 0.06 | 0.00 | 1 | 1013.8 |
| 20260905080304 | 78 | 45 | 2.0 | 6.0 | 0.00 | 0.06 | 0.00 | 1 | 1013.7 |
| 20260905080225 | 78 | 44 | 2.0 | 6.0 | 0.00 | 0.06 | 0.00 | 1 | 1013.8 |
| 20260905080104 | 78 | 42 | 2.0 | 6.0 | 0.00 | 0.06 | 0.00 | 1 | 1013.8 |
| 20260905080004 | 78 | 41 | 2.0 | 6.0 | 0.00 | 0.06 | 0.00 | 1 | 1013.8 |
| 20260905075904 | 78 | 39 | 2.0 | 6.0 | 0.00 | 0.06 | 0.00 | 1 | 1013.8 |
| 20260905075825 | 78 | 38 | 2.0 | 5.0 | 0.00 | 0.06 | 0.00 | 1 | 1013.8 |
| 20260905075704 | 78 | 37 | 2.0 | 5.0 | 0.00 | 0.06 | 0.00 | 1 | 1013.8 |
| 20260905075604 | 78 | 36 | 1.0 | 4.0 | 0.00 | 0.06 | 0.00 | 1 | 1013.8 |
| 20260905075504 | 78 | 36 | 2.0 | 4.0 | 0.00 | 0.06 | 0.00 | 1 | 1013.8 |
| 20260905075404 | 78 | 36 | 2.0 | 4.0 | 0.00 | 0.06 | 0.00 | 1 | 1013.8 |
| 20260905075306 | 78 | 36 | 2.0 | 6.0 | 0.00 | 0.06 | 0.00 | 1 | 1013.8 |
| 20260905075204 | 78 | 36 | 2.0 | 6.0 | 0.00 | 0.06 | 0.00 | 1 | 1013.8 |
| 20260905075104 | 78 | 37 | 2.0 | 6.0 | 0.00 | 0.06 | 0.00 | 1 | 1013.8 |
| 20260905075004 | 78 | 37 | 2.0 | 6.0 | 0.00 | 0.06 | 0.00 | 1 | 1013.9 |
| 20260905074904 | 78 | 38 | 2.0 | 6.0 | 0.00 | 0.06 | 0.00 | 1 | 1013.9 |
| 20260905074804 | 78 | 38 | 2.0 | 6.0 | 0.00 | 0.06 | 0.00 | 1 | 1013.8 |
| 20260905074704 | 78 | 39 | 2.0 | 6.0 | 0.00 | 0.06 | 0.00 | 1 | 1013.9 |
| 20260905074604 | 78 | 39 | 2.0 | 6.0 | 0.00 | 0.06 | 0.00 | 1 | 1013.9 |
| 20260905074504 | 78 | 39 | 2.0 | 6.0 | 0.00 | 0.06 | 0.00 | 1 | 1013.9 |
| 20260905074404 | 78 | 40 | 2.0 | 6.0 | 0.00 | 0.06 | 0.00 | 1 | 1013.8 |
| 20260905074304 | 78 | 41 | 2.0 | 6.0 | 0.00 | 0.06 | 0.00 | 1 | 1013.9 |
| 20260905074204 | 78 | 41 | 2.0 | 5.0 | 0.00 | 0.06 | 0.00 | 1 | 1013.9 |
| 20260905074104 | 78 | 41 | 2.0 | 5.0 | 0.00 | 0.06 | 0.00 | 1 | 1013.9 |
| 20260905074004 | 78 | 41 | 2.0 | 5.0 | 0.00 | 0.06 | 0.00 | 1 | 1013.9 |
| 20260905073904 | 78 | 41 | 2.0 | 5.0 | 0.00 | 0.06 | 0.00 | 1 | 1013.8 |
| 20260905073804 | 78 | 41 | 2.0 | 5.0 | 0.00 | 0.06 | 0.00 | 1 | 1013.9 |
| 20260905073704 | 78 | 41 | 2.0 | 4.0 | 0.00 | 0.06 | 0.00 | 1 | 1013.9 |
| 20260905073604 | 79 | 41 | 2.0 | 4.0 | 0.00 | 0.06 | 0.00 | 1 | 1013.9 |
| 20260905073504 | 79 | 41 | 2.0 | 4.0 | 0.00 | 0.06 | 0.00 | 1 | 1013.9 |
| 20260905073404 | 79 | 41 | 2.0 | 4.0 | 0.00 | 0.06 | 0.00 | 1 | 1013.9 |
| 20260905073304 | 79 | 41 | 2.0 | 5.0 | 0.00 | 0.06 | 0.00 | 1 | 1014.0 |
| 20260905073204 | 79 | 40 | 2.0 | 5.0 | 0.00 | 0.06 | 0.00 | 1 | 1014.0 |
| 20260905073104 | 79 | 40 | 2.0 | 5.0 | 0.00 | 0.06 | 0.00 | 1 | 1014.0 |
| 20260905073004 | 79 | 39 | 2.0 | 5.0 | 0.00 | 0.06 | 0.00 | 1 | 1014.0 |
| 20260905072904 | 79 | 38 | 2.0 | 5.0 | 0.00 | 0.06 | 0.00 | 1 | 1014.0 |
| 20260905072804 | 79 | 38 | 2.0 | 5.0 | 0.00 | 0.06 | 0.00 | 1 | 1014.0 |
| 20260905072704 | 79 | 37 | 2.0 | 5.0 | 0.00 | 0.06 | 0.00 | 1 | 1014.0 |
| 20260905072604 | 79 | 37 | 2.0 | 5.0 | 0.00 | 0.06 | 0.00 | 1 | 1014.0 |
| 20260905072525 | 79 | 37 | 2.0 | 5.0 | 0.00 | 0.06 | 0.00 | 1 | 1013.9 |
| 20260905072404 | 79 | 36 | 2.0 | 5.0 | 0.00 | 0.06 | 0.00 | 1 | 1013.9 |
| 20260905072306 | 79 | 36 | 2.0 | 5.0 | 0.00 | 0.06 | 0.00 | 1 | 1013.9 |
| 20260905072227 | 79 | 36 | 2.0 | 5.0 | 0.00 | 0.06 | 0.00 | 1 | 1013.9 |
| 20260905072104 | 79 | 37 | 2.0 | 4.0 | 0.00 | 0.06 | 0.00 | 1 | 1013.9 |
| 20260905072004 | 79 | 37 | 2.0 | 4.0 | 0.00 | 0.06 | 0.00 | 1 | 1013.9 |
| 20260905071904 | 79 | 38 | 2.0 | 5.0 | 0.00 | 0.06 | 0.00 | 1 | 1013.9 |
| 20260905071804 | 79 | 38 | 2.0 | 5.0 | 0.00 | 0.06 | 0.00 | 1 | 1014.0 |
| 20260905071704 | 79 | 38 | 2.0 | 5.0 | 0.00 | 0.06 | 0.00 | 1 | 1014.0 |
| 20260905071604 | 79 | 38 | 2.0 | 5.0 | 0.00 | 0.06 | 0.00 | 1 | 1014.0 |
| 20260905071504 | 79 | 38 | 2.0 | 5.0 | 0.00 | 0.06 | 0.00 | 1 | 1014.0 |
| 20260905071404 | 79 | 38 | 2.0 | 5.0 | 0.00 | 0.06 | 0.00 | 1 | 1014.0 |
| 20260905071304 | 79 | 38 | 2.0 | 5.0 | 0.00 | 0.06 | 0.00 | 1 | 1014.0 |
| 20260905071204 | 79 | 39 | 2.0 | 5.0 | 0.00 | 0.06 | 0.00 | 1 | 1014.0 |
| 20260905071125 | 79 | 39 | 2.0 | 5.0 | 0.00 | 0.06 | 0.00 | 1 | 1014.0 |
| 20260905071028 | 79 | 39 | 2.0 | 5.0 | 0.00 | 0.06 | 0.00 | 1 | 1014.0 |
| 20260905070904 | 79 | 39 | 2.0 | 4.0 | 0.00 | 0.06 | 0.00 | 1 | 1014.0 |
| 20260905070804 | 79 | 39 | 2.0 | 4.0 | 0.00 | 0.06 | 0.00 | 1 | 1014.1 |
| 20260905070704 | 79 | 40 | 2.0 | 4.0 | 0.00 | 0.06 | 0.00 | 1 | 1014.1 |
| 20260905070604 | 79 | 40 | 2.0 | 4.0 | 0.00 | 0.06 | 0.00 | 1 | 1014.1 |
| 20260905070525 | 79 | 40 | 2.0 | 4.0 | 0.00 | 0.06 | 0.00 | 1 | 1014.1 |
| 20260905070425 | 79 | 41 | 2.0 | 4.0 | 0.00 | 0.06 | 0.00 | 1 | 1014.1 |
| 20260905070304 | 79 | 41 | 2.0 | 4.0 | 0.00 | 0.06 | 0.00 | 1 | 1014.1 |
| 20260905070204 | 79 | 42 | 1.0 | 4.0 | 0.00 | 0.06 | 0.00 | 1 | 1014.1 |
| 20260905070104 | 79 | 43 | 2.0 | 4.0 | 0.00 | 0.06 | 0.00 | 1 | 1014.1 |
| 20260905070004 | 79 | 42 | 2.0 | 4.0 | 0.00 | 0.06 | 0.00 | 1 | 1014.1 |
| 20260905065904 | 79 | 40 | 2.0 | 5.0 | 0.00 | 0.06 | 0.00 | 1 | 1014.1 |
| 20260905065825 | 79 | 39 | 2.0 | 5.0 | 0.00 | 0.06 | 0.00 | 1 | 1014.1 |
| 20260905065704 | 80 | 36 | 2.0 | 5.0 | 0.00 | 0.06 | 0.00 | 1 | 1014.1 |
| 20260905065604 | 80 | 35 | 2.0 | 6.0 | 0.00 | 0.06 | 0.00 | 1 | 1014.1 |
| 20260905065504 | 80 | 35 | 2.0 | 6.0 | 0.00 | 0.06 | 0.00 | 1 | 1014.2 |
| 20260905065425 | 80 | 33 | 3.0 | 6.0 | 0.00 | 0.06 | 0.00 | 1 | 1014.1 |
| 20260905065306 | 80 | 33 | 3.0 | 6.0 | 0.00 | 0.06 | 0.00 | 1 | 1014.1 |
| 20260905065204 | 80 | 33 | 3.0 | 6.0 | 0.00 | 0.06 | 0.00 | 1 | 1014.1 |
| 20260905065104 | 80 | 32 | 3.0 | 6.0 | 0.00 | 0.06 | 0.00 | 1 | 1014.1 |
| 20260905065025 | 80 | 32 | 2.0 | 6.0 | 0.00 | 0.06 | 0.00 | 1 | 1014.1 |
| 20260905064904 | 80 | 34 | 2.0 | 6.0 | 0.00 | 0.06 | 0.00 | 1 | 1014.1 |
| 20260905064825 | 80 | 36 | 2.0 | 6.0 | 0.00 | 0.06 | 0.00 | 1 | 1014.1 |
| 20260905064704 | 80 | 37 | 2.0 | 6.0 | 0.00 | 0.06 | 0.00 | 1 | 1014.1 |
| 20260905064604 | 80 | 38 | 2.0 | 6.0 | 0.00 | 0.06 | 0.00 | 1 | 1014.0 |
| 20260905064504 | 80 | 39 | 2.0 | 6.0 | 0.00 | 0.06 | 0.00 | 1 | 1014.0 |
| 20260905064404 | 80 | 43 | 2.0 | 5.0 | 0.00 | 0.06 | 0.00 | 1 | 1014.0 |
| 20260905064325 | 80 | 42 | 2.0 | 5.0 | 0.00 | 0.06 | 0.00 | 1 | 1014.0 |
| 20260905064204 | 80 | 42 | 2.0 | 5.0 | 0.00 | 0.06 | 0.00 | 1 | 1014.0 |
| 20260905064104 | 80 | 43 | 2.0 | 5.0 | 0.00 | 0.06 | 0.00 | 1 | 1014.0 |
| 20260905064004 | 80 | 43 | 2.0 | 5.0 | 0.00 | 0.06 | 0.00 | 1 | 1014.0 |
| 20260905063904 | 80 | 44 | 2.0 | 5.0 | 0.00 | 0.06 | 0.00 | 1 | 1014.0 |
| 20260905063804 | 80 | 44 | 2.0 | 6.0 | 0.00 | 0.06 | 0.00 | 1 | 1014.0 |
| 20260905063704 | 80 | 43 | 2.0 | 6.0 | 0.00 | 0.06 | 0.00 | 1 | 1014.1 |
| 20260905063604 | 80 | 43 | 2.0 | 6.0 | 0.00 | 0.06 | 0.00 | 1 | 1014.1 |
| 20260905063504 | 80 | 44 | 3.0 | 6.0 | 0.00 | 0.06 | 0.00 | 1 | 1014.1 |
| 20260905063404 | 80 | 44 | 3.0 | 6.0 | 0.00 | 0.06 | 0.00 | 1 | 1014.1 |
| 20260905063304 | 80 | 45 | 3.0 | 6.0 | 0.00 | 0.06 | 0.00 | 1 | 1014.1 |
| 20260905063204 | 80 | 44 | 3.0 | 6.0 | 0.00 | 0.06 | 0.00 | 1 | 1014.2 |
| 20260905063104 | 80 | 44 | 3.0 | 6.0 | 0.00 | 0.06 | 0.00 | 1 | 1014.1 |
| 20260905063004 | 80 | 43 | 3.0 | 6.0 | 0.00 | 0.06 | 0.00 | 1 | 1014.1 |
| 20260905062905 | 80 | 42 | 3.0 | 6.0 | 0.00 | 0.06 | 0.00 | 1 | 1014.1 |
| 20260905062804 | 80 | 42 | 3.0 | 6.0 | 0.00 | 0.06 | 0.00 | 1 | 1014.1 |
| 20260905062704 | 80 | 42 | 3.0 | 6.0 | 0.00 | 0.06 | 0.00 | 1 | 1014.1 |
| 20260905062625 | 80 | 42 | 3.0 | 6.0 | 0.00 | 0.06 | 0.00 | 1 | 1014.1 |
| 20260905062504 | 80 | 41 | 3.0 | 7.0 | 0.00 | 0.06 | 0.00 | 1 | 1014.1 |
| 20260905062404 | 80 | 40 | 3.0 | 7.0 | 0.00 | 0.06 | 0.00 | 1 | 1014.2 |
| 20260905062325 | 80 | 40 | 3.0 | 7.0 | 0.00 | 0.06 | 0.00 | 1 | 1014.1 |
| 20260905062204 | 80 | 40 | 3.0 | 7.0 | 0.00 | 0.06 | 0.00 | 1 | 1014.2 |
| 20260905062104 | 80 | 40 | 3.0 | 7.0 | 0.00 | 0.06 | 0.00 | 1 | 1014.2 |
| 20260905062004 | 80 | 40 | 3.0 | 7.0 | 0.00 | 0.06 | 0.00 | 1 | 1014.2 |
| 20260905061904 | 80 | 39 | 3.0 | 7.0 | 0.00 | 0.06 | 0.00 | 1 | 1014.2 |
| 20260905061804 | 80 | 38 | 3.0 | 7.0 | 0.00 | 0.06 | 0.00 | 1 | 1014.2 |
| 20260905061704 | 80 | 38 | 2.0 | 7.0 | 0.00 | 0.06 | 0.00 | 1 | 1014.2 |
| 20260905061604 | 80 | 37 | 2.0 | 7.0 | 0.00 | 0.06 | 0.00 | 1 | 1014.1 |
| 20260905061525 | 80 | 37 | 2.0 | 6.0 | 0.00 | 0.06 | 0.00 | 1 | 1014.2 |
| 20260905061425 | 80 | 36 | 2.0 | 5.0 | 0.00 | 0.06 | 0.00 | 1 | 1014.2 |
| 20260905061325 | 80 | 35 | 2.0 | 5.0 | 0.00 | 0.06 | 0.00 | 1 | 1014.2 |
| 20260905061204 | 80 | 34 | 2.0 | 5.0 | 0.00 | 0.06 | 0.00 | 1 | 1014.2 |
| 20260905061104 | 80 | 33 | 2.0 | 5.0 | 0.00 | 0.06 | 0.00 | 1 | 1014.2 |
| 20260905061004 | 80 | 32 | 2.0 | 5.0 | 0.00 | 0.06 | 0.00 | 1 | 1014.2 |
| 20260905060904 | 80 | 32 | 2.0 | 5.0 | 0.00 | 0.06 | 0.00 | 1 | 1014.3 |
| 20260905060804 | 80 | 31 | 2.0 | 6.0 | 0.00 | 0.06 | 0.00 | 1 | 1014.3 |
| 20260905060704 | 80 | 31 | 2.0 | 6.0 | 0.00 | 0.06 | 0.00 | 1 | 1014.3 |
| 20260905060604 | 80 | 30 | 2.0 | 6.0 | 0.00 | 0.06 | 0.00 | 1 | 1014.3 |
| 20260905060504 | 80 | 30 | 1.0 | 6.0 | 0.00 | 0.06 | 0.00 | 1 | 1014.3 |
| 20260905060404 | 80 | 29 | 2.0 | 6.0 | 0.00 | 0.06 | 0.00 | 1 | 1014.3 |
| 20260905060304 | 80 | 29 | 2.0 | 6.0 | 0.00 | 0.06 | 0.00 | 1 | 1014.3 |
| 20260905060225 | 81 | 29 | 2.0 | 6.0 | 0.00 | 0.06 | 0.00 | 1 | 1014.3 |
| 20260905060104 | 81 | 29 | 2.0 | 6.0 | 0.00 | 0.06 | 0.00 | 1 | 1014.3 |
| 20260905060004 | 81 | 29 | 2.0 | 6.0 | 0.00 | 0.06 | 0.00 | 1 | 1014.3 |
| 20260905055904 | 81 | 27 | 2.0 | 6.0 | 0.00 | 0.06 | 0.00 | 1 | 1014.3 |
| 20260905055804 | 81 | 23 | 2.0 | 5.0 | 0.00 | 0.06 | 0.00 | 1 | 1014.3 |
| 20260905055704 | 81 | 16 | 2.0 | 5.0 | 0.00 | 0.06 | 0.00 | 1 | 1014.3 |
| 20260905055604 | 81 | 13 | 2.0 | 5.0 | 0.00 | 0.06 | 0.00 | 1 | 1014.3 |
| 20260905055504 | 81 | 3 | 2.0 | 5.0 | 0.00 | 0.06 | 0.00 | 1 | 1014.3 |
| 20260905055404 | 81 | 354 | 2.0 | 5.0 | 0.00 | 0.06 | 0.00 | 1 | 1014.3 |
| 20260905055306 | 81 | 342 | 2.0 | 5.0 | 0.00 | 0.06 | 0.00 | 1 | 1014.3 |
| 20260905055204 | 81 | 331 | 2.0 | 5.0 | 0.00 | 0.06 | 0.00 | 1 | 1014.2 |
| 20260905055104 | 81 | 320 | 2.0 | 5.0 | 0.00 | 0.06 | 0.00 | 1 | 1014.3 |
| 20260905055025 | 81 | 314 | 2.0 | 5.0 | 0.00 | 0.06 | 0.00 | 1 | 1014.3 |
| 20260905054925 | 81 | 305 | 2.0 | 4.0 | 0.00 | 0.06 | 0.00 | 1 | 1014.3 |
| 20260905054804 | 81 | 304 | 2.0 | 4.0 | 0.00 | 0.06 | 0.00 | 1 | 1014.3 |
| 20260905054704 | 81 | 303 | 2.0 | 4.0 | 0.00 | 0.06 | 0.00 | 1 | 1014.3 |
| 20260905054604 | 81 | 303 | 2.0 | 4.0 | 0.00 | 0.06 | 0.00 | 1 | 1014.3 |
| 20260905054525 | 81 | 302 | 2.0 | 4.0 | 0.00 | 0.06 | 0.00 | 1 | 1014.3 |
| 20260905054404 | 81 | 302 | 2.0 | 4.0 | 0.00 | 0.06 | 0.00 | 1 | 1014.3 |
| 20260905054304 | 81 | 301 | 2.0 | 4.0 | 0.00 | 0.06 | 0.00 | 1 | 1014.3 |
| 20260905054225 | 81 | 301 | 2.0 | 3.0 | 0.00 | 0.06 | 0.00 | 1 | 1014.3 |
| 20260905054106 | 81 | 301 | 2.0 | 3.0 | 0.00 | 0.06 | 0.00 | 1 | 1014.3 |
| 20260905054004 | 81 | 301 | 1.0 | 4.0 | 0.00 | 0.06 | 0.00 | 1 | 1014.3 |
| 20260905053904 | 81 | 301 | 1.0 | 4.0 | 0.00 | 0.06 | 0.00 | 1 | 1014.2 |
| 20260905053804 | 81 | 301 | 1.0 | 4.0 | 0.00 | 0.06 | 0.00 | 1 | 1014.2 |
| 20260905053704 | 81 | 301 | 1.0 | 4.0 | 0.00 | 0.06 | 0.00 | 1 | 1014.3 |
| 20260905053604 | 81 | 300 | 1.0 | 4.0 | 0.00 | 0.06 | 0.00 | 1 | 1014.2 |
| 20260905053525 | 81 | 300 | 1.0 | 4.0 | 0.00 | 0.06 | 0.00 | 1 | 1014.3 |
| 20260905053404 | 81 | 300 | 1.0 | 4.0 | 0.00 | 0.06 | 0.00 | 1 | 1014.3 |
| 20260905053304 | 81 | 300 | 1.0 | 4.0 | 0.00 | 0.06 | 0.00 | 1 | 1014.3 |
| 20260905053204 | 81 | 300 | 1.0 | 4.0 | 0.00 | 0.06 | 0.00 | 1 | 1014.3 |
| 20260905053104 | 81 | 300 | 1.0 | 4.0 | 0.00 | 0.06 | 0.00 | 1 | 1014.3 |
| 20260905053004 | 81 | 299 | 1.0 | 4.0 | 0.00 | 0.06 | 0.00 | 1 | 1014.3 |
| 20260905052925 | 81 | 299 | 1.0 | 4.0 | 0.00 | 0.06 | 0.00 | 1 | 1014.3 |
| 20260905052827 | 81 | 299 | 1.0 | 4.0 | 0.00 | 0.06 | 0.00 | 1 | 1014.3 |
| 20260905052704 | 81 | 299 | 1.0 | 4.0 | 0.00 | 0.06 | 0.00 | 1 | 1014.3 |
| 20260905052604 | 81 | 299 | 1.0 | 4.0 | 0.00 | 0.06 | 0.00 | 1 | 1014.3 |
| 20260905052527 | 81 | 299 | 1.0 | 4.0 | 0.00 | 0.06 | 0.00 | 1 | 1014.3 |
| 20260905052404 | 81 | 298 | 2.0 | 4.0 | 0.00 | 0.06 | 0.00 | 1 | 1014.3 |
| 20260905052306 | 81 | 298 | 2.0 | 4.0 | 0.00 | 0.06 | 0.00 | 1 | 1014.4 |
| 20260905052204 | 81 | 298 | 2.0 | 4.0 | 0.00 | 0.06 | 0.00 | 1 | 1014.4 |
| 20260905052104 | 81 | 298 | 2.0 | 4.0 | 0.00 | 0.06 | 0.00 | 1 | 1014.4 |
| 20260905052004 | 81 | 298 | 2.0 | 4.0 | 0.00 | 0.06 | 0.00 | 1 | 1014.4 |
| 20260905051925 | 81 | 298 | 2.0 | 4.0 | 0.00 | 0.06 | 0.00 | 1 | 1014.4 |
| 20260905051804 | 81 | 298 | 2.0 | 4.0 | 0.00 | 0.06 | 0.00 | 1 | 1014.3 |
| 20260905051704 | 81 | 298 | 2.0 | 4.0 | 0.00 | 0.06 | 0.00 | 1 | 1014.4 |
| 20260905051625 | 81 | 298 | 2.0 | 4.0 | 0.00 | 0.06 | 0.00 | 1 | 1014.3 |
| 20260905051504 | 81 | 298 | 2.0 | 4.0 | 0.00 | 0.06 | 0.00 | 1 | 1014.3 |
| 20260905051406 | 81 | 298 | 2.0 | 4.0 | 0.00 | 0.06 | 0.00 | 1 | 1014.4 |
| 20260905051304 | 81 | 298 | 2.0 | 4.0 | 0.00 | 0.06 | 0.00 | 1 | 1014.3 |
| 20260905051225 | 81 | 298 | 2.0 | 4.0 | 0.00 | 0.06 | 0.00 | 1 | 1014.4 |
| 20260905051104 | 81 | 298 | 1.0 | 3.0 | 0.00 | 0.06 | 0.00 | 1 | 1014.4 |
| 20260905051004 | 81 | 298 | 1.0 | 3.0 | 0.00 | 0.06 | 0.00 | 1 | 1014.4 |
| 20260905050904 | 81 | 298 | 1.0 | 3.0 | 0.00 | 0.06 | 0.00 | 1 | 1014.4 |
| 20260905050804 | 81 | 298 | 1.0 | 3.0 | 0.00 | 0.06 | 0.00 | 1 | 1014.4 |
| 20260905050704 | 82 | 297 | 2.0 | 4.0 | 0.00 | 0.06 | 0.00 | 1 | 1014.4 |
| 20260905050604 | 82 | 297 | 2.0 | 4.0 | 0.00 | 0.06 | 0.00 | 1 | 1014.4 |
| 20260905050525 | 82 | 297 | 1.0 | 4.0 | 0.00 | 0.06 | 0.00 | 1 | 1014.4 |
| 20260905050404 | 82 | 297 | 1.0 | 4.0 | 0.00 | 0.06 | 0.00 | 1 | 1014.4 |
| 20260905050304 | 82 | 297 | 1.0 | 4.0 | 0.00 | 0.06 | 0.00 | 1 | 1014.4 |
| 20260905050204 | 82 | 298 | 2.0 | 4.0 | 0.00 | 0.06 | 0.00 | 1 | 1014.4 |
| 20260905050104 | 82 | 298 | 2.0 | 4.0 | 0.00 | 0.06 | 0.00 | 1 | 1014.4 |
| 20260905050004 | 82 | 299 | 2.0 | 4.0 | 0.00 | 0.06 | 0.00 | 1 | 1014.3 |
| 20260905045904 | 82 | 299 | 2.0 | 5.0 | 0.00 | 0.06 | 0.06 | 1 | 1014.4 |
| 20260905045804 | 82 | 299 | 2.0 | 5.0 | 0.00 | 0.06 | 0.06 | 1 | 1014.3 |
| 20260905045704 | 82 | 299 | 2.0 | 5.0 | 0.00 | 0.06 | 0.06 | 1 | 1014.3 |
| 20260905045604 | 82 | 298 | 2.0 | 5.0 | 0.00 | 0.06 | 0.06 | 1 | 1014.3 |
| 20260905045504 | 82 | 298 | 2.0 | 5.0 | 0.00 | 0.06 | 0.06 | 1 | 1014.3 |
| 20260905045404 | 82 | 298 | 2.0 | 5.0 | 0.00 | 0.06 | 0.06 | 1 | 1014.3 |
| 20260905045305 | 82 | 298 | 2.0 | 5.0 | 0.00 | 0.06 | 0.06 | 1 | 1014.3 |
| 20260905045225 | 82 | 298 | 2.0 | 5.0 | 0.00 | 0.06 | 0.06 | 1 | 1014.3 |
| 20260905045125 | 82 | 297 | 2.0 | 5.0 | 0.00 | 0.06 | 0.06 | 1 | 1014.3 |
| 20260905045004 | 82 | 297 | 2.0 | 5.0 | 0.00 | 0.06 | 0.06 | 1 | 1014.3 |
| 20260905044925 | 82 | 296 | 2.0 | 4.0 | 0.00 | 0.06 | 0.06 | 1 | 1014.3 |
| 20260905044804 | 82 | 296 | 2.0 | 4.0 | 0.00 | 0.06 | 0.06 | 1 | 1014.3 |
| 20260905044725 | 82 | 296 | 2.0 | 4.0 | 0.00 | 0.06 | 0.06 | 1 | 1014.3 |
| 20260905044604 | 82 | 296 | 2.0 | 4.0 | 0.00 | 0.06 | 0.06 | 1 | 1014.3 |
| 20260905044525 | 82 | 296 | 2.0 | 4.0 | 0.00 | 0.06 | 0.06 | 1 | 1014.3 |
| 20260905044404 | 82 | 296 | 2.0 | 4.0 | 0.00 | 0.06 | 0.06 | 1 | 1014.3 |
| 20260905044304 | 82 | 296 | 2.0 | 4.0 | 0.00 | 0.06 | 0.06 | 1 | 1014.3 |
| 20260905044204 | 82 | 296 | 2.0 | 4.0 | 0.00 | 0.06 | 0.06 | 1 | 1014.3 |
| 20260905044104 | 82 | 296 | 2.0 | 4.0 | 0.00 | 0.06 | 0.06 | 1 | 1014.3 |
| 20260905044004 | 82 | 296 | 2.0 | 5.0 | 0.00 | 0.06 | 0.06 | 1 | 1014.3 |
| 20260905043904 | 82 | 296 | 2.0 | 5.0 | 0.00 | 0.06 | 0.06 | 1 | 1014.4 |
| 20260905043804 | 82 | 295 | 2.0 | 5.0 | 0.00 | 0.06 | 0.06 | 1 | 1014.4 |
| 20260905043704 | 82 | 295 | 2.0 | 5.0 | 0.00 | 0.06 | 0.06 | 1 | 1014.4 |
| 20260905043604 | 82 | 295 | 2.0 | 5.0 | 0.00 | 0.06 | 0.06 | 1 | 1014.3 |
| 20260905043504 | 82 | 295 | 2.0 | 5.0 | 0.00 | 0.06 | 0.06 | 1 | 1014.4 |
| 20260905043404 | 82 | 295 | 2.0 | 5.0 | 0.00 | 0.06 | 0.06 | 1 | 1014.3 |
| 20260905043325 | 82 | 296 | 2.0 | 5.0 | 0.00 | 0.06 | 0.06 | 1 | 1014.3 |
| 20260905043204 | 82 | 296 | 2.0 | 5.0 | 0.00 | 0.06 | 0.06 | 1 | 1014.3 |
| 20260905043104 | 82 | 297 | 2.0 | 5.0 | 0.00 | 0.06 | 0.06 | 1 | 1014.3 |
| 20260905043004 | 82 | 297 | 2.0 | 5.0 | 0.00 | 0.06 | 0.06 | 1 | 1014.3 |
| 20260905042904 | 82 | 297 | 2.0 | 6.0 | 0.00 | 0.06 | 0.06 | 1 | 1014.3 |
| 20260905042804 | 82 | 297 | 2.0 | 6.0 | 0.00 | 0.06 | 0.06 | 1 | 1014.3 |
| 20260905042704 | 82 | 297 | 2.0 | 6.0 | 0.00 | 0.06 | 0.06 | 1 | 1014.3 |
| 20260905042625 | 82 | 297 | 2.0 | 6.0 | 0.00 | 0.06 | 0.06 | 1 | 1014.4 |
| 20260905042504 | 82 | 296 | 2.0 | 6.0 | 0.00 | 0.06 | 0.06 | 1 | 1014.4 |
| 20260905042404 | 82 | 296 | 2.0 | 6.0 | 0.00 | 0.06 | 0.06 | 1 | 1014.4 |
| 20260905042307 | 82 | 295 | 2.0 | 6.0 | 0.00 | 0.06 | 0.06 | 1 | 1014.3 |
| 20260905042225 | 82 | 295 | 1.0 | 6.0 | 0.00 | 0.06 | 0.06 | 1 | 1014.3 |
| 20260905042104 | 82 | 293 | 1.0 | 6.0 | 0.00 | 0.06 | 0.06 | 1 | 1014.3 |
| 20260905042004 | 82 | 292 | 1.0 | 6.0 | 0.00 | 0.06 | 0.06 | 1 | 1014.3 |
| 20260905041904 | 82 | 290 | 1.0 | 4.0 | 0.00 | 0.06 | 0.06 | 1 | 1014.4 |
| 20260905041804 | 82 | 290 | 1.0 | 4.0 | 0.00 | 0.06 | 0.06 | 1 | 1014.4 |
| 20260905041704 | 82 | 290 | 1.0 | 4.0 | 0.00 | 0.06 | 0.06 | 1 | 1014.4 |
| 20260905041604 | 82 | 290 | 1.0 | 4.0 | 0.00 | 0.06 | 0.06 | 1 | 1014.4 |
| 20260905041504 | 82 | 290 | 1.0 | 3.0 | 0.00 | 0.06 | 0.06 | 1 | 1014.4 |
| 20260905041404 | 82 | 290 | 1.0 | 3.0 | 0.00 | 0.06 | 0.06 | 1 | 1014.4 |
| 20260905041304 | 82 | 290 | 1.0 | 3.0 | 0.00 | 0.06 | 0.06 | 1 | 1014.4 |
| 20260905041225 | 82 | 290 | 1.0 | 3.0 | 0.00 | 0.06 | 0.06 | 1 | 1014.4 |
| 20260905041104 | 82 | 290 | 1.0 | 3.0 | 0.00 | 0.06 | 0.06 | 1 | 1014.4 |
| 20260905041004 | 82 | 290 | 1.0 | 2.0 | 0.00 | 0.06 | 0.06 | 1 | 1014.3 |
| 20260905040904 | 82 | 290 | 1.0 | 2.0 | 0.00 | 0.06 | 0.06 | 1 | 1014.3 |
| 20260905040804 | 82 | 290 | 1.0 | 3.0 | 0.00 | 0.06 | 0.06 | 1 | 1014.3 |
| 20260905040704 | 82 | 290 | 1.0 | 3.0 | 0.00 | 0.06 | 0.06 | 1 | 1014.3 |
| 20260905040604 | 82 | 290 | 1.0 | 3.0 | 0.00 | 0.06 | 0.06 | 1 | 1014.3 |
| 20260905040504 | 82 | 290 | 1.0 | 3.0 | 0.00 | 0.06 | 0.06 | 1 | 1014.2 |
| 20260905040404 | 82 | 290 | 1.0 | 3.0 | 0.00 | 0.06 | 0.06 | 1 | 1014.2 |
| 20260905040304 | 82 | 290 | 1.0 | 3.0 | 0.00 | 0.06 | 0.06 | 1 | 1014.2 |
| 20260905040204 | 82 | 290 | 1.0 | 3.0 | 0.00 | 0.06 | 0.06 | 1 | 1014.2 |
| 20260905040104 | 82 | 290 | 1.0 | 3.0 | 0.00 | 0.06 | 0.06 | 1 | 1014.2 |
| 20260905040004 | 82 | 290 | 1.0 | 3.0 | 0.00 | 0.06 | 0.06 | 1 | 1014.2 |
| 20260905035925 | 82 | 290 | 1.0 | 3.0 | 0.00 | 0.06 | 0.06 | 1 | 1014.2 |
| 20260905035825 | 82 | 290 | 1.0 | 2.0 | 0.00 | 0.06 | 0.06 | 1 | 1014.1 |
| 20260905035704 | 82 | 290 | 1.0 | 2.0 | 0.00 | 0.06 | 0.06 | 1 | 1014.2 |
| 20260905035604 | 82 | 290 | 1.0 | 2.0 | 0.00 | 0.06 | 0.06 | 1 | 1014.2 |
| 20260905035504 | 82 | 290 | 1.0 | 2.0 | 0.00 | 0.06 | 0.06 | 1 | 1014.2 |
| 20260905035404 | 82 | 290 | 1.0 | 2.0 | 0.00 | 0.06 | 0.06 | 1 | 1014.2 |
| 20260905035325 | 82 | 290 | 1.0 | 2.0 | 0.00 | 0.06 | 0.06 | 1 | 1014.2 |
| 20260905035204 | 82 | 290 | 1.0 | 2.0 | 0.00 | 0.06 | 0.06 | 1 | 1014.2 |
| 20260905035104 | 82 | 290 | 1.0 | 2.0 | 0.00 | 0.06 | 0.06 | 1 | 1014.2 |
| 20260905035025 | 82 | 290 | 1.0 | 2.0 | 0.00 | 0.06 | 0.06 | 1 | 1014.2 |
| 20260905034904 | 82 | 290 | 1.0 | 2.0 | 0.00 | 0.06 | 0.06 | 1 | 1014.3 |
| 20260905034804 | 82 | 290 | 1.0 | 2.0 | 0.00 | 0.06 | 0.06 | 1 | 1014.3 |
| 20260905034704 | 82 | 290 | 1.0 | 3.0 | 0.00 | 0.06 | 0.06 | 1 | 1014.3 |
| 20260905034625 | 82 | 290 | 1.0 | 3.0 | 0.00 | 0.06 | 0.06 | 1 | 1014.3 |
| 20260905034504 | 82 | 290 | 1.0 | 3.0 | 0.00 | 0.06 | 0.06 | 1 | 1014.3 |
| 20260905034404 | 82 | 291 | 1.0 | 3.0 | 0.00 | 0.06 | 0.06 | 1 | 1014.3 |
| 20260905034304 | 82 | 290 | 1.0 | 3.0 | 0.00 | 0.06 | 0.06 | 1 | 1014.3 |
| 20260905034204 | 82 | 290 | 1.0 | 3.0 | 0.00 | 0.06 | 0.06 | 1 | 1014.3 |
| 20260905034104 | 82 | 290 | 1.0 | 3.0 | 0.00 | 0.06 | 0.06 | 1 | 1014.2 |
| 20260905034004 | 82 | 290 | 1.0 | 3.0 | 0.00 | 0.06 | 0.06 | 1 | 1014.2 |
| 20260905033904 | 82 | 290 | 1.0 | 3.0 | 0.00 | 0.06 | 0.06 | 1 | 1014.3 |
| 20260905033804 | 82 | 290 | 1.0 | 3.0 | 0.00 | 0.06 | 0.06 | 1 | 1014.3 |
| 20260905033704 | 82 | 290 | 1.0 | 3.0 | 0.00 | 0.06 | 0.06 | 1 | 1014.3 |
| 20260905033604 | 82 | 290 | 1.0 | 3.0 | 0.00 | 0.06 | 0.06 | 1 | 1014.3 |
| 20260905033504 | 82 | 290 | 1.0 | 3.0 | 0.00 | 0.06 | 0.06 | 1 | 1014.3 |
| 20260905033425 | 82 | 290 | 0.0 | 3.0 | 0.00 | 0.06 | 0.06 | 1 | 1014.3 |
| 20260905033304 | 82 | 290 | 0.0 | 3.0 | 0.00 | 0.06 | 0.06 | 1 | 1014.3 |
| 20260905033204 | 82 | 290 | 0.0 | 3.0 | 0.00 | 0.06 | 0.06 | 1 | 1014.3 |
| 20260905033104 | 82 | 290 | 0.0 | 3.0 | 0.00 | 0.06 | 0.06 | 1 | 1014.3 |
| 20260905033025 | 82 | 290 | 0.0 | 2.0 | 0.00 | 0.06 | 0.06 | 1 | 1014.3 |
| 20260905032925 | 83 | 290 | 0.0 | 2.0 | 0.00 | 0.06 | 0.06 | 1 | 1014.2 |
| 20260905032804 | 83 | 290 | 0.0 | 1.0 | 0.00 | 0.06 | 0.06 | 1 | 1014.3 |
| 20260905032704 | 83 | 290 | 0.0 | 1.0 | 0.00 | 0.06 | 0.06 | 1 | 1014.2 |
| 20260905032604 | 83 | 290 | 0.0 | 3.0 | 0.00 | 0.06 | 0.06 | 1 | 1014.2 |
| 20260905032504 | 83 | 290 | 1.0 | 3.0 | 0.00 | 0.06 | 0.06 | 1 | 1014.1 |
| 20260905032425 | 83 | 290 | 1.0 | 3.0 | 0.00 | 0.06 | 0.06 | 1 | 1014.1 |
| 20260905032306 | 83 | 290 | 1.0 | 3.0 | 0.00 | 0.06 | 0.06 | 1 | 1014.1 |
| 20260905032204 | 83 | 290 | 1.0 | 3.0 | 0.00 | 0.06 | 0.06 | 1 | 1014.1 |
| 20260905032104 | 83 | 290 | 1.0 | 3.0 | 0.00 | 0.06 | 0.06 | 1 | 1014.1 |
| 20260905032004 | 83 | 290 | 1.0 | 4.0 | 0.00 | 0.06 | 0.06 | 1 | 1014.1 |
| 20260905031904 | 83 | 290 | 1.0 | 4.0 | 0.00 | 0.06 | 0.06 | 1 | 1014.1 |
| 20260905031804 | 83 | 290 | 1.0 | 4.0 | 0.00 | 0.06 | 0.06 | 1 | 1014.1 |
| 20260905031725 | 83 | 290 | 1.0 | 4.0 | 0.00 | 0.06 | 0.06 | 1 | 1014.1 |
| 20260905031604 | 83 | 290 | 1.0 | 4.0 | 0.00 | 0.06 | 0.06 | 1 | 1014.1 |
| 20260905031525 | 83 | 290 | 1.0 | 4.0 | 0.00 | 0.06 | 0.06 | 1 | 1014.1 |
| 20260905031404 | 83 | 290 | 1.0 | 4.0 | 0.00 | 0.06 | 0.06 | 1 | 1014.1 |
| 20260905031304 | 83 | 290 | 1.0 | 4.0 | 0.00 | 0.06 | 0.06 | 1 | 1014.1 |
| 20260905031225 | 83 | 290 | 1.0 | 4.0 | 0.00 | 0.06 | 0.06 | 1 | 1014.1 |
| 20260905031104 | 83 | 290 | 1.0 | 4.0 | 0.00 | 0.06 | 0.06 | 1 | 1014.1 |
| 20260905031025 | 83 | 290 | 1.0 | 4.0 | 0.00 | 0.06 | 0.06 | 1 | 1014.1 |
| 20260905030904 | 83 | 290 | 1.0 | 3.0 | 0.00 | 0.06 | 0.06 | 1 | 1014.1 |
| 20260905030804 | 83 | 290 | 1.0 | 3.0 | 0.00 | 0.06 | 0.06 | 1 | 1014.1 |
| 20260905030725 | 83 | 290 | 1.0 | 3.0 | 0.00 | 0.06 | 0.06 | 1 | 1014.1 |
| 20260905030604 | 83 | 290 | 1.0 | 3.0 | 0.00 | 0.06 | 0.06 | 1 | 1014.1 |
| 20260905030504 | 83 | 290 | 1.0 | 3.0 | 0.00 | 0.06 | 0.06 | 1 | 1014.1 |
| 20260905030404 | 83 | 290 | 1.0 | 2.0 | 0.00 | 0.06 | 0.06 | 1 | 1014.1 |
| 20260905030304 | 83 | 290 | 1.0 | 2.0 | 0.00 | 0.06 | 0.06 | 1 | 1014.1 |
| 20260905030204 | 83 | 290 | 1.0 | 2.0 | 0.00 | 0.06 | 0.06 | 1 | 1014.1 |
| 20260905030104 | 83 | 290 | 1.0 | 2.0 | 0.00 | 0.06 | 0.06 | 1 | 1014.1 |
| 20260905030004 | 83 | 290 | 0.0 | 2.0 | 0.00 | 0.06 | 0.06 | 1 | 1014.1 |
| 20260905025904 | 83 | 290 | 0.0 | 2.0 | 0.00 | 0.06 | 0.06 | 1 | 1014.1 |
| 20260905025804 | 83 | 290 | 0.0 | 2.0 | 0.00 | 0.06 | 0.06 | 1 | 1014.1 |
| 20260905025704 | 83 | 290 | 0.0 | 2.0 | 0.00 | 0.06 | 0.06 | 1 | 1014.1 |
| 20260905025604 | 83 | 290 | 0.0 | 2.0 | 0.00 | 0.06 | 0.06 | 1 | 1014.0 |
| 20260905025504 | 83 | 290 | 0.0 | 2.0 | 0.00 | 0.06 | 0.06 | 1 | 1014.0 |
| 20260905025404 | 83 | 290 | 0.0 | 2.0 | 0.00 | 0.06 | 0.06 | 1 | 1014.0 |
| 20260905025306 | 83 | 290 | 0.0 | 2.0 | 0.00 | 0.06 | 0.06 | 1 | 1014.0 |
| 20260905025204 | 83 | 290 | 0.0 | 2.0 | 0.00 | 0.06 | 0.06 | 1 | 1014.0 |
| 20260905025104 | 83 | 290 | 0.0 | 2.0 | 0.00 | 0.06 | 0.06 | 1 | 1014.0 |
| 20260905025004 | 83 | 290 | 0.0 | 1.0 | 0.00 | 0.06 | 0.06 | 1 | 1014.0 |
| 20260905024904 | 84 | 290 | 0.0 | 1.0 | 0.00 | 0.06 | 0.06 | 1 | 1014.0 |
| 20260905024804 | 84 | 290 | 0.0 | 1.0 | 0.00 | 0.06 | 0.06 | 1 | 1014.0 |
| 20260905024704 | 84 | 290 | 0.0 | 1.0 | 0.00 | 0.06 | 0.06 | 1 | 1014.0 |
| 20260905024625 | 84 | 290 | 0.0 | 1.0 | 0.00 | 0.06 | 0.06 | 1 | 1014.0 |
| 20260905024504 | 84 | 290 | 0.0 | 1.0 | 0.00 | 0.06 | 0.06 | 1 | 1014.0 |
| 20260905024404 | 84 | 290 | 0.0 | 2.0 | 0.00 | 0.06 | 0.06 | 1 | 1014.0 |
| 20260905024304 | 84 | 290 | 0.0 | 2.0 | 0.00 | 0.06 | 0.06 | 1 | 1013.9 |
| 20260905024204 | 84 | 290 | 0.0 | 2.0 | 0.00 | 0.06 | 0.06 | 1 | 1013.9 |
| 20260905024104 | 84 | 290 | 0.0 | 2.0 | 0.00 | 0.06 | 0.06 | 1 | 1013.9 |
| 20260905024025 | 84 | 290 | 0.0 | 2.0 | 0.00 | 0.06 | 0.06 | 1 | 1013.9 |
| 20260905023925 | 84 | 290 | 0.0 | 2.0 | 0.00 | 0.06 | 0.06 | 1 | 1013.9 |
| 20260905023804 | 84 | 290 | 0.0 | 2.0 | 0.00 | 0.06 | 0.06 | 1 | 1013.9 |
| 20260905023704 | 84 | 290 | 1.0 | 2.0 | 0.00 | 0.06 | 0.06 | 1 | 1013.9 |
| 20260905023604 | 84 | 290 | 1.0 | 2.0 | 0.00 | 0.06 | 0.06 | 1 | 1013.9 |
| 20260905023504 | 84 | 290 | 1.0 | 2.0 | 0.00 | 0.06 | 0.06 | 1 | 1013.9 |
| 20260905023425 | 84 | 290 | 1.0 | 2.0 | 0.00 | 0.06 | 0.06 | 1 | 1013.8 |
| 20260905023304 | 84 | 290 | 1.0 | 3.0 | 0.00 | 0.06 | 0.06 | 1 | 1013.8 |
| 20260905023225 | 84 | 290 | 1.0 | 3.0 | 0.00 | 0.06 | 0.06 | 1 | 1013.8 |
| 20260905023104 | 84 | 290 | 1.0 | 3.0 | 0.00 | 0.06 | 0.06 | 1 | 1013.7 |
| 20260905023004 | 84 | 290 | 1.0 | 3.0 | 0.00 | 0.06 | 0.06 | 1 | 1013.7 |
| 20260905022925 | 84 | 290 | 1.0 | 3.0 | 0.00 | 0.06 | 0.06 | 1 | 1013.6 |
| 20260905022804 | 84 | 290 | 1.0 | 3.0 | 0.00 | 0.06 | 0.06 | 1 | 1013.7 |
| 20260905022704 | 84 | 290 | 1.0 | 3.0 | 0.00 | 0.06 | 0.06 | 1 | 1013.7 |
| 20260905022604 | 84 | 290 | 1.0 | 3.0 | 0.00 | 0.06 | 0.06 | 1 | 1013.7 |
| 20260905022504 | 84 | 290 | 1.0 | 3.0 | 0.00 | 0.06 | 0.06 | 1 | 1013.7 |
| 20260905022404 | 84 | 290 | 1.0 | 3.0 | 0.00 | 0.06 | 0.06 | 1 | 1013.6 |
| 20260905022306 | 84 | 291 | 1.0 | 3.0 | 0.00 | 0.06 | 0.06 | 1 | 1013.7 |
| 20260905022204 | 84 | 290 | 1.0 | 3.0 | 0.00 | 0.06 | 0.06 | 1 | 1013.6 |
| 20260905022125 | 84 | 290 | 1.0 | 3.0 | 0.00 | 0.06 | 0.06 | 1 | 1013.6 |
| 20260905022025 | 84 | 290 | 1.0 | 3.0 | 0.00 | 0.06 | 0.06 | 1 | 1013.6 |
| 20260905021904 | 84 | 290 | 1.0 | 2.0 | 0.00 | 0.06 | 0.06 | 1 | 1013.6 |
| 20260905021804 | 84 | 290 | 1.0 | 2.0 | 0.00 | 0.06 | 0.06 | 1 | 1013.5 |
| 20260905021704 | 84 | 290 | 1.0 | 2.0 | 0.00 | 0.06 | 0.06 | 1 | 1013.6 |
| 20260905021604 | 84 | 290 | 1.0 | 2.0 | 0.00 | 0.06 | 0.06 | 1 | 1013.6 |
| 20260905021504 | 84 | 290 | 1.0 | 2.0 | 0.00 | 0.06 | 0.06 | 1 | 1013.6 |
| 20260905021404 | 84 | 290 | 1.0 | 2.0 | 0.00 | 0.06 | 0.06 | 1 | 1013.6 |
| 20260905021304 | 84 | 290 | 1.0 | 2.0 | 0.00 | 0.06 | 0.06 | 1 | 1013.6 |
| 20260905021204 | 84 | 290 | 1.0 | 2.0 | 0.00 | 0.06 | 0.06 | 1 | 1013.6 |
| 20260905021104 | 84 | 290 | 1.0 | 2.0 | 0.00 | 0.06 | 0.06 | 1 | 1013.6 |
| 20260905021004 | 84 | 290 | 1.0 | 2.0 | 0.00 | 0.06 | 0.06 | 1 | 1013.6 |
| 20260905020904 | 84 | 291 | 1.0 | 2.0 | 0.00 | 0.06 | 0.06 | 1 | 1013.6 |
| 20260905020804 | 84 | 291 | 1.0 | 2.0 | 0.00 | 0.06 | 0.06 | 1 | 1013.6 |
| 20260905020704 | 84 | 291 | 1.0 | 2.0 | 0.00 | 0.06 | 0.06 | 1 | 1013.6 |
| 20260905020625 | 84 | 291 | 1.0 | 2.0 | 0.00 | 0.06 | 0.06 | 1 | 1013.6 |
| 20260905020504 | 84 | 291 | 1.0 | 3.0 | 0.00 | 0.06 | 0.06 | 1 | 1013.5 |
| 20260905020406 | 84 | 291 | 1.0 | 3.0 | 0.00 | 0.06 | 0.06 | 1 | 1013.5 |
| 20260905020304 | 84 | 291 | 1.0 | 3.0 | 0.00 | 0.06 | 0.06 | 1 | 1013.5 |
| 20260905020204 | 84 | 291 | 1.0 | 3.0 | 0.00 | 0.06 | 0.06 | 1 | 1013.5 |
| 20260905020104 | 84 | 291 | 1.0 | 3.0 | 0.00 | 0.06 | 0.06 | 1 | 1013.5 |
| 20260905020025 | 84 | 291 | 1.0 | 3.0 | 0.00 | 0.06 | 0.06 | 1 | 1013.5 |
| 20260905015904 | 84 | 291 | 1.0 | 3.0 | 0.00 | 0.06 | 0.06 | 1 | 1013.5 |
| 20260905015804 | 84 | 290 | 1.0 | 3.0 | 0.00 | 0.06 | 0.06 | 1 | 1013.4 |
| 20260905015704 | 84 | 290 | 1.0 | 3.0 | 0.00 | 0.06 | 0.06 | 1 | 1013.4 |
| 20260905015625 | 84 | 290 | 1.0 | 3.0 | 0.00 | 0.06 | 0.06 | 1 | 1013.4 |
| 20260905015504 | 84 | 290 | 1.0 | 2.0 | 0.00 | 0.06 | 0.06 | 1 | 1013.4 |
| 20260905015425 | 84 | 290 | 1.0 | 3.0 | 0.00 | 0.06 | 0.06 | 1 | 1013.4 |
| 20260905015306 | 85 | 291 | 1.0 | 3.0 | 0.00 | 0.06 | 0.06 | 1 | 1013.4 |
| 20260905015204 | 85 | 291 | 1.0 | 3.0 | 0.00 | 0.06 | 0.06 | 1 | 1013.4 |
| 20260905015125 | 85 | 291 | 1.0 | 3.0 | 0.00 | 0.06 | 0.06 | 1 | 1013.4 |
| 20260905015004 | 85 | 291 | 1.0 | 4.0 | 0.00 | 0.06 | 0.06 | 1 | 1013.4 |
| 20260905014925 | 85 | 291 | 1.0 | 4.0 | 0.00 | 0.06 | 0.06 | 1 | 1013.3 |
| 20260905014804 | 85 | 291 | 1.0 | 4.0 | 0.00 | 0.06 | 0.06 | 1 | 1013.3 |
| 20260905014704 | 85 | 291 | 1.0 | 4.0 | 0.00 | 0.06 | 0.06 | 1 | 1013.3 |
| 20260905014604 | 85 | 291 | 1.0 | 4.0 | 0.00 | 0.06 | 0.06 | 1 | 1013.3 |
| 20260905014525 | 85 | 291 | 1.0 | 4.0 | 0.00 | 0.06 | 0.06 | 1 | 1013.3 |
| 20260905014404 | 85 | 291 | 1.0 | 4.0 | 0.00 | 0.06 | 0.06 | 1 | 1013.3 |
| 20260905014325 | 85 | 291 | 1.0 | 4.0 | 0.00 | 0.06 | 0.06 | 1 | 1013.3 |
| 20260905014204 | 85 | 291 | 1.0 | 4.0 | 0.00 | 0.06 | 0.06 | 1 | 1013.3 |
| 20260905014104 | 85 | 291 | 1.0 | 4.0 | 0.00 | 0.06 | 0.06 | 1 | 1013.3 |
| 20260905014004 | 85 | 291 | 1.0 | 3.0 | 0.00 | 0.06 | 0.06 | 1 | 1013.3 |
| 20260905013904 | 85 | 291 | 1.0 | 3.0 | 0.00 | 0.06 | 0.06 | 1 | 1013.3 |
| 20260905013825 | 85 | 291 | 1.0 | 3.0 | 0.00 | 0.06 | 0.06 | 1 | 1013.3 |
| 20260905013704 | 85 | 290 | 1.0 | 3.0 | 0.00 | 0.06 | 0.06 | 1 | 1013.3 |
| 20260905013604 | 85 | 290 | 1.0 | 3.0 | 0.00 | 0.06 | 0.06 | 1 | 1013.3 |
| 20260905013525 | 85 | 291 | 0.0 | 3.0 | 0.00 | 0.06 | 0.06 | 1 | 1013.3 |
| 20260905013404 | 85 | 291 | 0.0 | 2.0 | 0.00 | 0.06 | 0.06 | 1 | 1013.3 |
| 20260905013304 | 85 | 290 | 0.0 | 3.0 | 0.00 | 0.06 | 0.06 | 1 | 1013.2 |
| 20260905013204 | 85 | 290 | 0.0 | 3.0 | 0.00 | 0.06 | 0.06 | 1 | 1013.2 |
| 20260905013104 | 85 | 290 | 0.0 | 3.0 | 0.00 | 0.06 | 0.06 | 1 | 1013.3 |
| 20260905013004 | 85 | 290 | 0.0 | 3.0 | 0.00 | 0.06 | 0.06 | 1 | 1013.2 |
| 20260905012904 | 85 | 290 | 1.0 | 3.0 | 0.00 | 0.06 | 0.06 | 1 | 1013.2 |
| 20260905012804 | 85 | 290 | 1.0 | 3.0 | 0.00 | 0.06 | 0.06 | 1 | 1013.2 |
| 20260905012704 | 85 | 290 | 1.0 | 3.0 | 0.00 | 0.06 | 0.06 | 1 | 1013.2 |
| 20260905012625 | 85 | 290 | 1.0 | 3.0 | 0.00 | 0.06 | 0.06 | 1 | 1013.1 |
| 20260905012504 | 85 | 291 | 1.0 | 3.0 | 0.00 | 0.06 | 0.06 | 1 | 1013.1 |
| 20260905012404 | 85 | 291 | 1.0 | 3.0 | 0.00 | 0.06 | 0.06 | 1 | 1013.1 |
| 20260905012325 | 85 | 291 | 1.0 | 3.0 | 0.00 | 0.06 | 0.06 | 1 | 1013.1 |
| 20260905012225 | 85 | 291 | 1.0 | 3.0 | 0.00 | 0.06 | 0.06 | 1 | 1013.1 |
| 20260905012125 | 85 | 291 | 1.0 | 3.0 | 0.00 | 0.06 | 0.06 | 1 | 1013.1 |
| 20260905012004 | 85 | 291 | 1.0 | 3.0 | 0.00 | 0.06 | 0.06 | 1 | 1013.1 |
| 20260905011904 | 85 | 291 | 1.0 | 4.0 | 0.00 | 0.06 | 0.06 | 1 | 1013.1 |
| 20260905011804 | 85 | 290 | 1.0 | 4.0 | 0.00 | 0.06 | 0.06 | 1 | 1013.1 |
| 20260905011704 | 85 | 290 | 1.0 | 4.0 | 0.00 | 0.06 | 0.06 | 1 | 1013.1 |
| 20260905011625 | 85 | 290 | 1.0 | 4.0 | 0.00 | 0.06 | 0.06 | 1 | 1013.1 |
| 20260905011504 | 85 | 290 | 1.0 | 4.0 | 0.00 | 0.06 | 0.06 | 1 | 1013.1 |
| 20260905011404 | 85 | 290 | 1.0 | 4.0 | 0.00 | 0.06 | 0.06 | 1 | 1013.1 |
| 20260905011304 | 85 | 290 | 1.0 | 4.0 | 0.00 | 0.06 | 0.06 | 1 | 1013.0 |
| 20260905011204 | 85 | 290 | 1.0 | 4.0 | 0.00 | 0.06 | 0.06 | 1 | 1013.0 |
| 20260905011104 | 85 | 290 | 1.0 | 4.0 | 0.00 | 0.06 | 0.06 | 1 | 1013.0 |
| 20260905011004 | 85 | 290 | 1.0 | 4.0 | 0.00 | 0.06 | 0.06 | 1 | 1013.0 |
| 20260905010904 | 85 | 289 | 1.0 | 3.0 | 0.00 | 0.06 | 0.06 | 1 | 1012.9 |
| 20260905010804 | 85 | 289 | 1.0 | 3.0 | 0.00 | 0.06 | 0.06 | 1 | 1012.9 |
| 20260905010704 | 85 | 290 | 1.0 | 3.0 | 0.00 | 0.06 | 0.06 | 1 | 1012.9 |
| 20260905010604 | 86 | 290 | 1.0 | 3.0 | 0.00 | 0.06 | 0.06 | 1 | 1013.0 |
| 20260905010504 | 86 | 290 | 1.0 | 3.0 | 0.00 | 0.06 | 0.06 | 1 | 1012.9 |
| 20260905010404 | 86 | 290 | 1.0 | 3.0 | 0.00 | 0.06 | 0.06 | 1 | 1012.9 |
| 20260905010304 | 86 | 291 | 1.0 | 3.0 | 0.00 | 0.06 | 0.06 | 1 | 1012.9 |
| 20260905010204 | 86 | 291 | 1.0 | 3.0 | 0.00 | 0.06 | 0.06 | 1 | 1012.9 |
| 20260905010104 | 86 | 291 | 1.0 | 3.0 | 0.00 | 0.06 | 0.06 | 1 | 1012.8 |
| 20260905010004 | 86 | 291 | 2.0 | 3.0 | 0.00 | 0.06 | 0.06 | 1 | 1012.9 |
| 20260905005904 | 86 | 292 | 2.0 | 3.0 | 0.00 | 0.06 | 0.06 | 1 | 1012.9 |
| 20260905005804 | 86 | 292 | 2.0 | 3.0 | 0.00 | 0.06 | 0.06 | 1 | 1012.9 |
| 20260905005704 | 86 | 292 | 2.0 | 5.0 | 0.00 | 0.06 | 0.06 | 1 | 1012.9 |
| 20260905005625 | 86 | 291 | 2.0 | 5.0 | 0.00 | 0.06 | 0.06 | 1 | 1012.9 |
| 20260905005525 | 86 | 290 | 2.0 | 5.0 | 0.00 | 0.06 | 0.06 | 1 | 1012.9 |
| 20260905005425 | 86 | 288 | 2.0 | 5.0 | 0.00 | 0.06 | 0.06 | 1 | 1012.8 |
| 20260905005306 | 86 | 287 | 2.0 | 5.0 | 0.00 | 0.06 | 0.06 | 1 | 1012.8 |
| 20260905005225 | 86 | 286 | 2.0 | 5.0 | 0.00 | 0.06 | 0.06 | 1 | 1012.8 |
| 20260905005104 | 86 | 284 | 2.0 | 5.0 | 0.00 | 0.06 | 0.06 | 1 | 1012.8 |
| 20260905005005 | 86 | 282 | 2.0 | 5.0 | 0.00 | 0.06 | 0.06 | 1 | 1012.8 |
| 20260905004904 | 86 | 280 | 2.0 | 5.0 | 0.00 | 0.06 | 0.06 | 1 | 1012.8 |
| 20260905004804 | 86 | 278 | 2.0 | 5.0 | 0.00 | 0.06 | 0.06 | 1 | 1012.7 |
| 20260905004704 | 86 | 276 | 2.0 | 5.0 | 0.00 | 0.06 | 0.06 | 1 | 1012.7 |
| 20260905004606 | 86 | 275 | 2.0 | 5.0 | 0.00 | 0.06 | 0.06 | 1 | 1012.7 |
| 20260905004504 | 86 | 276 | 2.0 | 7.0 | 0.00 | 0.06 | 0.06 | 1 | 1012.7 |
| 20260905004404 | 86 | 273 | 2.0 | 7.0 | 0.00 | 0.06 | 0.06 | 1 | 1012.6 |
| 20260905004325 | 86 | 272 | 3.0 | 7.0 | 0.00 | 0.06 | 0.06 | 1 | 1012.6 |
| 20260905004227 | 86 | 271 | 3.0 | 7.0 | 0.00 | 0.06 | 0.06 | 1 | 1012.6 |
| 20260905004104 | 86 | 268 | 2.0 | 7.0 | 0.00 | 0.06 | 0.06 | 1 | 1012.6 |
| 20260905004004 | 86 | 267 | 3.0 | 7.0 | 0.00 | 0.06 | 0.06 | 1 | 1012.5 |
| 20260905003904 | 86 | 265 | 3.0 | 7.0 | 0.00 | 0.06 | 0.06 | 1 | 1012.5 |
| 20260905003825 | 86 | 265 | 3.0 | 7.0 | 0.00 | 0.06 | 0.06 | 1 | 1012.6 |
| 20260905003704 | 86 | 263 | 3.0 | 7.0 | 0.00 | 0.06 | 0.06 | 1 | 1012.6 |
| 20260905003604 | 86 | 261 | 3.0 | 7.0 | 0.00 | 0.06 | 0.06 | 1 | 1012.6 |
| 20260905003504 | 86 | 258 | 3.0 | 6.0 | 0.00 | 0.06 | 0.06 | 1 | 1012.6 |
| 20260905003404 | 86 | 257 | 2.0 | 6.0 | 0.00 | 0.06 | 0.06 | 1 | 1012.5 |
| 20260905003304 | 86 | 257 | 2.0 | 6.0 | 0.00 | 0.06 | 0.06 | 1 | 1012.5 |
| 20260905003204 | 86 | 257 | 2.0 | 6.0 | 0.00 | 0.06 | 0.06 | 1 | 1012.5 |
| 20260905003125 | 86 | 257 | 2.0 | 6.0 | 0.00 | 0.06 | 0.06 | 1 | 1012.5 |
| 20260905003004 | 86 | 257 | 2.0 | 6.0 | 0.00 | 0.06 | 0.06 | 1 | 1012.5 |
| 20260905002906 | 86 | 257 | 2.0 | 6.0 | 0.00 | 0.06 | 0.06 | 1 | 1012.5 |
| 20260905002804 | 86 | 256 | 2.0 | 6.0 | 0.00 | 0.06 | 0.06 | 1 | 1012.5 |
| 20260905002725 | 87 | 257 | 2.0 | 5.0 | 0.00 | 0.06 | 0.06 | 1 | 1012.5 |
| 20260905002604 | 87 | 257 | 2.0 | 5.0 | 0.00 | 0.06 | 0.06 | 1 | 1012.5 |
| 20260905002504 | 87 | 259 | 2.0 | 7.0 | 0.00 | 0.06 | 0.06 | 1 | 1012.5 |
| 20260905002404 | 87 | 260 | 2.0 | 7.0 | 0.00 | 0.06 | 0.06 | 1 | 1012.6 |
| 20260905002306 | 87 | 260 | 2.0 | 7.0 | 0.00 | 0.06 | 0.06 | 1 | 1012.5 |
| 20260905002204 | 87 | 260 | 2.0 | 7.0 | 0.00 | 0.06 | 0.06 | 1 | 1012.6 |
| 20260905002104 | 87 | 261 | 2.0 | 7.0 | 0.00 | 0.06 | 0.06 | 1 | 1012.5 |
| 20260905002004 | 87 | 261 | 2.0 | 7.0 | 0.00 | 0.06 | 0.06 | 1 | 1012.6 |
| 20260905001904 | 86 | 261 | 2.0 | 7.0 | 0.00 | 0.06 | 0.06 | 1 | 1012.6 |
| 20260905001804 | 86 | 262 | 2.0 | 7.0 | 0.00 | 0.06 | 0.06 | 1 | 1012.5 |
| 20260905001704 | 86 | 262 | 2.0 | 7.0 | 0.00 | 0.06 | 0.06 | 1 | 1012.5 |
| 20260905001604 | 86 | 263 | 2.0 | 7.0 | 0.00 | 0.06 | 0.06 | 1 | 1012.5 |
| 20260905001525 | 86 | 260 | 2.0 | 4.0 | 0.00 | 0.06 | 0.06 | 1 | 1012.5 |
| 20260905001425 | 86 | 260 | 2.0 | 4.0 | 0.00 | 0.06 | 0.06 | 1 | 1012.6 |
| 20260905001304 | 86 | 260 | 2.0 | 4.0 | 0.00 | 0.06 | 0.06 | 1 | 1012.6 |
| 20260905001204 | 86 | 260 | 2.0 | 4.0 | 0.00 | 0.06 | 0.06 | 1 | 1012.5 |
| 20260905001104 | 86 | 259 | 2.0 | 4.0 | 0.00 | 0.06 | 0.06 | 1 | 1012.5 |
| 20260905001004 | 86 | 259 | 2.0 | 4.0 | 0.00 | 0.06 | 0.06 | 1 | 1012.5 |
| 20260905000925 | 86 | 259 | 2.0 | 4.0 | 0.00 | 0.06 | 0.06 | 1 | 1012.5 |
| 20260905000804 | 86 | 259 | 2.0 | 4.0 | 0.00 | 0.06 | 0.06 | 1 | 1012.5 |
| 20260905000704 | 86 | 258 | 2.0 | 5.0 | 0.00 | 0.06 | 0.06 | 1 | 1012.5 |
| 20260905000625 | 86 | 258 | 2.0 | 5.0 | 0.00 | 0.06 | 0.06 | 1 | 1012.4 |
| 20260905000504 | 86 | 258 | 2.0 | 6.0 | 0.00 | 0.06 | 0.06 | 1 | 1012.5 |
| 20260905000404 | 86 | 258 | 2.0 | 6.0 | 0.00 | 0.06 | 0.06 | 1 | 1012.4 |
| 20260905000304 | 86 | 258 | 2.0 | 6.0 | 0.00 | 0.06 | 0.06 | 1 | 1012.5 |
| 20260905000204 | 86 | 258 | 2.0 | 6.0 | 0.00 | 0.06 | 0.06 | 1 | 1012.4 |
| 20260905000104 | 86 | 258 | 2.0 | 6.0 | 0.00 | 0.06 | 0.06 | 1 | 1012.5 |
| 20260905000004 | 86 | 257 | 2.0 | 6.0 | 0.00 | 0.06 | 0.06 | 1 | 1012.4 |
| 20260904235904 | 86 | 257 | 2.0 | 6.0 | 0.00 | 0.06 | 0.06 | 1 | 1012.4 |
| 20260904235804 | 86 | 257 | 2.0 | 6.0 | 0.00 | 0.06 | 0.06 | 1 | 1012.4 |
| 20260904235704 | 86 | 257 | 2.0 | 6.0 | 0.00 | 0.06 | 0.06 | 1 | 1012.5 |
| 20260904235625 | 86 | 257 | 2.0 | 6.0 | 0.00 | 0.06 | 0.06 | 1 | 1012.5 |
| 20260904235504 | 86 | 258 | 2.0 | 5.0 | 0.00 | 0.06 | 0.06 | 1 | 1012.4 |
| 20260904235425 | 86 | 261 | 2.0 | 8.0 | 0.00 | 0.06 | 0.06 | 1 | 1012.4 |
| 20260904235306 | 86 | 264 | 2.0 | 8.0 | 0.00 | 0.06 | 0.06 | 1 | 1012.4 |
| 20260904235204 | 86 | 264 | 2.0 | 8.0 | 0.00 | 0.06 | 0.06 | 1 | 1012.4 |
| 20260904235104 | 86 | 264 | 3.0 | 8.0 | 0.00 | 0.06 | 0.06 | 1 | 1012.4 |
| 20260904235004 | 86 | 264 | 3.0 | 8.0 | 0.00 | 0.06 | 0.06 | 1 | 1012.4 |
| 20260904234925 | 86 | 263 | 3.0 | 8.0 | 0.00 | 0.06 | 0.06 | 1 | 1012.4 |
| 20260904234804 | 86 | 264 | 2.0 | 8.0 | 0.00 | 0.06 | 0.06 | 1 | 1012.4 |
| 20260904234704 | 86 | 264 | 2.0 | 8.0 | 0.00 | 0.06 | 0.06 | 1 | 1012.4 |
| 20260904234604 | 85 | 264 | 2.0 | 8.0 | 0.00 | 0.06 | 0.06 | 1 | 1012.4 |
| 20260904234504 | 85 | 264 | 2.0 | 8.0 | 0.00 | 0.06 | 0.06 | 1 | 1012.4 |
| 20260904234404 | 85 | 257 | 1.0 | 6.0 | 0.00 | 0.06 | 0.06 | 1 | 1012.4 |
| 20260904234304 | 85 | 256 | 1.0 | 6.0 | 0.00 | 0.06 | 0.06 | 1 | 1012.4 |
| 20260904234204 | 85 | 257 | 1.0 | 6.0 | 0.00 | 0.06 | 0.06 | 1 | 1012.4 |
| 20260904234104 | 85 | 257 | 1.0 | 6.0 | 0.00 | 0.06 | 0.06 | 1 | 1012.4 |
| 20260904234025 | 85 | 257 | 1.0 | 6.0 | 0.00 | 0.06 | 0.06 | 1 | 1012.4 |
| 20260904233904 | 85 | 257 | 1.0 | 3.0 | 0.00 | 0.06 | 0.06 | 1 | 1012.4 |
| 20260904233804 | 85 | 257 | 1.0 | 3.0 | 0.00 | 0.06 | 0.06 | 1 | 1012.4 |
| 20260904233704 | 85 | 257 | 0.0 | 3.0 | 0.00 | 0.06 | 0.06 | 1 | 1012.4 |
| 20260904233625 | 85 | 257 | 0.0 | 3.0 | 0.00 | 0.06 | 0.06 | 1 | 1012.4 |
| 20260904233504 | 85 | 257 | 0.0 | 3.0 | 0.00 | 0.06 | 0.06 | 1 | 1012.4 |
| 20260904233404 | 84 | 257 | 0.0 | 2.0 | 0.00 | 0.06 | 0.06 | 1 | 1012.4 |
| 20260904233304 | 84 | 257 | 0.0 | 2.0 | 0.01 | 0.06 | 0.06 | 1 | 1012.4 |
| 20260904233204 | 84 | 257 | 0.0 | 2.0 | 0.01 | 0.06 | 0.06 | 1 | 1012.4 |
| 20260904233104 | 84 | 257 | 0.0 | 2.0 | 0.01 | 0.06 | 0.06 | 1 | 1012.4 |
| 20260904233004 | 84 | 257 | 0.0 | 2.0 | 0.01 | 0.06 | 0.06 | 1 | 1012.4 |
| 20260904232904 | 84 | 257 | 0.0 | 2.0 | 0.02 | 0.06 | 0.06 | 1 | 1012.4 |
| 20260904232804 | 84 | 257 | 0.0 | 2.0 | 0.02 | 0.06 | 0.06 | 1 | 1012.4 |
| 20260904232704 | 84 | 257 | 1.0 | 2.0 | 0.02 | 0.06 | 0.06 | 1 | 1012.4 |
| 20260904232625 | 84 | 257 | 1.0 | 4.0 | 0.03 | 0.06 | 0.06 | 1 | 1012.4 |
| 20260904232504 | 84 | 257 | 1.0 | 4.0 | 0.04 | 0.06 | 0.06 | 1 | 1012.5 |
| 20260904232404 | 84 | 257 | 1.0 | 4.0 | 0.04 | 0.06 | 0.06 | 1 | 1012.5 |
| 20260904232325 | 84 | 257 | 1.0 | 4.0 | 0.04 | 0.06 | 0.06 | 1 | 1012.5 |
| 20260904232204 | 84 | 257 | 1.0 | 4.0 | 0.05 | 0.06 | 0.06 | 1 | 1012.6 |
| 20260904232104 | 84 | 257 | 2.0 | 4.0 | 0.05 | 0.06 | 0.06 | 1 | 1012.6 |
| 20260904232004 | 84 | 257 | 2.0 | 4.0 | 0.05 | 0.06 | 0.06 | 1 | 1012.6 |
| 20260904231906 | 84 | 259 | 2.0 | 6.0 | 0.05 | 0.06 | 0.06 | 1 | 1012.6 |
| 20260904231804 | 84 | 259 | 2.0 | 6.0 | 0.05 | 0.06 | 0.06 | 1 | 1012.6 |
| 20260904231725 | 84 | 259 | 2.0 | 6.0 | 0.05 | 0.06 | 0.06 | 1 | 1012.6 |
| 20260904231604 | 84 | 259 | 2.0 | 6.0 | 0.05 | 0.06 | 0.06 | 1 | 1012.6 |
| 20260904231504 | 84 | 259 | 2.0 | 6.0 | 0.05 | 0.06 | 0.06 | 1 | 1012.5 |
| 20260904231404 | 84 | 259 | 2.0 | 6.0 | 0.05 | 0.06 | 0.06 | 1 | 1012.5 |
| 20260904231304 | 84 | 258 | 2.0 | 6.0 | 0.05 | 0.06 | 0.06 | 1 | 1012.5 |
| 20260904231225 | 84 | 258 | 2.0 | 6.0 | 0.05 | 0.06 | 0.06 | 1 | 1012.5 |
| 20260904231104 | 84 | 258 | 2.0 | 6.0 | 0.05 | 0.06 | 0.06 | 1 | 1012.5 |
| 20260904231004 | 84 | 258 | 2.0 | 6.0 | 0.05 | 0.06 | 0.06 | 1 | 1012.5 |
| 20260904230904 | 84 | 255 | 2.0 | 5.0 | 0.05 | 0.06 | 0.06 | 1 | 1012.5 |
| 20260904230825 | 84 | 255 | 1.0 | 5.0 | 0.05 | 0.06 | 0.06 | 1 | 1012.5 |
| 20260904230704 | 84 | 254 | 1.0 | 5.0 | 0.05 | 0.06 | 0.06 | 1 | 1012.5 |
| 20260904230604 | 84 | 254 | 1.0 | 5.0 | 0.05 | 0.06 | 0.06 | 1 | 1012.5 |
| 20260904230504 | 84 | 253 | 1.0 | 5.0 | 0.05 | 0.06 | 0.06 | 1 | 1012.5 |
| 20260904230404 | 84 | 253 | 1.0 | 5.0 | 0.05 | 0.06 | 0.06 | 1 | 1012.5 |
| 20260904230304 | 84 | 252 | 1.0 | 4.0 | 0.05 | 0.06 | 0.06 | 1 | 1012.4 |
| 20260904230225 | 84 | 252 | 1.0 | 4.0 | 0.05 | 0.06 | 0.06 | 1 | 1012.5 |
| 20260904230104 | 84 | 252 | 1.0 | 4.0 | 0.05 | 0.06 | 0.06 | 1 | 1012.5 |
| 20260904230004 | 84 | 252 | 1.0 | 4.0 | 0.05 | 0.06 | 0.06 | 1 | 1012.5 |
| 20260904225904 | 84 | 252 | 1.0 | 4.0 | 0.05 | 0.06 | 0.06 | 1 | 1012.5 |
| 20260904225804 | 84 | 252 | 1.0 | 4.0 | 0.05 | 0.06 | 0.06 | 1 | 1012.5 |
| 20260904225704 | 84 | 252 | 1.0 | 4.0 | 0.05 | 0.06 | 0.06 | 1 | 1012.5 |
| 20260904225604 | 84 | 252 | 1.0 | 2.0 | 0.05 | 0.06 | 0.06 | 1 | 1012.5 |
| 20260904225525 | 84 | 252 | 1.0 | 2.0 | 0.05 | 0.06 | 0.06 | 1 | 1012.5 |
| 20260904225404 | 84 | 252 | 1.0 | 2.0 | 0.05 | 0.06 | 0.06 | 1 | 1012.5 |
| 20260904225306 | 84 | 252 | 1.0 | 2.0 | 0.05 | 0.06 | 0.06 | 1 | 1012.5 |
| 20260904225204 | 84 | 252 | 1.0 | 2.0 | 0.05 | 0.06 | 0.06 | 1 | 1012.5 |
| 20260904225104 | 84 | 252 | 1.0 | 1.0 | 0.05 | 0.06 | 0.06 | 1 | 1012.5 |
| 20260904225004 | 83 | 252 | 0.0 | 1.0 | 0.05 | 0.06 | 0.06 | 1 | 1012.5 |
| 20260904224904 | 83 | 252 | 0.0 | 1.0 | 0.05 | 0.06 | 0.06 | 1 | 1012.5 |
| 20260904224804 | 83 | 252 | 1.0 | 1.0 | 0.05 | 0.06 | 0.06 | 1 | 1012.5 |
| 20260904224704 | 83 | 252 | 1.0 | 3.0 | 0.05 | 0.06 | 0.06 | 1 | 1012.5 |
| 20260904224625 | 83 | 252 | 1.0 | 3.0 | 0.05 | 0.06 | 0.06 | 1 | 1012.5 |
| 20260904224504 | 83 | 252 | 1.0 | 4.0 | 0.05 | 0.06 | 0.06 | 1 | 1012.5 |
| 20260904224404 | 83 | 252 | 1.0 | 4.0 | 0.05 | 0.06 | 0.06 | 1 | 1012.6 |
| 20260904224304 | 83 | 252 | 1.0 | 5.0 | 0.05 | 0.06 | 0.06 | 1 | 1012.6 |
| 20260904224204 | 83 | 252 | 1.0 | 5.0 | 0.05 | 0.06 | 0.06 | 1 | 1012.6 |
| 20260904224104 | 83 | 253 | 1.0 | 5.0 | 0.05 | 0.06 | 0.06 | 1 | 1012.5 |
| 20260904224004 | 83 | 255 | 2.0 | 5.0 | 0.05 | 0.06 | 0.06 | 1 | 1012.6 |
| 20260904223904 | 83 | 258 | 2.0 | 8.0 | 0.05 | 0.06 | 0.06 | 1 | 1012.6 |
| 20260904223804 | 82 | 259 | 2.0 | 8.0 | 0.05 | 0.06 | 0.06 | 1 | 1012.6 |
| 20260904223704 | 82 | 259 | 3.0 | 8.0 | 0.05 | 0.06 | 0.06 | 1 | 1012.6 |
| 20260904223625 | 82 | 259 | 3.0 | 8.0 | 0.05 | 0.06 | 0.06 | 1 | 1012.6 |
| 20260904223525 | 82 | 259 | 3.0 | 8.0 | 0.05 | 0.06 | 0.06 | 1 | 1012.6 |
| 20260904223404 | 82 | 260 | 4.0 | 8.0 | 0.05 | 0.06 | 0.06 | 1 | 1012.6 |
| 20260904223304 | 82 | 261 | 4.0 | 8.0 | 0.04 | 0.05 | 0.05 | 1 | 1012.5 |
| 20260904223204 | 82 | 261 | 4.0 | 14.0 | 0.04 | 0.05 | 0.05 | 1 | 1012.6 |
| 20260904223104 | 82 | 261 | 5.0 | 14.0 | 0.04 | 0.05 | 0.05 | 1 | 1012.6 |
| 20260904223004 | 83 | 264 | 5.0 | 14.0 | 0.04 | 0.05 | 0.05 | 1 | 1012.5 |
| 20260904222904 | 83 | 263 | 5.0 | 14.0 | 0.03 | 0.04 | 0.04 | 1 | 1012.5 |
| 20260904222825 | 83 | 263 | 5.0 | 14.0 | 0.03 | 0.04 | 0.04 | 1 | 1012.5 |
| 20260904222704 | 83 | 265 | 5.0 | 14.0 | 0.03 | 0.04 | 0.04 | 1 | 1012.5 |
| 20260904222604 | 84 | 267 | 5.0 | 14.0 | 0.02 | 0.03 | 0.03 | 1 | 1012.5 |
| 20260904222504 | 84 | 267 | 6.0 | 14.0 | 0.01 | 0.02 | 0.02 | 1 | 1012.5 |
| 20260904222425 | 84 | 266 | 6.0 | 14.0 | 0.01 | 0.02 | 0.02 | 1 | 1012.5 |
| 20260904222306 | 85 | 264 | 6.0 | 14.0 | 0.01 | 0.02 | 0.02 | 1 | 1012.4 |
| 20260904222204 | 86 | 266 | 7.0 | 19.0 | 0.00 | 0.01 | 0.01 | 1 | 1012.4 |
| 20260904222104 | 86 | 267 | 7.0 | 19.0 | 0.00 | 0.01 | 0.01 | 1 | 1012.4 |
| 20260904222004 | 86 | 265 | 7.0 | 19.0 | 0.00 | 0.01 | 0.01 | 1 | 1012.4 |
| 20260904221904 | 87 | 266 | 7.0 | 19.0 | 0.00 | 0.01 | 0.01 | 1 | 1012.4 |
| 20260904221804 | 87 | 266 | 6.0 | 19.0 | 0.00 | 0.01 | 0.01 | 35 | 1012.4 |
| 20260904221704 | 88 | 268 | 6.0 | 19.0 | 0.00 | 0.01 | 0.01 | 35 | 1012.4 |
| 20260904221604 | 88 | 270 | 6.0 | 19.0 | 0.00 | 0.01 | 0.01 | 35 | 1012.3 |
| 20260904221504 | 89 | 276 | 6.0 | 19.0 | 0.00 | 0.01 | 0.01 | 35 | 1012.3 |
| 20260904221404 | 90 | 294 | 6.0 | 19.0 | 0.00 | 0.01 | 0.01 | 38 | 1012.4 |
| 20260904221304 | 91 | 314 | 6.0 | 19.0 | 0.00 | 0.01 | 0.01 | 38 | 1012.4 |
| 20260904221204 | 92 | 350 | 5.0 | 17.0 | 0.00 | 0.01 | 0.01 | 38 | 1012.3 |
| 20260904221104 | 94 | 6 | 5.0 | 12.0 | 0.00 | 0.01 | 0.01 | 37 | 1012.3 |
| 20260904221004 | 95 | 21 | 5.0 | 12.0 | 0.00 | 0.01 | 0.01 | 37 | 1012.4 |
| 20260904220904 | 95 | 33 | 5.0 | 12.0 | 0.00 | 0.01 | 0.01 | 36 | 1012.3 |
| 20260904220825 | 95 | 37 | 4.0 | 12.0 | 0.00 | 0.01 | 0.01 | 36 | 1012.3 |
| 20260904220704 | 95 | 41 | 4.0 | 12.0 | 0.00 | 0.01 | 0.01 | 36 | 1012.2 |
| 20260904220604 | 95 | 46 | 4.0 | 12.0 | 0.00 | 0.01 | 0.01 | 36 | 1012.2 |
| 20260904220525 | 95 | 48 | 4.0 | 12.0 | 0.00 | 0.01 | 0.01 | 36 | 1012.1 |
| 20260904220404 | 95 | 50 | 4.0 | 11.0 | 0.00 | 0.01 | 0.01 | 36 | 1012.1 |
| 20260904220304 | 95 | 53 | 3.0 | 11.0 | 0.00 | 0.01 | 0.01 | 36 | 1012.1 |
| 20260904220204 | 95 | 50 | 3.0 | 8.0 | 0.00 | 0.01 | 0.01 | 35 | 1012.1 |
| 20260904220104 | 95 | 43 | 3.0 | 8.0 | 0.00 | 0.01 | 0.01 | 35 | 1012.1 |
| 20260904220004 | 95 | 41 | 3.0 | 8.0 | 0.00 | 0.01 | 0.01 | 35 | 1012.1 |
| 20260904215904 | 95 | 34 | 4.0 | 8.0 | 0.00 | 0.01 | 0.01 | 35 | 1012.2 |
| 20260904215804 | 95 | 27 | 4.0 | 8.0 | 0.00 | 0.01 | 0.01 | 35 | 1012.2 |
| 20260904215725 | 95 | 22 | 4.0 | 8.0 | 0.00 | 0.01 | 0.01 | 35 | 1012.2 |
| 20260904215604 | 95 | 24 | 4.0 | 8.0 | 0.00 | 0.01 | 0.01 | 35 | 1012.2 |
| 20260904215504 | 94 | 19 | 4.0 | 8.0 | 0.00 | 0.01 | 0.01 | 35 | 1012.3 |
| 20260904215404 | 94 | 19 | 4.0 | 8.0 | 0.00 | 0.01 | 0.01 | 35 | 1012.2 |
| 20260904215305 | 94 | 19 | 4.0 | 10.0 | 0.00 | 0.01 | 0.01 | 35 | 1012.2 |
| 20260904215204 | 95 | 27 | 4.0 | 10.0 | 0.00 | 0.01 | 0.01 | 35 | 1012.3 |
| 20260904215104 | 95 | 33 | 4.0 | 10.0 | 0.00 | 0.01 | 0.01 | 35 | 1012.3 |
| 20260904215004 | 95 | 37 | 5.0 | 10.0 | 0.00 | 0.01 | 0.01 | 35 | 1012.3 |
| 20260904214904 | 95 | 38 | 5.0 | 10.0 | 0.00 | 0.01 | 0.01 | 35 | 1012.3 |
| 20260904214804 | 95 | 46 | 5.0 | 10.0 | 0.00 | 0.01 | 0.01 | 34 | 1012.3 |
| 20260904214704 | 95 | 49 | 5.0 | 10.0 | 0.00 | 0.01 | 0.01 | 34 | 1012.4 |
| 20260904214604 | 95 | 50 | 5.0 | 10.0 | 0.00 | 0.01 | 0.01 | 34 | 1012.4 |
| 20260904214504 | 95 | 52 | 5.0 | 10.0 | 0.00 | 0.01 | 0.01 | 34 | 1012.4 |
| 20260904214404 | 95 | 53 | 5.0 | 10.0 | 0.00 | 0.01 | 0.01 | 34 | 1012.4 |
| 20260904214304 | 95 | 48 | 5.0 | 10.0 | 0.00 | 0.01 | 0.01 | 34 | 1012.4 |
| 20260904214204 | 95 | 44 | 5.0 | 10.0 | 0.00 | 0.01 | 0.01 | 34 | 1012.5 |
| 20260904214104 | 95 | 38 | 5.0 | 10.0 | 0.00 | 0.01 | 0.01 | 34 | 1012.5 |
| 20260904214004 | 95 | 35 | 5.0 | 10.0 | 0.00 | 0.01 | 0.01 | 34 | 1012.5 |
| 20260904213927 | 95 | 36 | 5.0 | 10.0 | 0.00 | 0.01 | 0.01 | 34 | 1012.5 |
| 20260904213804 | 95 | 35 | 5.0 | 10.0 | 0.00 | 0.01 | 0.01 | 34 | 1012.5 |
| 20260904213704 | 95 | 35 | 5.0 | 10.0 | 0.00 | 0.01 | 0.01 | 34 | 1012.5 |
| 20260904213604 | 95 | 36 | 5.0 | 10.0 | 0.00 | 0.01 | 0.01 | 34 | 1012.5 |
| 20260904213504 | 95 | 39 | 5.0 | 10.0 | 0.00 | 0.01 | 0.01 | 34 | 1012.6 |
| 20260904213404 | 95 | 38 | 5.0 | 10.0 | 0.00 | 0.01 | 0.01 | 34 | 1012.6 |
| 20260904213304 | 95 | 42 | 5.0 | 11.0 | 0.00 | 0.01 | 0.01 | 34 | 1012.6 |
| 20260904213225 | 95 | 45 | 5.0 | 11.0 | 0.00 | 0.01 | 0.01 | 34 | 1012.6 |
| 20260904213104 | 95 | 47 | 5.0 | 11.0 | 0.00 | 0.01 | 0.01 | 34 | 1012.6 |
| 20260904213004 | 95 | 46 | 5.0 | 11.0 | 0.00 | 0.01 | 0.01 | 33 | 1012.7 |
| 20260904212925 | 95 | 47 | 5.0 | 11.0 | 0.00 | 0.01 | 0.01 | 33 | 1012.7 |
| 20260904212804 | 95 | 49 | 5.0 | 11.0 | 0.00 | 0.01 | 0.01 | 33 | 1012.8 |
| 20260904212704 | 95 | 51 | 5.0 | 11.0 | 0.00 | 0.01 | 0.01 | 33 | 1012.8 |
| 20260904212604 | 95 | 48 | 4.0 | 11.0 | 0.00 | 0.01 | 0.01 | 33 | 1012.8 |
| 20260904212504 | 95 | 43 | 4.0 | 11.0 | 0.00 | 0.01 | 0.01 | 33 | 1012.8 |
| 20260904212404 | 95 | 38 | 4.0 | 11.0 | 0.00 | 0.01 | 0.01 | 33 | 1012.8 |
| 20260904212325 | 95 | 37 | 4.0 | 10.0 | 0.00 | 0.01 | 0.01 | 33 | 1012.8 |
| 20260904212204 | 95 | 35 | 4.0 | 7.0 | 0.00 | 0.01 | 0.01 | 33 | 1012.8 |
| 20260904212104 | 95 | 39 | 4.0 | 7.0 | 0.00 | 0.01 | 0.01 | 33 | 1012.8 |
| 20260904212004 | 95 | 42 | 4.0 | 9.0 | 0.00 | 0.01 | 0.01 | 33 | 1012.8 |
| 20260904211904 | 95 | 42 | 5.0 | 10.0 | 0.00 | 0.01 | 0.01 | 33 | 1012.8 |
| 20260904211804 | 95 | 38 | 5.0 | 10.0 | 0.00 | 0.01 | 0.01 | 33 | 1012.8 |
| 20260904211704 | 95 | 37 | 4.0 | 10.0 | 0.00 | 0.01 | 0.01 | 33 | 1012.8 |
| 20260904211604 | 95 | 40 | 4.0 | 10.0 | 0.00 | 0.01 | 0.01 | 32 | 1012.8 |
| 20260904211504 | 95 | 44 | 4.0 | 10.0 | 0.00 | 0.01 | 0.01 | 32 | 1012.7 |
| 20260904211404 | 95 | 48 | 4.0 | 10.0 | 0.00 | 0.01 | 0.01 | 32 | 1012.7 |
| 20260904211304 | 95 | 49 | 4.0 | 10.0 | 0.00 | 0.01 | 0.01 | 32 | 1012.8 |
| 20260904211204 | 95 | 51 | 4.0 | 10.0 | 0.00 | 0.01 | 0.01 | 32 | 1012.8 |
| 20260904211104 | 95 | 50 | 4.0 | 10.0 | 0.00 | 0.01 | 0.01 | 32 | 1012.8 |
| 20260904211004 | 95 | 51 | 4.0 | 10.0 | 0.00 | 0.01 | 0.01 | 32 | 1012.8 |
| 20260904210904 | 95 | 49 | 4.0 | 10.0 | 0.00 | 0.01 | 0.01 | 31 | 1012.8 |
| 20260904210804 | 95 | 46 | 3.0 | 9.0 | 0.00 | 0.01 | 0.01 | 31 | 1012.8 |
| 20260904210704 | 94 | 44 | 4.0 | 9.0 | 0.00 | 0.01 | 0.01 | 31 | 1012.8 |
| 20260904210604 | 94 | 46 | 4.0 | 9.0 | 0.00 | 0.01 | 0.01 | 31 | 1012.9 |
| 20260904210504 | 94 | 47 | 5.0 | 9.0 | 0.00 | 0.01 | 0.01 | 31 | 1012.8 |
| 20260904210425 | 94 | 46 | 5.0 | 9.0 | 0.00 | 0.01 | 0.01 | 31 | 1012.9 |
| 20260904210304 | 94 | 48 | 5.0 | 9.0 | 0.00 | 0.01 | 0.01 | 31 | 1012.9 |
| 20260904210206 | 94 | 51 | 5.0 | 9.0 | 0.00 | 0.01 | 0.01 | 30 | 1013.0 |
| 20260904210104 | 94 | 53 | 4.0 | 9.0 | 0.00 | 0.01 | 0.01 | 30 | 1013.0 |
| 20260904210004 | 94 | 55 | 4.0 | 9.0 | 0.00 | 0.01 | 0.01 | 30 | 1012.9 |
| 20260904205904 | 94 | 62 | 4.0 | 9.0 | 0.00 | 0.01 | 0.01 | 30 | 1013.0 |
| 20260904205804 | 94 | 67 | 4.0 | 9.0 | 0.00 | 0.01 | 0.01 | 29 | 1012.9 |
| 20260904205704 | 94 | 70 | 3.0 | 9.0 | 0.00 | 0.01 | 0.01 | 29 | 1013.0 |
| 20260904205625 | 94 | 69 | 3.0 | 9.0 | 0.00 | 0.01 | 0.01 | 29 | 1013.0 |
| 20260904205504 | 93 | 72 | 3.0 | 8.0 | 0.00 | 0.01 | 0.01 | 29 | 1012.9 |
| 20260904205425 | 93 | 75 | 3.0 | 8.0 | 0.00 | 0.01 | 0.01 | 29 | 1013.0 |
| 20260904205305 | 93 | 74 | 3.0 | 8.0 | 0.00 | 0.01 | 0.01 | 29 | 1013.0 |
| 20260904205204 | 92 | 72 | 3.0 | 8.0 | 0.00 | 0.01 | 0.01 | 29 | 1013.0 |
| 20260904205104 | 92 | 70 | 3.0 | 8.0 | 0.00 | 0.01 | 0.01 | 29 | 1012.9 |
| 20260904205004 | 92 | 66 | 4.0 | 8.0 | 0.00 | 0.01 | 0.01 | 29 | 1013.0 |
| 20260904204904 | 92 | 63 | 4.0 | 8.0 | 0.00 | 0.01 | 0.01 | 29 | 1013.0 |
| 20260904204804 | 92 | 62 | 3.0 | 8.0 | 0.00 | 0.01 | 0.01 | 29 | 1013.0 |
| 20260904204704 | 92 | 62 | 3.0 | 8.0 | 0.00 | 0.01 | 0.01 | 29 | 1013.0 |
| 20260904204604 | 93 | 61 | 3.0 | 8.0 | 0.00 | 0.01 | 0.01 | 28 | 1013.1 |
| 20260904204504 | 93 | 60 | 3.0 | 8.0 | 0.00 | 0.01 | 0.01 | 28 | 1013.1 |
| 20260904204404 | 93 | 58 | 2.0 | 8.0 | 0.00 | 0.01 | 0.01 | 28 | 1013.1 |
| 20260904204304 | 93 | 57 | 2.0 | 8.0 | 0.00 | 0.01 | 0.01 | 28 | 1013.1 |
| 20260904204204 | 93 | 58 | 2.0 | 8.0 | 0.00 | 0.01 | 0.01 | 28 | 1013.2 |
| 20260904204104 | 93 | 59 | 2.0 | 8.0 | 0.00 | 0.01 | 0.01 | 28 | 1013.2 |
| 20260904204004 | 93 | 62 | 2.0 | 7.0 | 0.00 | 0.01 | 0.01 | 28 | 1013.3 |
| 20260904203904 | 93 | 65 | 2.0 | 5.0 | 0.00 | 0.01 | 0.01 | 28 | 1013.3 |
| 20260904203804 | 92 | 65 | 2.0 | 5.0 | 0.00 | 0.01 | 0.01 | 28 | 1013.2 |
| 20260904203704 | 92 | 65 | 2.0 | 5.0 | 0.00 | 0.01 | 0.01 | 28 | 1013.3 |
| 20260904203604 | 92 | 65 | 2.0 | 5.0 | 0.00 | 0.01 | 0.01 | 28 | 1013.2 |
| 20260904203504 | 92 | 61 | 3.0 | 7.0 | 0.00 | 0.01 | 0.01 | 28 | 1013.3 |
| 20260904203404 | 92 | 57 | 3.0 | 7.0 | 0.00 | 0.01 | 0.01 | 27 | 1013.3 |
| 20260904203304 | 92 | 56 | 3.0 | 8.0 | 0.00 | 0.01 | 0.01 | 27 | 1013.4 |
| 20260904203225 | 92 | 57 | 3.0 | 8.0 | 0.00 | 0.01 | 0.01 | 27 | 1013.4 |
| 20260904203104 | 92 | 58 | 3.0 | 8.0 | 0.00 | 0.01 | 0.01 | 27 | 1013.4 |
| 20260904203025 | 92 | 58 | 4.0 | 8.0 | 0.00 | 0.01 | 0.01 | 27 | 1013.4 |
| 20260904202904 | 92 | 58 | 3.0 | 8.0 | 0.00 | 0.01 | 0.01 | 27 | 1013.4 |
| 20260904202804 | 92 | 57 | 3.0 | 8.0 | 0.00 | 0.01 | 0.01 | 26 | 1013.5 |
| 20260904202704 | 92 | 57 | 3.0 | 8.0 | 0.00 | 0.01 | 0.01 | 26 | 1013.4 |
| 20260904202604 | 92 | 57 | 3.0 | 8.0 | 0.00 | 0.01 | 0.01 | 26 | 1013.4 |
| 20260904202525 | 91 | 58 | 3.0 | 8.0 | 0.00 | 0.01 | 0.01 | 26 | 1013.4 |
| 20260904202404 | 91 | 63 | 3.0 | 8.0 | 0.00 | 0.01 | 0.01 | 26 | 1013.4 |
| 20260904202306 | 91 | 64 | 3.0 | 6.0 | 0.00 | 0.01 | 0.01 | 26 | 1013.4 |
| 20260904202204 | 91 | 62 | 3.0 | 6.0 | 0.00 | 0.01 | 0.01 | 26 | 1013.5 |
| 20260904202125 | 91 | 61 | 3.0 | 6.0 | 0.00 | 0.01 | 0.01 | 26 | 1013.5 |
| 20260904202025 | 91 | 59 | 3.0 | 6.0 | 0.00 | 0.01 | 0.01 | 26 | 1013.5 |
| 20260904201904 | 91 | 63 | 3.0 | 6.0 | 0.00 | 0.01 | 0.01 | 26 | 1013.5 |
| 20260904201804 | 91 | 67 | 3.0 | 8.0 | 0.00 | 0.01 | 0.01 | 26 | 1013.6 |
| 20260904201704 | 91 | 67 | 4.0 | 8.0 | 0.00 | 0.01 | 0.01 | 27 | 1013.6 |
| 20260904201604 | 91 | 67 | 4.0 | 8.0 | 0.00 | 0.01 | 0.01 | 26 | 1013.7 |
| 20260904201504 | 91 | 69 | 4.0 | 8.0 | 0.00 | 0.01 | 0.01 | 27 | 1013.7 |
| 20260904201404 | 91 | 71 | 3.0 | 8.0 | 0.00 | 0.01 | 0.01 | 27 | 1013.7 |
| 20260904201304 | 90 | 73 | 3.0 | 8.0 | 0.00 | 0.01 | 0.01 | 27 | 1013.7 |
| 20260904201204 | 90 | 76 | 3.0 | 8.0 | 0.00 | 0.01 | 0.01 | 27 | 1013.7 |
| 20260904201104 | 90 | 77 | 4.0 | 8.0 | 0.00 | 0.01 | 0.01 | 27 | 1013.8 |
| 20260904201004 | 90 | 77 | 3.0 | 8.0 | 0.00 | 0.01 | 0.01 | 27 | 1013.8 |
| 20260904200904 | 90 | 72 | 3.0 | 8.0 | 0.00 | 0.01 | 0.01 | 28 | 1013.7 |
| 20260904200804 | 90 | 68 | 3.0 | 8.0 | 0.00 | 0.01 | 0.01 | 27 | 1013.8 |
| 20260904200704 | 90 | 69 | 3.0 | 8.0 | 0.00 | 0.01 | 0.01 | 27 | 1013.8 |
| 20260904200604 | 90 | 70 | 3.0 | 8.0 | 0.00 | 0.01 | 0.01 | 27 | 1013.8 |
| 20260904200504 | 90 | 69 | 3.0 | 8.0 | 0.00 | 0.01 | 0.01 | 28 | 1013.8 |
| 20260904200404 | 90 | 69 | 3.0 | 8.0 | 0.00 | 0.01 | 0.01 | 27 | 1013.8 |
| 20260904200304 | 90 | 67 | 3.0 | 8.0 | 0.00 | 0.01 | 0.01 | 27 | 1013.8 |
| 20260904200204 | 90 | 65 | 3.0 | 8.0 | 0.00 | 0.01 | 0.01 | 27 | 1013.8 |
| 20260904200104 | 90 | 61 | 3.0 | 8.0 | 0.00 | 0.01 | 0.01 | 26 | 1013.8 |
| 20260904200025 | 90 | 59 | 3.0 | 8.0 | 0.00 | 0.01 | 0.01 | 25 | 1013.8 |
| 20260904195906 | 90 | 62 | 3.0 | 8.0 | 0.00 | 0.01 | 0.01 | 24 | 1013.9 |
| 20260904195804 | 90 | 62 | 3.0 | 6.0 | 0.00 | 0.01 | 0.01 | 24 | 1013.8 |
| 20260904195725 | 90 | 61 | 3.0 | 6.0 | 0.00 | 0.01 | 0.01 | 23 | 1013.9 |
| 20260904195604 | 90 | 58 | 3.0 | 6.0 | 0.00 | 0.01 | 0.01 | 23 | 1013.9 |
| 20260904195504 | 90 | 55 | 3.0 | 6.0 | 0.00 | 0.01 | 0.01 | 23 | 1013.9 |
| 20260904195404 | 90 | 52 | 4.0 | 6.0 | 0.00 | 0.01 | 0.01 | 21 | 1013.9 |
| 20260904195306 | 90 | 51 | 4.0 | 7.0 | 0.00 | 0.01 | 0.01 | 21 | 1013.9 |
| 20260904195204 | 90 | 51 | 4.0 | 7.0 | 0.00 | 0.01 | 0.01 | 21 | 1013.9 |
| 20260904195125 | 90 | 51 | 3.0 | 7.0 | 0.00 | 0.01 | 0.01 | 21 | 1014.0 |
| 20260904195025 | 90 | 52 | 4.0 | 7.0 | 0.00 | 0.01 | 0.01 | 21 | 1013.9 |
| 20260904194904 | 90 | 52 | 4.0 | 7.0 | 0.00 | 0.01 | 0.01 | 20 | 1013.9 |
| 20260904194804 | 90 | 53 | 4.0 | 7.0 | 0.00 | 0.01 | 0.01 | 20 | 1014.0 |
| 20260904194725 | 90 | 53 | 4.0 | 7.0 | 0.00 | 0.01 | 0.01 | 20 | 1014.0 |
| 20260904194604 | 90 | 54 | 3.0 | 7.0 | 0.00 | 0.01 | 0.01 | 20 | 1014.0 |
| 20260904194504 | 90 | 56 | 3.0 | 7.0 | 0.00 | 0.01 | 0.01 | 20 | 1014.0 |
| 20260904194404 | 90 | 55 | 3.0 | 8.0 | 0.00 | 0.01 | 0.01 | 20 | 1014.0 |
| 20260904194304 | 90 | 53 | 4.0 | 8.0 | 0.00 | 0.01 | 0.01 | 19 | 1014.0 |
| 20260904194204 | 90 | 54 | 4.0 | 8.0 | 0.00 | 0.01 | 0.01 | 20 | 1014.0 |
| 20260904194125 | 90 | 55 | 4.0 | 8.0 | 0.00 | 0.01 | 0.01 | 20 | 1014.0 |
| 20260904194004 | 90 | 55 | 4.0 | 8.0 | 0.00 | 0.01 | 0.01 | 19 | 1014.0 |
| 20260904193904 | 90 | 56 | 4.0 | 8.0 | 0.00 | 0.01 | 0.01 | 19 | 1014.0 |
| 20260904193804 | 90 | 57 | 4.0 | 8.0 | 0.00 | 0.01 | 0.01 | 18 | 1014.0 |
| 20260904193704 | 90 | 57 | 4.0 | 8.0 | 0.00 | 0.01 | 0.01 | 18 | 1014.0 |
| 20260904193604 | 90 | 55 | 4.0 | 8.0 | 0.00 | 0.01 | 0.01 | 18 | 1014.0 |
| 20260904193525 | 90 | 54 | 5.0 | 8.0 | 0.00 | 0.01 | 0.01 | 18 | 1014.1 |
| 20260904193425 | 90 | 54 | 5.0 | 9.0 | 0.00 | 0.01 | 0.01 | 19 | 1014.1 |
| 20260904193304 | 89 | 57 | 5.0 | 9.0 | 0.00 | 0.01 | 0.01 | 18 | 1014.1 |
| 20260904193204 | 89 | 56 | 5.0 | 9.0 | 0.00 | 0.01 | 0.01 | 18 | 1014.1 |
| 20260904193104 | 89 | 55 | 5.0 | 9.0 | 0.00 | 0.01 | 0.01 | 18 | 1014.1 |
| 20260904193025 | 89 | 56 | 5.0 | 9.0 | 0.00 | 0.01 | 0.01 | 18 | 1014.1 |
| 20260904192925 | 89 | 56 | 5.0 | 9.0 | 0.00 | 0.01 | 0.01 | 18 | 1014.1 |
| 20260904192804 | 89 | 52 | 5.0 | 11.0 | 0.00 | 0.01 | 0.01 | 18 | 1014.2 |
| 20260904192704 | 89 | 51 | 5.0 | 11.0 | 0.00 | 0.01 | 0.01 | 17 | 1014.1 |
| 20260904192604 | 89 | 52 | 6.0 | 11.0 | 0.00 | 0.01 | 0.01 | 17 | 1014.2 |
| 20260904192504 | 89 | 52 | 6.0 | 11.0 | 0.00 | 0.01 | 0.01 | 16 | 1014.2 |
| 20260904192404 | 89 | 51 | 6.0 | 11.0 | 0.00 | 0.01 | 0.01 | 16 | 1014.2 |
| 20260904192306 | 89 | 51 | 6.0 | 11.0 | 0.00 | 0.01 | 0.01 | 16 | 1014.2 |
| 20260904192204 | 89 | 50 | 6.0 | 11.0 | 0.00 | 0.01 | 0.01 | 15 | 1014.2 |
| 20260904192104 | 89 | 51 | 6.0 | 11.0 | 0.00 | 0.01 | 0.01 | 16 | 1014.2 |
| 20260904192004 | 89 | 51 | 6.0 | 11.0 | 0.00 | 0.01 | 0.01 | 16 | 1014.2 |
| 20260904191925 | 89 | 52 | 6.0 | 11.0 | 0.00 | 0.01 | 0.01 | 15 | 1014.2 |
| 20260904191804 | 89 | 55 | 6.0 | 11.0 | 0.00 | 0.01 | 0.01 | 14 | 1014.2 |
| 20260904191704 | 89 | 54 | 6.0 | 11.0 | 0.00 | 0.01 | 0.01 | 14 | 1014.2 |
| 20260904191604 | 89 | 53 | 5.0 | 11.0 | 0.00 | 0.01 | 0.01 | 14 | 1014.2 |
| 20260904191504 | 89 | 53 | 5.0 | 11.0 | 0.00 | 0.01 | 0.01 | 13 | 1014.2 |
| 20260904191425 | 89 | 54 | 5.0 | 11.0 | 0.00 | 0.01 | 0.01 | 12 | 1014.3 |
| 20260904191304 | 89 | 55 | 5.0 | 11.0 | 0.00 | 0.01 | 0.01 | 11 | 1014.2 |
| 20260904191204 | 89 | 56 | 5.0 | 11.0 | 0.00 | 0.01 | 0.01 | 10 | 1014.2 |
| 20260904191104 | 89 | 55 | 5.0 | 9.0 | 0.00 | 0.01 | 0.01 | 9 | 1014.2 |
| 20260904191004 | 89 | 55 | 5.0 | 9.0 | 0.00 | 0.01 | 0.01 | 10 | 1014.3 |
| 20260904190905 | 89 | 53 | 5.0 | 9.0 | 0.00 | 0.01 | 0.01 | 10 | 1014.3 |
| 20260904190804 | 89 | 51 | 5.0 | 9.0 | 0.00 | 0.01 | 0.01 | 10 | 1014.3 |
| 20260904190704 | 89 | 52 | 5.0 | 9.0 | 0.00 | 0.01 | 0.01 | 9 | 1014.4 |
| 20260904190604 | 89 | 54 | 5.0 | 9.0 | 0.00 | 0.01 | 0.01 | 9 | 1014.4 |
| 20260904190504 | 89 | 54 | 4.0 | 9.0 | 0.00 | 0.01 | 0.01 | 10 | 1014.4 |
| 20260904190404 | 89 | 53 | 5.0 | 9.0 | 0.00 | 0.01 | 0.01 | 11 | 1014.4 |
| 20260904190304 | 89 | 51 | 5.0 | 10.0 | 0.00 | 0.01 | 0.01 | 11 | 1014.5 |
| 20260904190204 | 89 | 52 | 5.0 | 10.0 | 0.00 | 0.01 | 0.01 | 11 | 1014.5 |
| 20260904190104 | 89 | 50 | 5.0 | 10.0 | 0.00 | 0.01 | 0.01 | 10 | 1014.5 |
| 20260904190004 | 89 | 48 | 5.0 | 10.0 | 0.00 | 0.01 | 0.01 | 9 | 1014.5 |
| 20260904185925 | 89 | 47 | 5.0 | 10.0 | 0.00 | 0.01 | 0.01 | 9 | 1014.5 |
| 20260904185804 | 89 | 51 | 5.0 | 10.0 | 0.00 | 0.01 | 0.01 | 9 | 1014.5 |
| 20260904185725 | 88 | 51 | 5.0 | 10.0 | 0.00 | 0.01 | 0.01 | 9 | 1014.5 |
| 20260904185604 | 88 | 50 | 6.0 | 10.0 | 0.00 | 0.01 | 0.01 | 9 | 1014.5 |
| 20260904185504 | 88 | 49 | 6.0 | 11.0 | 0.00 | 0.01 | 0.01 | 9 | 1014.6 |
| 20260904185404 | 88 | 50 | 6.0 | 11.0 | 0.00 | 0.01 | 0.01 | 9 | 1014.6 |
| 20260904185306 | 88 | 50 | 6.0 | 11.0 | 0.00 | 0.01 | 0.01 | 9 | 1014.6 |
| 20260904185225 | 88 | 50 | 6.0 | 11.0 | 0.00 | 0.01 | 0.01 | 8 | 1014.7 |
| 20260904185104 | 88 | 49 | 6.0 | 11.0 | 0.00 | 0.01 | 0.01 | 8 | 1014.7 |
| 20260904185025 | 88 | 48 | 6.0 | 11.0 | 0.00 | 0.01 | 0.01 | 8 | 1014.8 |
| 20260904184925 | 88 | 49 | 6.0 | 11.0 | 0.00 | 0.01 | 0.01 | 7 | 1014.8 |
| 20260904184825 | 88 | 48 | 6.0 | 12.0 | 0.00 | 0.01 | 0.01 | 7 | 1014.7 |
| 20260904184704 | 88 | 47 | 7.0 | 14.0 | 0.00 | 0.01 | 0.01 | 8 | 1014.8 |
| 20260904184625 | 88 | 48 | 6.0 | 14.0 | 0.00 | 0.01 | 0.01 | 8 | 1014.8 |
| 20260904184504 | 88 | 50 | 6.0 | 14.0 | 0.00 | 0.01 | 0.01 | 7 | 1014.8 |
| 20260904184404 | 88 | 49 | 6.0 | 14.0 | 0.00 | 0.01 | 0.01 | 7 | 1014.8 |
| 20260904184304 | 88 | 50 | 6.0 | 14.0 | 0.00 | 0.01 | 0.01 | 6 | 1014.9 |
| 20260904184225 | 88 | 50 | 5.0 | 14.0 | 0.00 | 0.01 | 0.01 | 6 | 1014.9 |
| 20260904184104 | 88 | 51 | 5.0 | 14.0 | 0.00 | 0.01 | 0.01 | 7 | 1014.9 |
| 20260904184025 | 88 | 51 | 5.0 | 14.0 | 0.00 | 0.01 | 0.01 | 7 | 1014.9 |
| 20260904183904 | 88 | 51 | 5.0 | 14.0 | 0.00 | 0.01 | 0.01 | 7 | 1014.9 |
| 20260904183804 | 88 | 50 | 4.0 | 11.0 | 0.00 | 0.01 | 0.01 | 6 | 1014.9 |
| 20260904183704 | 88 | 50 | 4.0 | 8.0 | 0.00 | 0.01 | 0.01 | 4 | 1014.9 |
| 20260904183625 | 88 | 48 | 5.0 | 10.0 | 0.00 | 0.01 | 0.01 | 4 | 1014.9 |
| 20260904183504 | 88 | 44 | 5.0 | 10.0 | 0.00 | 0.01 | 0.01 | 5 | 1014.9 |
| 20260904183404 | 88 | 41 | 5.0 | 10.0 | 0.00 | 0.01 | 0.01 | 5 | 1014.9 |
| 20260904183304 | 88 | 39 | 5.0 | 10.0 | 0.00 | 0.01 | 0.01 | 6 | 1014.9 |
| 20260904183204 | 88 | 40 | 5.0 | 10.0 | 0.00 | 0.01 | 0.01 | 7 | 1014.9 |
| 20260904183104 | 88 | 40 | 5.0 | 10.0 | 0.00 | 0.01 | 0.01 | 8 | 1014.9 |
| 20260904183004 | 88 | 39 | 5.0 | 10.0 | 0.00 | 0.01 | 0.01 | 6 | 1014.9 |
| 20260904182904 | 88 | 39 | 5.0 | 10.0 | 0.00 | 0.01 | 0.01 | 6 | 1014.9 |
| 20260904182804 | 88 | 37 | 5.0 | 10.0 | 0.00 | 0.01 | 0.01 | 6 | 1014.9 |
| 20260904182704 | 88 | 36 | 5.0 | 10.0 | 0.00 | 0.01 | 0.01 | 5 | 1015.0 |
| 20260904182604 | 88 | 37 | 5.0 | 10.0 | 0.00 | 0.01 | 0.01 | 5 | 1015.0 |
| 20260904182504 | 88 | 38 | 5.0 | 10.0 | 0.00 | 0.01 | 0.01 | 5 | 1015.0 |
| 20260904182404 | 88 | 39 | 5.0 | 11.0 | 0.00 | 0.01 | 0.01 | 4 | 1014.9 |
| 20260904182306 | 88 | 40 | 4.0 | 11.0 | 0.00 | 0.01 | 0.01 | 4 | 1015.0 |
| 20260904182225 | 88 | 40 | 5.0 | 11.0 | 0.00 | 0.01 | 0.01 | 3 | 1015.0 |
| 20260904182104 | 88 | 39 | 5.0 | 11.0 | 0.00 | 0.01 | 0.01 | 3 | 1015.0 |
| 20260904182004 | 88 | 42 | 5.0 | 11.0 | 0.00 | 0.01 | 0.01 | 4 | 1015.0 |
| 20260904181925 | 88 | 42 | 5.0 | 11.0 | 0.00 | 0.01 | 0.01 | 4 | 1015.0 |
| 20260904181804 | 88 | 43 | 5.0 | 11.0 | 0.00 | 0.01 | 0.01 | 5 | 1015.0 |
| 20260904181704 | 88 | 42 | 5.0 | 11.0 | 0.00 | 0.01 | 0.01 | 5 | 1015.0 |
| 20260904181625 | 88 | 42 | 5.0 | 11.0 | 0.00 | 0.01 | 0.01 | 4 | 1015.0 |
| 20260904181504 | 88 | 43 | 5.0 | 11.0 | 0.00 | 0.01 | 0.01 | 4 | 1015.0 |
| 20260904181404 | 87 | 43 | 5.0 | 9.0 | 0.00 | 0.01 | 0.01 | 1 | 1015.0 |
| 20260904181304 | 87 | 44 | 5.0 | 9.0 | 0.00 | 0.01 | 0.01 | 1 | 1015.0 |
| 20260904181225 | 87 | 46 | 5.0 | 9.0 | 0.00 | 0.01 | 0.01 | 1 | 1015.0 |
| 20260904181125 | 87 | 47 | 5.0 | 9.0 | 0.00 | 0.01 | 0.01 | 1 | 1015.0 |
| 20260904181025 | 87 | 47 | 5.0 | 9.0 | 0.00 | 0.01 | 0.01 | 1 | 1015.0 |
| 20260904180904 | 87 | 48 | 5.0 | 9.0 | 0.00 | 0.01 | 0.01 | 1 | 1015.0 |
| 20260904180825 | 87 | 49 | 5.0 | 9.0 | 0.00 | 0.01 | 0.01 | 1 | 1015.0 |
| 20260904180704 | 87 | 52 | 5.0 | 8.0 | 0.00 | 0.01 | 0.01 | 1 | 1015.0 |
| 20260904180604 | 87 | 52 | 5.0 | 9.0 | 0.00 | 0.01 | 0.01 | 1 | 1015.1 |
| 20260904180504 | 87 | 54 | 5.0 | 9.0 | 0.00 | 0.01 | 0.01 | 1 | 1015.1 |
| 20260904180404 | 87 | 54 | 5.0 | 9.0 | 0.00 | 0.01 | 0.01 | 1 | 1015.1 |
| 20260904180304 | 87 | 54 | 5.0 | 9.0 | 0.00 | 0.01 | 0.01 | 1 | 1015.1 |
| 20260904180204 | 87 | 54 | 5.0 | 9.0 | 0.00 | 0.01 | 0.01 | 1 | 1015.1 |
| 20260904180104 | 87 | 54 | 5.0 | 11.0 | 0.00 | 0.01 | 0.01 | 1 | 1015.1 |
| 20260904180004 | 87 | 54 | 5.0 | 11.0 | 0.00 | 0.01 | 0.01 | 1 | 1015.0 |
| 20260904175904 | 87 | 55 | 5.0 | 11.0 | 0.00 | 0.01 | 0.01 | 1 | 1015.0 |
| 20260904175804 | 87 | 55 | 5.0 | 11.0 | 0.00 | 0.01 | 0.01 | 1 | 1015.1 |
| 20260904175704 | 87 | 56 | 4.0 | 11.0 | 0.00 | 0.01 | 0.01 | 1 | 1015.2 |
| 20260904175604 | 87 | 56 | 4.0 | 11.0 | 0.00 | 0.01 | 0.01 | 1 | 1015.2 |
| 20260904175504 | 87 | 54 | 4.0 | 11.0 | 0.00 | 0.01 | 0.01 | 1 | 1015.2 |
| 20260904175425 | 87 | 55 | 5.0 | 11.0 | 0.00 | 0.01 | 0.01 | 1 | 1015.2 |
| 20260904175305 | 87 | 59 | 4.0 | 11.0 | 0.00 | 0.01 | 0.01 | 1 | 1015.2 |
| 20260904175225 | 87 | 59 | 5.0 | 11.0 | 0.00 | 0.01 | 0.01 | 1 | 1015.2 |
| 20260904175104 | 87 | 58 | 4.0 | 10.0 | 0.00 | 0.01 | 0.01 | 1 | 1015.1 |
| 20260904175004 | 87 | 57 | 5.0 | 10.0 | 0.00 | 0.01 | 0.01 | 1 | 1015.2 |
| 20260904174904 | 87 | 55 | 5.0 | 10.0 | 0.00 | 0.01 | 0.01 | 1 | 1015.2 |
| 20260904174804 | 87 | 55 | 5.0 | 10.0 | 0.00 | 0.01 | 0.01 | 1 | 1015.2 |
| 20260904174725 | 87 | 54 | 5.0 | 13.0 | 0.00 | 0.01 | 0.01 | 1 | 1015.2 |
| 20260904174604 | 87 | 54 | 5.0 | 13.0 | 0.00 | 0.01 | 0.01 | 1 | 1015.2 |
| 20260904174525 | 87 | 55 | 5.0 | 13.0 | 0.00 | 0.01 | 0.01 | 1 | 1015.2 |
| 20260904174404 | 87 | 52 | 6.0 | 13.0 | 0.00 | 0.01 | 0.01 | 1 | 1015.2 |
| 20260904174304 | 87 | 50 | 6.0 | 13.0 | 0.00 | 0.01 | 0.01 | 1 | 1015.2 |
| 20260904174204 | 87 | 50 | 5.0 | 13.0 | 0.00 | 0.01 | 0.01 | 1 | 1015.2 |
| 20260904174104 | 87 | 48 | 5.0 | 13.0 | 0.00 | 0.01 | 0.01 | 1 | 1015.2 |
| 20260904174004 | 87 | 49 | 5.0 | 13.0 | 0.00 | 0.01 | 0.01 | 1 | 1015.3 |
| 20260904173927 | 87 | 48 | 5.0 | 13.0 | 0.00 | 0.01 | 0.01 | 1 | 1015.2 |
| 20260904173804 | 87 | 47 | 4.0 | 13.0 | 0.00 | 0.01 | 0.01 | 1 | 1015.3 |
| 20260904173704 | 87 | 46 | 5.0 | 10.0 | 0.00 | 0.01 | 0.01 | 1 | 1015.3 |
| 20260904173604 | 87 | 45 | 5.0 | 11.0 | 0.00 | 0.01 | 0.01 | 1 | 1015.3 |
| 20260904173525 | 87 | 46 | 5.0 | 11.0 | 0.00 | 0.01 | 0.01 | 1 | 1015.3 |
| 20260904173404 | 87 | 47 | 5.0 | 11.0 | 0.00 | 0.01 | 0.01 | 1 | 1015.3 |
| 20260904173304 | 87 | 47 | 4.0 | 11.0 | 0.00 | 0.01 | 0.01 | 1 | 1015.3 |
| 20260904173204 | 87 | 46 | 4.0 | 11.0 | 0.00 | 0.01 | 0.01 | 1 | 1015.3 |
| 20260904173104 | 87 | 46 | 4.0 | 11.0 | 0.00 | 0.01 | 0.01 | 1 | 1015.3 |
| 20260904173004 | 87 | 47 | 4.0 | 11.0 | 0.00 | 0.01 | 0.01 | 1 | 1015.3 |
| 20260904172904 | 87 | 47 | 5.0 | 11.0 | 0.00 | 0.01 | 0.01 | 1 | 1015.3 |
| 20260904172804 | 87 | 45 | 5.0 | 11.0 | 0.00 | 0.01 | 0.01 | 1 | 1015.3 |
| 20260904172704 | 87 | 46 | 4.0 | 11.0 | 0.00 | 0.01 | 0.01 | 1 | 1015.3 |
| 20260904172604 | 87 | 46 | 4.0 | 9.0 | 0.00 | 0.01 | 0.01 | 1 | 1015.4 |
| 20260904172504 | 87 | 40 | 4.0 | 9.0 | 0.00 | 0.01 | 0.01 | 1 | 1015.3 |
| 20260904172425 | 87 | 38 | 4.0 | 9.0 | 0.00 | 0.01 | 0.01 | 1 | 1015.3 |
| 20260904172325 | 87 | 38 | 5.0 | 15.0 | 0.00 | 0.01 | 0.01 | 1 | 1015.4 |
| 20260904172225 | 87 | 39 | 5.0 | 15.0 | 0.00 | 0.01 | 0.01 | 1 | 1015.4 |
| 20260904172104 | 87 | 41 | 5.0 | 15.0 | 0.00 | 0.01 | 0.01 | 1 | 1015.4 |
| 20260904172004 | 87 | 40 | 5.0 | 15.0 | 0.00 | 0.01 | 0.01 | 1 | 1015.4 |
| 20260904171904 | 87 | 38 | 4.0 | 15.0 | 0.00 | 0.01 | 0.01 | 1 | 1015.4 |
| 20260904171804 | 87 | 36 | 4.0 | 15.0 | 0.00 | 0.01 | 0.01 | 1 | 1015.4 |
| 20260904171704 | 87 | 37 | 4.0 | 15.0 | 0.00 | 0.01 | 0.01 | 1 | 1015.5 |
| 20260904171604 | 87 | 37 | 4.0 | 15.0 | 0.00 | 0.01 | 0.01 | 1 | 1015.4 |
| 20260904171504 | 87 | 38 | 4.0 | 15.0 | 0.00 | 0.01 | 0.01 | 1 | 1015.5 |
| 20260904171404 | 88 | 34 | 4.0 | 15.0 | 0.00 | 0.01 | 0.01 | 1 | 1015.5 |
| 20260904171304 | 88 | 35 | 3.0 | 9.0 | 0.00 | 0.01 | 0.01 | 1 | 1015.5 |
| 20260904171204 | 88 | 30 | 4.0 | 8.0 | 0.00 | 0.01 | 0.01 | 1 | 1015.5 |
| 20260904171104 | 88 | 29 | 4.0 | 8.0 | 0.00 | 0.01 | 0.01 | 1 | 1015.5 |
| 20260904171004 | 88 | 30 | 4.0 | 8.0 | 0.00 | 0.01 | 0.01 | 1 | 1015.4 |
| 20260904170904 | 88 | 33 | 4.0 | 8.0 | 0.00 | 0.01 | 0.01 | 1 | 1015.4 |
| 20260904170804 | 87 | 31 | 4.0 | 8.0 | 0.00 | 0.01 | 0.01 | 1 | 1015.5 |
| 20260904170704 | 87 | 26 | 3.0 | 8.0 | 0.00 | 0.01 | 0.01 | 1 | 1015.5 |
| 20260904170604 | 87 | 18 | 3.0 | 8.0 | 0.00 | 0.01 | 0.01 | 1 | 1015.5 |
| 20260904170525 | 87 | 13 | 3.0 | 8.0 | 0.00 | 0.01 | 0.01 | 1 | 1015.5 |
| 20260904170404 | 87 | 18 | 3.0 | 8.0 | 0.00 | 0.01 | 0.01 | 1 | 1015.5 |
| 20260904170304 | 87 | 8 | 3.0 | 8.0 | 0.00 | 0.01 | 0.01 | 2 | 1015.6 |
| 20260904170204 | 87 | 8 | 3.0 | 7.0 | 0.00 | 0.01 | 0.01 | 3 | 1015.5 |
| 20260904170125 | 87 | 6 | 3.0 | 9.0 | 0.00 | 0.01 | 0.01 | 3 | 1015.5 |
| 20260904170004 | 87 | 1 | 3.0 | 9.0 | 0.00 | 0.01 | 0.01 | 3 | 1015.5 |
| 20260904165904 | 87 | 356 | 3.0 | 9.0 | 0.00 | 0.01 | 0.01 | 2 | 1015.5 |
| 20260904165804 | 87 | 6 | 3.0 | 9.0 | 0.00 | 0.01 | 0.01 | 4 | 1015.5 |
| 20260904165704 | 87 | 13 | 3.0 | 9.0 | 0.00 | 0.01 | 0.01 | 4 | 1015.6 |
| 20260904165625 | 87 | 17 | 3.0 | 9.0 | 0.00 | 0.01 | 0.01 | 4 | 1015.6 |
| 20260904165504 | 87 | 25 | 3.0 | 9.0 | 0.00 | 0.01 | 0.01 | 3 | 1015.6 |
| 20260904165425 | 87 | 27 | 3.0 | 9.0 | 0.00 | 0.01 | 0.01 | 3 | 1015.6 |
| 20260904165325 | 87 | 31 | 3.0 | 9.0 | 0.00 | 0.01 | 0.01 | 4 | 1015.6 |
| 20260904165204 | 87 | 37 | 3.0 | 9.0 | 0.00 | 0.01 | 0.01 | 3 | 1015.6 |
| 20260904165104 | 87 | 40 | 3.0 | 8.0 | 0.00 | 0.01 | 0.01 | 3 | 1015.6 |
| 20260904165004 | 87 | 41 | 4.0 | 8.0 | 0.00 | 0.01 | 0.01 | 4 | 1015.6 |
| 20260904164904 | 87 | 45 | 4.0 | 8.0 | 0.00 | 0.01 | 0.01 | 4 | 1015.6 |
| 20260904164804 | 87 | 49 | 4.0 | 8.0 | 0.00 | 0.01 | 0.01 | 4 | 1015.6 |
| 20260904164704 | 86 | 51 | 4.0 | 8.0 | 0.00 | 0.01 | 0.01 | 4 | 1015.6 |
| 20260904164625 | 86 | 53 | 4.0 | 8.0 | 0.00 | 0.01 | 0.01 | 4 | 1015.6 |
| 20260904164525 | 86 | 55 | 4.0 | 8.0 | 0.00 | 0.01 | 0.01 | 3 | 1015.6 |
| 20260904164425 | 86 | 58 | 4.0 | 8.0 | 0.00 | 0.01 | 0.01 | 1 | 1015.6 |
| 20260904164304 | 86 | 61 | 4.0 | 8.0 | 0.00 | 0.01 | 0.01 | 1 | 1015.5 |
| 20260904164204 | 86 | 62 | 4.0 | 8.0 | 0.00 | 0.01 | 0.01 | 1 | 1015.6 |
| 20260904164104 | 86 | 61 | 4.0 | 8.0 | 0.00 | 0.01 | 0.01 | 1 | 1015.7 |
| 20260904164004 | 86 | 59 | 4.0 | 8.0 | 0.00 | 0.01 | 0.01 | 1 | 1015.7 |
| 20260904163925 | 86 | 58 | 4.0 | 8.0 | 0.00 | 0.01 | 0.01 | 1 | 1015.6 |
| 20260904163804 | 86 | 60 | 4.0 | 8.0 | 0.00 | 0.01 | 0.01 | 1 | 1015.6 |
| 20260904163704 | 86 | 59 | 4.0 | 8.0 | 0.00 | 0.01 | 0.01 | 1 | 1015.6 |
| 20260904163604 | 86 | 58 | 4.0 | 8.0 | 0.00 | 0.01 | 0.01 | 1 | 1015.6 |
| 20260904163504 | 86 | 59 | 5.0 | 8.0 | 0.00 | 0.01 | 0.01 | 1 | 1015.7 |
| 20260904163404 | 86 | 57 | 5.0 | 8.0 | 0.00 | 0.01 | 0.01 | 1 | 1015.7 |